<?xml version="1.0" encoding="UTF-8" standalone="no" ?>
<gpx xmlns="http://www.topografix.com/GPX/1/1" xmlns:xsi="http://www.w3.org/2001/XMLSchema-instance" xsi:schemaLocation="http://www.topografix.com/GPX/1/1 http://www.topografix.com/GPX/1/1/gpx.xsd" version="1.1" creator="VisuGPX - https://www.visugpx.com">
  <metadata>
    <name>Base GR 22</name>
    <desc><![CDATA[J\'ai pris comme base le GR 22 que dont j\'ai perdu la trace dans bonneville sur iton....  Circuit avec 50% de chemin d\'herbe, le reste étant de la foret et de la route.]]></desc>
  </metadata>
  <trk>
    <name><![CDATA[ExploGPSTrack]]></name>
    <desc><![CDATA[Track description]]></desc>
    <trkseg>
      <trkpt lat="49.02469" lon="1.13704">
        <ele>64.5</ele>
        <time>2014-09-28T15:01:24Z</time>
      </trkpt>
      <trkpt lat="49.0247" lon="1.13705">
        <ele>63.5</ele>
        <time>2014-09-28T15:01:25Z</time>
      </trkpt>
      <trkpt lat="49.02473" lon="1.13699">
        <ele>58.5</ele>
        <time>2014-09-28T15:01:26Z</time>
      </trkpt>
      <trkpt lat="49.02476" lon="1.13678">
        <ele>64</ele>
        <time>2014-09-28T15:01:32Z</time>
      </trkpt>
      <trkpt lat="49.02467" lon="1.13707">
        <ele>63.5</ele>
        <time>2014-09-28T15:01:33Z</time>
      </trkpt>
      <trkpt lat="49.02477" lon="1.13702">
        <ele>61.5</ele>
        <time>2014-09-28T15:01:44Z</time>
      </trkpt>
      <trkpt lat="49.02487" lon="1.13696">
        <ele>57.5</ele>
        <time>2014-09-28T15:01:47Z</time>
      </trkpt>
      <trkpt lat="49.02495" lon="1.13692">
        <ele>54.5</ele>
        <time>2014-09-28T15:01:50Z</time>
      </trkpt>
      <trkpt lat="49.02502" lon="1.13682">
        <ele>52.5</ele>
        <time>2014-09-28T15:01:53Z</time>
      </trkpt>
      <trkpt lat="49.02508" lon="1.13675">
        <ele>54.5</ele>
        <time>2014-09-28T15:01:55Z</time>
      </trkpt>
      <trkpt lat="49.02514" lon="1.13668">
        <ele>54.5</ele>
        <time>2014-09-28T15:01:57Z</time>
      </trkpt>
      <trkpt lat="49.02521" lon="1.1366">
        <ele>55.5</ele>
        <time>2014-09-28T15:01:59Z</time>
      </trkpt>
      <trkpt lat="49.02527" lon="1.13653">
        <ele>54.5</ele>
        <time>2014-09-28T15:02:01Z</time>
      </trkpt>
      <trkpt lat="49.02534" lon="1.13647">
        <ele>53.5</ele>
        <time>2014-09-28T15:02:03Z</time>
      </trkpt>
      <trkpt lat="49.02541" lon="1.13641">
        <ele>53.5</ele>
        <time>2014-09-28T15:02:05Z</time>
      </trkpt>
      <trkpt lat="49.02548" lon="1.13637">
        <ele>53.5</ele>
        <time>2014-09-28T15:02:07Z</time>
      </trkpt>
      <trkpt lat="49.02556" lon="1.13632">
        <ele>52.5</ele>
        <time>2014-09-28T15:02:09Z</time>
      </trkpt>
      <trkpt lat="49.02563" lon="1.13628">
        <ele>51.5</ele>
        <time>2014-09-28T15:02:11Z</time>
      </trkpt>
      <trkpt lat="49.0257" lon="1.13624">
        <ele>51.5</ele>
        <time>2014-09-28T15:02:13Z</time>
      </trkpt>
      <trkpt lat="49.02577" lon="1.13619">
        <ele>51.5</ele>
        <time>2014-09-28T15:02:15Z</time>
      </trkpt>
      <trkpt lat="49.02585" lon="1.13615">
        <ele>51.5</ele>
        <time>2014-09-28T15:02:17Z</time>
      </trkpt>
      <trkpt lat="49.02593" lon="1.13612">
        <ele>50.5</ele>
        <time>2014-09-28T15:02:19Z</time>
      </trkpt>
      <trkpt lat="49.02599" lon="1.13602">
        <ele>51.5</ele>
        <time>2014-09-28T15:02:22Z</time>
      </trkpt>
      <trkpt lat="49.02596" lon="1.13587">
        <ele>53.5</ele>
        <time>2014-09-28T15:02:25Z</time>
      </trkpt>
      <trkpt lat="49.02591" lon="1.13578">
        <ele>52.5</ele>
        <time>2014-09-28T15:02:27Z</time>
      </trkpt>
      <trkpt lat="49.02589" lon="1.13567">
        <ele>53.5</ele>
        <time>2014-09-28T15:02:29Z</time>
      </trkpt>
      <trkpt lat="49.02586" lon="1.13557">
        <ele>54.5</ele>
        <time>2014-09-28T15:02:31Z</time>
      </trkpt>
      <trkpt lat="49.02585" lon="1.13546">
        <ele>55.5</ele>
        <time>2014-09-28T15:02:33Z</time>
      </trkpt>
      <trkpt lat="49.02584" lon="1.13535">
        <ele>55.5</ele>
        <time>2014-09-28T15:02:35Z</time>
      </trkpt>
      <trkpt lat="49.02583" lon="1.13524">
        <ele>56.5</ele>
        <time>2014-09-28T15:02:37Z</time>
      </trkpt>
      <trkpt lat="49.02583" lon="1.13507">
        <ele>56.5</ele>
        <time>2014-09-28T15:02:40Z</time>
      </trkpt>
      <trkpt lat="49.02582" lon="1.13496">
        <ele>56.5</ele>
        <time>2014-09-28T15:02:42Z</time>
      </trkpt>
      <trkpt lat="49.02581" lon="1.13485">
        <ele>56.5</ele>
        <time>2014-09-28T15:02:44Z</time>
      </trkpt>
      <trkpt lat="49.0258" lon="1.13473">
        <ele>56.5</ele>
        <time>2014-09-28T15:02:46Z</time>
      </trkpt>
      <trkpt lat="49.02579" lon="1.13461">
        <ele>56.5</ele>
        <time>2014-09-28T15:02:48Z</time>
      </trkpt>
      <trkpt lat="49.02578" lon="1.13449">
        <ele>55.5</ele>
        <time>2014-09-28T15:02:50Z</time>
      </trkpt>
      <trkpt lat="49.02577" lon="1.13438">
        <ele>56.5</ele>
        <time>2014-09-28T15:02:52Z</time>
      </trkpt>
      <trkpt lat="49.02575" lon="1.13426">
        <ele>55.5</ele>
        <time>2014-09-28T15:02:54Z</time>
      </trkpt>
      <trkpt lat="49.02574" lon="1.13415">
        <ele>55.5</ele>
        <time>2014-09-28T15:02:56Z</time>
      </trkpt>
      <trkpt lat="49.02572" lon="1.13403">
        <ele>55.5</ele>
        <time>2014-09-28T15:02:58Z</time>
      </trkpt>
      <trkpt lat="49.02569" lon="1.13388">
        <ele>55.5</ele>
        <time>2014-09-28T15:03:01Z</time>
      </trkpt>
      <trkpt lat="49.02567" lon="1.13377">
        <ele>57.5</ele>
        <time>2014-09-28T15:03:03Z</time>
      </trkpt>
      <trkpt lat="49.02565" lon="1.13366">
        <ele>55.5</ele>
        <time>2014-09-28T15:03:05Z</time>
      </trkpt>
      <trkpt lat="49.02563" lon="1.13355">
        <ele>55.5</ele>
        <time>2014-09-28T15:03:07Z</time>
      </trkpt>
      <trkpt lat="49.02561" lon="1.13344">
        <ele>57.5</ele>
        <time>2014-09-28T15:03:09Z</time>
      </trkpt>
      <trkpt lat="49.02558" lon="1.13333">
        <ele>57.5</ele>
        <time>2014-09-28T15:03:11Z</time>
      </trkpt>
      <trkpt lat="49.02557" lon="1.13321">
        <ele>58.5</ele>
        <time>2014-09-28T15:03:13Z</time>
      </trkpt>
      <trkpt lat="49.02556" lon="1.13308">
        <ele>58.5</ele>
        <time>2014-09-28T15:03:15Z</time>
      </trkpt>
      <trkpt lat="49.02555" lon="1.13296">
        <ele>59.5</ele>
        <time>2014-09-28T15:03:17Z</time>
      </trkpt>
      <trkpt lat="49.02552" lon="1.13284">
        <ele>58.5</ele>
        <time>2014-09-28T15:03:19Z</time>
      </trkpt>
      <trkpt lat="49.02551" lon="1.13272">
        <ele>59.5</ele>
        <time>2014-09-28T15:03:21Z</time>
      </trkpt>
      <trkpt lat="49.02549" lon="1.1326">
        <ele>58.5</ele>
        <time>2014-09-28T15:03:23Z</time>
      </trkpt>
      <trkpt lat="49.02547" lon="1.13248">
        <ele>58.5</ele>
        <time>2014-09-28T15:03:25Z</time>
      </trkpt>
      <trkpt lat="49.02544" lon="1.13236">
        <ele>58.5</ele>
        <time>2014-09-28T15:03:27Z</time>
      </trkpt>
      <trkpt lat="49.0254" lon="1.13221">
        <ele>58.5</ele>
        <time>2014-09-28T15:03:29Z</time>
      </trkpt>
      <trkpt lat="49.02539" lon="1.13208">
        <ele>59.5</ele>
        <time>2014-09-28T15:03:31Z</time>
      </trkpt>
      <trkpt lat="49.02537" lon="1.13195">
        <ele>58.5</ele>
        <time>2014-09-28T15:03:33Z</time>
      </trkpt>
      <trkpt lat="49.02534" lon="1.13183">
        <ele>59.5</ele>
        <time>2014-09-28T15:03:35Z</time>
      </trkpt>
      <trkpt lat="49.02533" lon="1.13171">
        <ele>59.5</ele>
        <time>2014-09-28T15:03:37Z</time>
      </trkpt>
      <trkpt lat="49.02531" lon="1.13158">
        <ele>59.5</ele>
        <time>2014-09-28T15:03:39Z</time>
      </trkpt>
      <trkpt lat="49.02529" lon="1.13146">
        <ele>59.5</ele>
        <time>2014-09-28T15:03:41Z</time>
      </trkpt>
      <trkpt lat="49.02527" lon="1.13133">
        <ele>58.5</ele>
        <time>2014-09-28T15:03:43Z</time>
      </trkpt>
      <trkpt lat="49.02524" lon="1.13121">
        <ele>58.5</ele>
        <time>2014-09-28T15:03:45Z</time>
      </trkpt>
      <trkpt lat="49.02521" lon="1.13108">
        <ele>59.5</ele>
        <time>2014-09-28T15:03:47Z</time>
      </trkpt>
      <trkpt lat="49.02519" lon="1.13094">
        <ele>59.5</ele>
        <time>2014-09-28T15:03:49Z</time>
      </trkpt>
      <trkpt lat="49.02517" lon="1.13081">
        <ele>59.5</ele>
        <time>2014-09-28T15:03:51Z</time>
      </trkpt>
      <trkpt lat="49.02515" lon="1.13068">
        <ele>59.5</ele>
        <time>2014-09-28T15:03:53Z</time>
      </trkpt>
      <trkpt lat="49.02512" lon="1.13053">
        <ele>59.5</ele>
        <time>2014-09-28T15:03:55Z</time>
      </trkpt>
      <trkpt lat="49.0251" lon="1.1304">
        <ele>59.5</ele>
        <time>2014-09-28T15:03:57Z</time>
      </trkpt>
      <trkpt lat="49.02507" lon="1.13026">
        <ele>59.5</ele>
        <time>2014-09-28T15:03:59Z</time>
      </trkpt>
      <trkpt lat="49.02505" lon="1.13013">
        <ele>59.5</ele>
        <time>2014-09-28T15:04:01Z</time>
      </trkpt>
      <trkpt lat="49.02502" lon="1.12999">
        <ele>59.5</ele>
        <time>2014-09-28T15:04:03Z</time>
      </trkpt>
      <trkpt lat="49.025" lon="1.12987">
        <ele>60.5</ele>
        <time>2014-09-28T15:04:05Z</time>
      </trkpt>
      <trkpt lat="49.02497" lon="1.12974">
        <ele>61.5</ele>
        <time>2014-09-28T15:04:07Z</time>
      </trkpt>
      <trkpt lat="49.02496" lon="1.1296">
        <ele>61.5</ele>
        <time>2014-09-28T15:04:09Z</time>
      </trkpt>
      <trkpt lat="49.02494" lon="1.12946">
        <ele>60.5</ele>
        <time>2014-09-28T15:04:11Z</time>
      </trkpt>
      <trkpt lat="49.02492" lon="1.12932">
        <ele>61.5</ele>
        <time>2014-09-28T15:04:13Z</time>
      </trkpt>
      <trkpt lat="49.02491" lon="1.1292">
        <ele>59.5</ele>
        <time>2014-09-28T15:04:15Z</time>
      </trkpt>
      <trkpt lat="49.02489" lon="1.12905">
        <ele>59.5</ele>
        <time>2014-09-28T15:04:17Z</time>
      </trkpt>
      <trkpt lat="49.02487" lon="1.1289">
        <ele>58.5</ele>
        <time>2014-09-28T15:04:19Z</time>
      </trkpt>
      <trkpt lat="49.02484" lon="1.12876">
        <ele>57.5</ele>
        <time>2014-09-28T15:04:21Z</time>
      </trkpt>
      <trkpt lat="49.0248" lon="1.12862">
        <ele>57.5</ele>
        <time>2014-09-28T15:04:23Z</time>
      </trkpt>
      <trkpt lat="49.02477" lon="1.12848">
        <ele>59.5</ele>
        <time>2014-09-28T15:04:25Z</time>
      </trkpt>
      <trkpt lat="49.02471" lon="1.12835">
        <ele>58.5</ele>
        <time>2014-09-28T15:04:27Z</time>
      </trkpt>
      <trkpt lat="49.02469" lon="1.12821">
        <ele>58.5</ele>
        <time>2014-09-28T15:04:29Z</time>
      </trkpt>
      <trkpt lat="49.02467" lon="1.12808">
        <ele>58.5</ele>
        <time>2014-09-28T15:04:31Z</time>
      </trkpt>
      <trkpt lat="49.02464" lon="1.12794">
        <ele>57.5</ele>
        <time>2014-09-28T15:04:33Z</time>
      </trkpt>
      <trkpt lat="49.0246" lon="1.12783">
        <ele>59.5</ele>
        <time>2014-09-28T15:04:35Z</time>
      </trkpt>
      <trkpt lat="49.02458" lon="1.12771">
        <ele>59.5</ele>
        <time>2014-09-28T15:04:37Z</time>
      </trkpt>
      <trkpt lat="49.02456" lon="1.12758">
        <ele>59.5</ele>
        <time>2014-09-28T15:04:39Z</time>
      </trkpt>
      <trkpt lat="49.02454" lon="1.12746">
        <ele>59.5</ele>
        <time>2014-09-28T15:04:41Z</time>
      </trkpt>
      <trkpt lat="49.02454" lon="1.12734">
        <ele>59.5</ele>
        <time>2014-09-28T15:04:43Z</time>
      </trkpt>
      <trkpt lat="49.02452" lon="1.12721">
        <ele>59.5</ele>
        <time>2014-09-28T15:04:45Z</time>
      </trkpt>
      <trkpt lat="49.02453" lon="1.12708">
        <ele>60.5</ele>
        <time>2014-09-28T15:04:47Z</time>
      </trkpt>
      <trkpt lat="49.02453" lon="1.12695">
        <ele>59.5</ele>
        <time>2014-09-28T15:04:49Z</time>
      </trkpt>
      <trkpt lat="49.02454" lon="1.12682">
        <ele>60.5</ele>
        <time>2014-09-28T15:04:51Z</time>
      </trkpt>
      <trkpt lat="49.02453" lon="1.1267">
        <ele>61.5</ele>
        <time>2014-09-28T15:04:53Z</time>
      </trkpt>
      <trkpt lat="49.02454" lon="1.12657">
        <ele>61.5</ele>
        <time>2014-09-28T15:04:55Z</time>
      </trkpt>
      <trkpt lat="49.02456" lon="1.12645">
        <ele>62.5</ele>
        <time>2014-09-28T15:04:57Z</time>
      </trkpt>
      <trkpt lat="49.02458" lon="1.12629">
        <ele>62.5</ele>
        <time>2014-09-28T15:04:59Z</time>
      </trkpt>
      <trkpt lat="49.0246" lon="1.12616">
        <ele>62.5</ele>
        <time>2014-09-28T15:05:01Z</time>
      </trkpt>
      <trkpt lat="49.02461" lon="1.12602">
        <ele>62.5</ele>
        <time>2014-09-28T15:05:03Z</time>
      </trkpt>
      <trkpt lat="49.0246" lon="1.12589">
        <ele>62.5</ele>
        <time>2014-09-28T15:05:05Z</time>
      </trkpt>
      <trkpt lat="49.02464" lon="1.12574">
        <ele>61.5</ele>
        <time>2014-09-28T15:05:07Z</time>
      </trkpt>
      <trkpt lat="49.02462" lon="1.12558">
        <ele>60.5</ele>
        <time>2014-09-28T15:05:09Z</time>
      </trkpt>
      <trkpt lat="49.02463" lon="1.12543">
        <ele>60.5</ele>
        <time>2014-09-28T15:05:11Z</time>
      </trkpt>
      <trkpt lat="49.02464" lon="1.12528">
        <ele>60.5</ele>
        <time>2014-09-28T15:05:13Z</time>
      </trkpt>
      <trkpt lat="49.02466" lon="1.12515">
        <ele>60.5</ele>
        <time>2014-09-28T15:05:15Z</time>
      </trkpt>
      <trkpt lat="49.02468" lon="1.125">
        <ele>60.5</ele>
        <time>2014-09-28T15:05:17Z</time>
      </trkpt>
      <trkpt lat="49.02471" lon="1.12489">
        <ele>59.5</ele>
        <time>2014-09-28T15:05:19Z</time>
      </trkpt>
      <trkpt lat="49.02477" lon="1.12481">
        <ele>58.5</ele>
        <time>2014-09-28T15:05:21Z</time>
      </trkpt>
      <trkpt lat="49.02486" lon="1.12471">
        <ele>56.5</ele>
        <time>2014-09-28T15:05:23Z</time>
      </trkpt>
      <trkpt lat="49.02492" lon="1.12463">
        <ele>57.5</ele>
        <time>2014-09-28T15:05:25Z</time>
      </trkpt>
      <trkpt lat="49.025" lon="1.12454">
        <ele>58.5</ele>
        <time>2014-09-28T15:05:27Z</time>
      </trkpt>
      <trkpt lat="49.02509" lon="1.12445">
        <ele>59.5</ele>
        <time>2014-09-28T15:05:29Z</time>
      </trkpt>
      <trkpt lat="49.02516" lon="1.12436">
        <ele>59.5</ele>
        <time>2014-09-28T15:05:31Z</time>
      </trkpt>
      <trkpt lat="49.02524" lon="1.12428">
        <ele>58.5</ele>
        <time>2014-09-28T15:05:33Z</time>
      </trkpt>
      <trkpt lat="49.02533" lon="1.1242">
        <ele>60.5</ele>
        <time>2014-09-28T15:05:35Z</time>
      </trkpt>
      <trkpt lat="49.0254" lon="1.12412">
        <ele>60.5</ele>
        <time>2014-09-28T15:05:37Z</time>
      </trkpt>
      <trkpt lat="49.02547" lon="1.12403">
        <ele>61.5</ele>
        <time>2014-09-28T15:05:39Z</time>
      </trkpt>
      <trkpt lat="49.02554" lon="1.12391">
        <ele>60.5</ele>
        <time>2014-09-28T15:05:41Z</time>
      </trkpt>
      <trkpt lat="49.0256" lon="1.12378">
        <ele>59.5</ele>
        <time>2014-09-28T15:05:43Z</time>
      </trkpt>
      <trkpt lat="49.02566" lon="1.12368">
        <ele>59.5</ele>
        <time>2014-09-28T15:05:45Z</time>
      </trkpt>
      <trkpt lat="49.0257" lon="1.12358">
        <ele>60.5</ele>
        <time>2014-09-28T15:05:47Z</time>
      </trkpt>
      <trkpt lat="49.02575" lon="1.12346">
        <ele>61.5</ele>
        <time>2014-09-28T15:05:49Z</time>
      </trkpt>
      <trkpt lat="49.02577" lon="1.12335">
        <ele>61.5</ele>
        <time>2014-09-28T15:05:51Z</time>
      </trkpt>
      <trkpt lat="49.02582" lon="1.12325">
        <ele>62.5</ele>
        <time>2014-09-28T15:05:53Z</time>
      </trkpt>
      <trkpt lat="49.02585" lon="1.12314">
        <ele>62.5</ele>
        <time>2014-09-28T15:05:55Z</time>
      </trkpt>
      <trkpt lat="49.02587" lon="1.12302">
        <ele>61.5</ele>
        <time>2014-09-28T15:05:57Z</time>
      </trkpt>
      <trkpt lat="49.0259" lon="1.12292">
        <ele>61.5</ele>
        <time>2014-09-28T15:05:58Z</time>
      </trkpt>
      <trkpt lat="49.02597" lon="1.12281">
        <ele>64.5</ele>
        <time>2014-09-28T15:06:00Z</time>
      </trkpt>
      <trkpt lat="49.02599" lon="1.12267">
        <ele>65.5</ele>
        <time>2014-09-28T15:06:03Z</time>
      </trkpt>
      <trkpt lat="49.02602" lon="1.12256">
        <ele>63.5</ele>
        <time>2014-09-28T15:06:05Z</time>
      </trkpt>
      <trkpt lat="49.02606" lon="1.12243">
        <ele>63.5</ele>
        <time>2014-09-28T15:06:07Z</time>
      </trkpt>
      <trkpt lat="49.02612" lon="1.12229">
        <ele>63.5</ele>
        <time>2014-09-28T15:06:10Z</time>
      </trkpt>
      <trkpt lat="49.02616" lon="1.12219">
        <ele>64.5</ele>
        <time>2014-09-28T15:06:12Z</time>
      </trkpt>
      <trkpt lat="49.02621" lon="1.12209">
        <ele>66.5</ele>
        <time>2014-09-28T15:06:14Z</time>
      </trkpt>
      <trkpt lat="49.02626" lon="1.12201">
        <ele>67.5</ele>
        <time>2014-09-28T15:06:16Z</time>
      </trkpt>
      <trkpt lat="49.0263" lon="1.12192">
        <ele>68.5</ele>
        <time>2014-09-28T15:06:18Z</time>
      </trkpt>
      <trkpt lat="49.02637" lon="1.12179">
        <ele>67.5</ele>
        <time>2014-09-28T15:06:21Z</time>
      </trkpt>
      <trkpt lat="49.02641" lon="1.12171">
        <ele>67.5</ele>
        <time>2014-09-28T15:06:23Z</time>
      </trkpt>
      <trkpt lat="49.02646" lon="1.12162">
        <ele>67.5</ele>
        <time>2014-09-28T15:06:25Z</time>
      </trkpt>
      <trkpt lat="49.02652" lon="1.12154">
        <ele>68.5</ele>
        <time>2014-09-28T15:06:27Z</time>
      </trkpt>
      <trkpt lat="49.02657" lon="1.12147">
        <ele>68.5</ele>
        <time>2014-09-28T15:06:29Z</time>
      </trkpt>
      <trkpt lat="49.02663" lon="1.12139">
        <ele>69.5</ele>
        <time>2014-09-28T15:06:31Z</time>
      </trkpt>
      <trkpt lat="49.02668" lon="1.12131">
        <ele>69.5</ele>
        <time>2014-09-28T15:06:33Z</time>
      </trkpt>
      <trkpt lat="49.02675" lon="1.12118">
        <ele>70.5</ele>
        <time>2014-09-28T15:06:36Z</time>
      </trkpt>
      <trkpt lat="49.02682" lon="1.12107">
        <ele>70.5</ele>
        <time>2014-09-28T15:06:39Z</time>
      </trkpt>
      <trkpt lat="49.02689" lon="1.12096">
        <ele>71.5</ele>
        <time>2014-09-28T15:06:42Z</time>
      </trkpt>
      <trkpt lat="49.02695" lon="1.12084">
        <ele>71.5</ele>
        <time>2014-09-28T15:06:45Z</time>
      </trkpt>
      <trkpt lat="49.02702" lon="1.12072">
        <ele>70.5</ele>
        <time>2014-09-28T15:06:48Z</time>
      </trkpt>
      <trkpt lat="49.02709" lon="1.1206">
        <ele>70.5</ele>
        <time>2014-09-28T15:06:51Z</time>
      </trkpt>
      <trkpt lat="49.02716" lon="1.12048">
        <ele>72.5</ele>
        <time>2014-09-28T15:06:54Z</time>
      </trkpt>
      <trkpt lat="49.02722" lon="1.12037">
        <ele>72.5</ele>
        <time>2014-09-28T15:06:57Z</time>
      </trkpt>
      <trkpt lat="49.02728" lon="1.12025">
        <ele>73.5</ele>
        <time>2014-09-28T15:07:00Z</time>
      </trkpt>
      <trkpt lat="49.02735" lon="1.12014">
        <ele>74.5</ele>
        <time>2014-09-28T15:07:03Z</time>
      </trkpt>
      <trkpt lat="49.02741" lon="1.12002">
        <ele>76.5</ele>
        <time>2014-09-28T15:07:06Z</time>
      </trkpt>
      <trkpt lat="49.02748" lon="1.1199">
        <ele>76.5</ele>
        <time>2014-09-28T15:07:09Z</time>
      </trkpt>
      <trkpt lat="49.02754" lon="1.11979">
        <ele>76.5</ele>
        <time>2014-09-28T15:07:12Z</time>
      </trkpt>
      <trkpt lat="49.0276" lon="1.11967">
        <ele>76.5</ele>
        <time>2014-09-28T15:07:15Z</time>
      </trkpt>
      <trkpt lat="49.02767" lon="1.11955">
        <ele>77.5</ele>
        <time>2014-09-28T15:07:18Z</time>
      </trkpt>
      <trkpt lat="49.02773" lon="1.11943">
        <ele>78.5</ele>
        <time>2014-09-28T15:07:21Z</time>
      </trkpt>
      <trkpt lat="49.02779" lon="1.11932">
        <ele>79.5</ele>
        <time>2014-09-28T15:07:24Z</time>
      </trkpt>
      <trkpt lat="49.02785" lon="1.11921">
        <ele>79.5</ele>
        <time>2014-09-28T15:07:28Z</time>
      </trkpt>
      <trkpt lat="49.02789" lon="1.1191">
        <ele>82.5</ele>
        <time>2014-09-28T15:07:32Z</time>
      </trkpt>
      <trkpt lat="49.02793" lon="1.11897">
        <ele>83.5</ele>
        <time>2014-09-28T15:07:36Z</time>
      </trkpt>
      <trkpt lat="49.02797" lon="1.11887">
        <ele>84.5</ele>
        <time>2014-09-28T15:07:39Z</time>
      </trkpt>
      <trkpt lat="49.02801" lon="1.11876">
        <ele>84.5</ele>
        <time>2014-09-28T15:07:42Z</time>
      </trkpt>
      <trkpt lat="49.02804" lon="1.11865">
        <ele>86.5</ele>
        <time>2014-09-28T15:07:45Z</time>
      </trkpt>
      <trkpt lat="49.02807" lon="1.11854">
        <ele>86.5</ele>
        <time>2014-09-28T15:07:48Z</time>
      </trkpt>
      <trkpt lat="49.02809" lon="1.11841">
        <ele>88.5</ele>
        <time>2014-09-28T15:07:51Z</time>
      </trkpt>
      <trkpt lat="49.02811" lon="1.11828">
        <ele>88.5</ele>
        <time>2014-09-28T15:07:54Z</time>
      </trkpt>
      <trkpt lat="49.02815" lon="1.11817">
        <ele>88.5</ele>
        <time>2014-09-28T15:07:57Z</time>
      </trkpt>
      <trkpt lat="49.0282" lon="1.11808">
        <ele>89.5</ele>
        <time>2014-09-28T15:08:00Z</time>
      </trkpt>
      <trkpt lat="49.02826" lon="1.11799">
        <ele>90.5</ele>
        <time>2014-09-28T15:08:03Z</time>
      </trkpt>
      <trkpt lat="49.02833" lon="1.1179">
        <ele>91.5</ele>
        <time>2014-09-28T15:08:06Z</time>
      </trkpt>
      <trkpt lat="49.0284" lon="1.11783">
        <ele>91.5</ele>
        <time>2014-09-28T15:08:09Z</time>
      </trkpt>
      <trkpt lat="49.02847" lon="1.11776">
        <ele>93.5</ele>
        <time>2014-09-28T15:08:12Z</time>
      </trkpt>
      <trkpt lat="49.02854" lon="1.11769">
        <ele>94.5</ele>
        <time>2014-09-28T15:08:15Z</time>
      </trkpt>
      <trkpt lat="49.02862" lon="1.11762">
        <ele>94.5</ele>
        <time>2014-09-28T15:08:18Z</time>
      </trkpt>
      <trkpt lat="49.02869" lon="1.11758">
        <ele>94.5</ele>
        <time>2014-09-28T15:08:20Z</time>
      </trkpt>
      <trkpt lat="49.02877" lon="1.11754">
        <ele>94.5</ele>
        <time>2014-09-28T15:08:22Z</time>
      </trkpt>
      <trkpt lat="49.02884" lon="1.11751">
        <ele>94.5</ele>
        <time>2014-09-28T15:08:24Z</time>
      </trkpt>
      <trkpt lat="49.02891" lon="1.11748">
        <ele>95.5</ele>
        <time>2014-09-28T15:08:26Z</time>
      </trkpt>
      <trkpt lat="49.029" lon="1.11741">
        <ele>96.5</ele>
        <time>2014-09-28T15:08:29Z</time>
      </trkpt>
      <trkpt lat="49.02907" lon="1.11735">
        <ele>96.5</ele>
        <time>2014-09-28T15:08:31Z</time>
      </trkpt>
      <trkpt lat="49.02912" lon="1.11727">
        <ele>96.5</ele>
        <time>2014-09-28T15:08:33Z</time>
      </trkpt>
      <trkpt lat="49.02918" lon="1.11719">
        <ele>97.5</ele>
        <time>2014-09-28T15:08:35Z</time>
      </trkpt>
      <trkpt lat="49.02925" lon="1.11708">
        <ele>97.5</ele>
        <time>2014-09-28T15:08:38Z</time>
      </trkpt>
      <trkpt lat="49.02931" lon="1.11698">
        <ele>98.5</ele>
        <time>2014-09-28T15:08:41Z</time>
      </trkpt>
      <trkpt lat="49.02937" lon="1.1169">
        <ele>98.5</ele>
        <time>2014-09-28T15:08:44Z</time>
      </trkpt>
      <trkpt lat="49.02945" lon="1.11684">
        <ele>99.5</ele>
        <time>2014-09-28T15:08:48Z</time>
      </trkpt>
      <trkpt lat="49.02952" lon="1.11692">
        <ele>97.5</ele>
        <time>2014-09-28T15:08:52Z</time>
      </trkpt>
      <trkpt lat="49.02952" lon="1.11681">
        <ele>99.5</ele>
        <time>2014-09-28T15:09:49Z</time>
      </trkpt>
      <trkpt lat="49.02952" lon="1.1167">
        <ele>100.5</ele>
        <time>2014-09-28T15:09:55Z</time>
      </trkpt>
      <trkpt lat="49.02957" lon="1.1166">
        <ele>100.5</ele>
        <time>2014-09-28T15:09:58Z</time>
      </trkpt>
      <trkpt lat="49.02965" lon="1.11653">
        <ele>101.5</ele>
        <time>2014-09-28T15:10:01Z</time>
      </trkpt>
      <trkpt lat="49.02973" lon="1.11642">
        <ele>102.5</ele>
        <time>2014-09-28T15:10:04Z</time>
      </trkpt>
      <trkpt lat="49.02978" lon="1.11634">
        <ele>102.5</ele>
        <time>2014-09-28T15:10:06Z</time>
      </trkpt>
      <trkpt lat="49.02983" lon="1.11627">
        <ele>101.5</ele>
        <time>2014-09-28T15:10:08Z</time>
      </trkpt>
      <trkpt lat="49.0299" lon="1.11615">
        <ele>103.5</ele>
        <time>2014-09-28T15:10:11Z</time>
      </trkpt>
      <trkpt lat="49.02995" lon="1.11603">
        <ele>103.5</ele>
        <time>2014-09-28T15:10:14Z</time>
      </trkpt>
      <trkpt lat="49.02998" lon="1.1159">
        <ele>103.5</ele>
        <time>2014-09-28T15:10:17Z</time>
      </trkpt>
      <trkpt lat="49.03002" lon="1.11578">
        <ele>105.5</ele>
        <time>2014-09-28T15:10:20Z</time>
      </trkpt>
      <trkpt lat="49.03005" lon="1.11566">
        <ele>106.5</ele>
        <time>2014-09-28T15:10:23Z</time>
      </trkpt>
      <trkpt lat="49.03009" lon="1.11554">
        <ele>107.5</ele>
        <time>2014-09-28T15:10:26Z</time>
      </trkpt>
      <trkpt lat="49.03013" lon="1.11543">
        <ele>109.5</ele>
        <time>2014-09-28T15:10:29Z</time>
      </trkpt>
      <trkpt lat="49.03018" lon="1.11531">
        <ele>111.5</ele>
        <time>2014-09-28T15:10:32Z</time>
      </trkpt>
      <trkpt lat="49.03022" lon="1.11519">
        <ele>112.5</ele>
        <time>2014-09-28T15:10:35Z</time>
      </trkpt>
      <trkpt lat="49.03026" lon="1.1151">
        <ele>113.5</ele>
        <time>2014-09-28T15:10:38Z</time>
      </trkpt>
      <trkpt lat="49.03031" lon="1.115">
        <ele>116.5</ele>
        <time>2014-09-28T15:10:41Z</time>
      </trkpt>
      <trkpt lat="49.03034" lon="1.1149">
        <ele>117.5</ele>
        <time>2014-09-28T15:10:43Z</time>
      </trkpt>
      <trkpt lat="49.03037" lon="1.11478">
        <ele>117.5</ele>
        <time>2014-09-28T15:10:45Z</time>
      </trkpt>
      <trkpt lat="49.0304" lon="1.11467">
        <ele>118.5</ele>
        <time>2014-09-28T15:10:47Z</time>
      </trkpt>
      <trkpt lat="49.03044" lon="1.11455">
        <ele>118.5</ele>
        <time>2014-09-28T15:10:49Z</time>
      </trkpt>
      <trkpt lat="49.03047" lon="1.11443">
        <ele>119.5</ele>
        <time>2014-09-28T15:10:51Z</time>
      </trkpt>
      <trkpt lat="49.0305" lon="1.11432">
        <ele>120.5</ele>
        <time>2014-09-28T15:10:53Z</time>
      </trkpt>
      <trkpt lat="49.03053" lon="1.1142">
        <ele>120.5</ele>
        <time>2014-09-28T15:10:55Z</time>
      </trkpt>
      <trkpt lat="49.03057" lon="1.11409">
        <ele>119.5</ele>
        <time>2014-09-28T15:10:57Z</time>
      </trkpt>
      <trkpt lat="49.0306" lon="1.11398">
        <ele>120.5</ele>
        <time>2014-09-28T15:10:59Z</time>
      </trkpt>
      <trkpt lat="49.03063" lon="1.11386">
        <ele>120.5</ele>
        <time>2014-09-28T15:11:01Z</time>
      </trkpt>
      <trkpt lat="49.03066" lon="1.11375">
        <ele>120.5</ele>
        <time>2014-09-28T15:11:03Z</time>
      </trkpt>
      <trkpt lat="49.03068" lon="1.11363">
        <ele>119.5</ele>
        <time>2014-09-28T15:11:05Z</time>
      </trkpt>
      <trkpt lat="49.0307" lon="1.11351">
        <ele>118.5</ele>
        <time>2014-09-28T15:11:07Z</time>
      </trkpt>
      <trkpt lat="49.03073" lon="1.11341">
        <ele>118.5</ele>
        <time>2014-09-28T15:11:09Z</time>
      </trkpt>
      <trkpt lat="49.03076" lon="1.11331">
        <ele>118.5</ele>
        <time>2014-09-28T15:11:11Z</time>
      </trkpt>
      <trkpt lat="49.03082" lon="1.11318">
        <ele>118.5</ele>
        <time>2014-09-28T15:11:14Z</time>
      </trkpt>
      <trkpt lat="49.0309" lon="1.11307">
        <ele>118.5</ele>
        <time>2014-09-28T15:11:17Z</time>
      </trkpt>
      <trkpt lat="49.03098" lon="1.11296">
        <ele>119.5</ele>
        <time>2014-09-28T15:11:20Z</time>
      </trkpt>
      <trkpt lat="49.03103" lon="1.11288">
        <ele>119.5</ele>
        <time>2014-09-28T15:11:22Z</time>
      </trkpt>
      <trkpt lat="49.03111" lon="1.11278">
        <ele>119.5</ele>
        <time>2014-09-28T15:11:25Z</time>
      </trkpt>
      <trkpt lat="49.03119" lon="1.11268">
        <ele>119.5</ele>
        <time>2014-09-28T15:11:28Z</time>
      </trkpt>
      <trkpt lat="49.03127" lon="1.11259">
        <ele>120.5</ele>
        <time>2014-09-28T15:11:31Z</time>
      </trkpt>
      <trkpt lat="49.03135" lon="1.11251">
        <ele>120.5</ele>
        <time>2014-09-28T15:11:34Z</time>
      </trkpt>
      <trkpt lat="49.03142" lon="1.11243">
        <ele>120.5</ele>
        <time>2014-09-28T15:11:37Z</time>
      </trkpt>
      <trkpt lat="49.0315" lon="1.11235">
        <ele>120.5</ele>
        <time>2014-09-28T15:11:40Z</time>
      </trkpt>
      <trkpt lat="49.03158" lon="1.11227">
        <ele>121.5</ele>
        <time>2014-09-28T15:11:43Z</time>
      </trkpt>
      <trkpt lat="49.03165" lon="1.11219">
        <ele>121.5</ele>
        <time>2014-09-28T15:11:46Z</time>
      </trkpt>
      <trkpt lat="49.03172" lon="1.1121">
        <ele>121.5</ele>
        <time>2014-09-28T15:11:49Z</time>
      </trkpt>
      <trkpt lat="49.03179" lon="1.112">
        <ele>122.5</ele>
        <time>2014-09-28T15:11:52Z</time>
      </trkpt>
      <trkpt lat="49.03187" lon="1.1119">
        <ele>122.5</ele>
        <time>2014-09-28T15:11:55Z</time>
      </trkpt>
      <trkpt lat="49.03193" lon="1.1118">
        <ele>122.5</ele>
        <time>2014-09-28T15:11:58Z</time>
      </trkpt>
      <trkpt lat="49.03201" lon="1.11171">
        <ele>122.5</ele>
        <time>2014-09-28T15:12:01Z</time>
      </trkpt>
      <trkpt lat="49.03207" lon="1.11163">
        <ele>122.5</ele>
        <time>2014-09-28T15:12:03Z</time>
      </trkpt>
      <trkpt lat="49.03213" lon="1.11156">
        <ele>122.5</ele>
        <time>2014-09-28T15:12:05Z</time>
      </trkpt>
      <trkpt lat="49.03219" lon="1.11148">
        <ele>122.5</ele>
        <time>2014-09-28T15:12:07Z</time>
      </trkpt>
      <trkpt lat="49.03225" lon="1.11141">
        <ele>123.5</ele>
        <time>2014-09-28T15:12:09Z</time>
      </trkpt>
      <trkpt lat="49.03231" lon="1.11134">
        <ele>123.5</ele>
        <time>2014-09-28T15:12:11Z</time>
      </trkpt>
      <trkpt lat="49.03237" lon="1.11127">
        <ele>123.5</ele>
        <time>2014-09-28T15:12:13Z</time>
      </trkpt>
      <trkpt lat="49.03244" lon="1.1112">
        <ele>123.5</ele>
        <time>2014-09-28T15:12:15Z</time>
      </trkpt>
      <trkpt lat="49.0325" lon="1.11114">
        <ele>123.5</ele>
        <time>2014-09-28T15:12:17Z</time>
      </trkpt>
      <trkpt lat="49.03256" lon="1.11107">
        <ele>124.5</ele>
        <time>2014-09-28T15:12:19Z</time>
      </trkpt>
      <trkpt lat="49.03263" lon="1.11102">
        <ele>123.5</ele>
        <time>2014-09-28T15:12:21Z</time>
      </trkpt>
      <trkpt lat="49.03271" lon="1.111">
        <ele>124.5</ele>
        <time>2014-09-28T15:12:23Z</time>
      </trkpt>
      <trkpt lat="49.03279" lon="1.11096">
        <ele>124.5</ele>
        <time>2014-09-28T15:12:25Z</time>
      </trkpt>
      <trkpt lat="49.03287" lon="1.11092">
        <ele>125.5</ele>
        <time>2014-09-28T15:12:27Z</time>
      </trkpt>
      <trkpt lat="49.03294" lon="1.11085">
        <ele>125.5</ele>
        <time>2014-09-28T15:12:29Z</time>
      </trkpt>
      <trkpt lat="49.033" lon="1.11077">
        <ele>125.5</ele>
        <time>2014-09-28T15:12:31Z</time>
      </trkpt>
      <trkpt lat="49.03309" lon="1.11067">
        <ele>126.5</ele>
        <time>2014-09-28T15:12:33Z</time>
      </trkpt>
      <trkpt lat="49.03315" lon="1.11058">
        <ele>125.5</ele>
        <time>2014-09-28T15:12:35Z</time>
      </trkpt>
      <trkpt lat="49.03324" lon="1.11045">
        <ele>126.5</ele>
        <time>2014-09-28T15:12:38Z</time>
      </trkpt>
      <trkpt lat="49.03329" lon="1.11036">
        <ele>125.5</ele>
        <time>2014-09-28T15:12:40Z</time>
      </trkpt>
      <trkpt lat="49.03335" lon="1.11028">
        <ele>126.5</ele>
        <time>2014-09-28T15:12:42Z</time>
      </trkpt>
      <trkpt lat="49.03341" lon="1.11021">
        <ele>126.5</ele>
        <time>2014-09-28T15:12:44Z</time>
      </trkpt>
      <trkpt lat="49.03348" lon="1.11012">
        <ele>125.5</ele>
        <time>2014-09-28T15:12:46Z</time>
      </trkpt>
      <trkpt lat="49.03356" lon="1.11002">
        <ele>125.5</ele>
        <time>2014-09-28T15:12:48Z</time>
      </trkpt>
      <trkpt lat="49.03362" lon="1.10993">
        <ele>126.5</ele>
        <time>2014-09-28T15:12:50Z</time>
      </trkpt>
      <trkpt lat="49.03369" lon="1.10983">
        <ele>127.5</ele>
        <time>2014-09-28T15:12:52Z</time>
      </trkpt>
      <trkpt lat="49.03376" lon="1.10972">
        <ele>127.5</ele>
        <time>2014-09-28T15:12:54Z</time>
      </trkpt>
      <trkpt lat="49.0338" lon="1.1096">
        <ele>127.5</ele>
        <time>2014-09-28T15:12:56Z</time>
      </trkpt>
      <trkpt lat="49.0338" lon="1.10948">
        <ele>127.5</ele>
        <time>2014-09-28T15:12:58Z</time>
      </trkpt>
      <trkpt lat="49.03378" lon="1.10937">
        <ele>128.5</ele>
        <time>2014-09-28T15:13:00Z</time>
      </trkpt>
      <trkpt lat="49.03374" lon="1.10926">
        <ele>128.5</ele>
        <time>2014-09-28T15:13:02Z</time>
      </trkpt>
      <trkpt lat="49.0337" lon="1.10915">
        <ele>128.5</ele>
        <time>2014-09-28T15:13:04Z</time>
      </trkpt>
      <trkpt lat="49.03365" lon="1.10904">
        <ele>129.5</ele>
        <time>2014-09-28T15:13:06Z</time>
      </trkpt>
      <trkpt lat="49.03361" lon="1.10893">
        <ele>130.5</ele>
        <time>2014-09-28T15:13:08Z</time>
      </trkpt>
      <trkpt lat="49.03357" lon="1.10882">
        <ele>130.5</ele>
        <time>2014-09-28T15:13:10Z</time>
      </trkpt>
      <trkpt lat="49.03353" lon="1.10871">
        <ele>130.5</ele>
        <time>2014-09-28T15:13:12Z</time>
      </trkpt>
      <trkpt lat="49.03348" lon="1.10859">
        <ele>131.5</ele>
        <time>2014-09-28T15:13:14Z</time>
      </trkpt>
      <trkpt lat="49.03344" lon="1.10848">
        <ele>130.5</ele>
        <time>2014-09-28T15:13:16Z</time>
      </trkpt>
      <trkpt lat="49.03339" lon="1.10837">
        <ele>130.5</ele>
        <time>2014-09-28T15:13:18Z</time>
      </trkpt>
      <trkpt lat="49.03334" lon="1.10826">
        <ele>130.5</ele>
        <time>2014-09-28T15:13:20Z</time>
      </trkpt>
      <trkpt lat="49.03329" lon="1.10814">
        <ele>130.5</ele>
        <time>2014-09-28T15:13:22Z</time>
      </trkpt>
      <trkpt lat="49.03324" lon="1.10803">
        <ele>130.5</ele>
        <time>2014-09-28T15:13:24Z</time>
      </trkpt>
      <trkpt lat="49.03319" lon="1.10792">
        <ele>130.5</ele>
        <time>2014-09-28T15:13:26Z</time>
      </trkpt>
      <trkpt lat="49.03315" lon="1.10781">
        <ele>130.5</ele>
        <time>2014-09-28T15:13:28Z</time>
      </trkpt>
      <trkpt lat="49.0331" lon="1.1077">
        <ele>130.5</ele>
        <time>2014-09-28T15:13:30Z</time>
      </trkpt>
      <trkpt lat="49.03306" lon="1.10759">
        <ele>131.5</ele>
        <time>2014-09-28T15:13:32Z</time>
      </trkpt>
      <trkpt lat="49.03304" lon="1.10747">
        <ele>130.5</ele>
        <time>2014-09-28T15:13:34Z</time>
      </trkpt>
      <trkpt lat="49.03303" lon="1.10735">
        <ele>130.5</ele>
        <time>2014-09-28T15:13:36Z</time>
      </trkpt>
      <trkpt lat="49.03307" lon="1.1072">
        <ele>129.5</ele>
        <time>2014-09-28T15:13:38Z</time>
      </trkpt>
      <trkpt lat="49.03311" lon="1.10707">
        <ele>129.5</ele>
        <time>2014-09-28T15:13:40Z</time>
      </trkpt>
      <trkpt lat="49.03317" lon="1.10694">
        <ele>129.5</ele>
        <time>2014-09-28T15:13:42Z</time>
      </trkpt>
      <trkpt lat="49.03326" lon="1.10683">
        <ele>129.5</ele>
        <time>2014-09-28T15:13:44Z</time>
      </trkpt>
      <trkpt lat="49.03333" lon="1.1067">
        <ele>128.5</ele>
        <time>2014-09-28T15:13:46Z</time>
      </trkpt>
      <trkpt lat="49.03337" lon="1.10655">
        <ele>128.5</ele>
        <time>2014-09-28T15:13:48Z</time>
      </trkpt>
      <trkpt lat="49.03339" lon="1.10644">
        <ele>128.5</ele>
        <time>2014-09-28T15:13:50Z</time>
      </trkpt>
      <trkpt lat="49.03342" lon="1.10632">
        <ele>127.5</ele>
        <time>2014-09-28T15:13:52Z</time>
      </trkpt>
      <trkpt lat="49.03346" lon="1.10618">
        <ele>128.5</ele>
        <time>2014-09-28T15:13:54Z</time>
      </trkpt>
      <trkpt lat="49.03353" lon="1.10602">
        <ele>126.5</ele>
        <time>2014-09-28T15:13:56Z</time>
      </trkpt>
      <trkpt lat="49.03359" lon="1.10586">
        <ele>126.5</ele>
        <time>2014-09-28T15:13:58Z</time>
      </trkpt>
      <trkpt lat="49.03364" lon="1.10571">
        <ele>126.5</ele>
        <time>2014-09-28T15:14:00Z</time>
      </trkpt>
      <trkpt lat="49.03369" lon="1.10556">
        <ele>125.5</ele>
        <time>2014-09-28T15:14:02Z</time>
      </trkpt>
      <trkpt lat="49.03376" lon="1.10539">
        <ele>124.5</ele>
        <time>2014-09-28T15:14:05Z</time>
      </trkpt>
      <trkpt lat="49.03384" lon="1.10517">
        <ele>123.5</ele>
        <time>2014-09-28T15:14:06Z</time>
      </trkpt>
      <trkpt lat="49.03386" lon="1.105">
        <ele>125.5</ele>
        <time>2014-09-28T15:14:08Z</time>
      </trkpt>
      <trkpt lat="49.03395" lon="1.1049">
        <ele>122.5</ele>
        <time>2014-09-28T15:14:10Z</time>
      </trkpt>
      <trkpt lat="49.03399" lon="1.10472">
        <ele>123.5</ele>
        <time>2014-09-28T15:14:12Z</time>
      </trkpt>
      <trkpt lat="49.03401" lon="1.10453">
        <ele>125.5</ele>
        <time>2014-09-28T15:14:14Z</time>
      </trkpt>
      <trkpt lat="49.03401" lon="1.10433">
        <ele>125.5</ele>
        <time>2014-09-28T15:14:16Z</time>
      </trkpt>
      <trkpt lat="49.03398" lon="1.10415">
        <ele>126.5</ele>
        <time>2014-09-28T15:14:18Z</time>
      </trkpt>
      <trkpt lat="49.03393" lon="1.10398">
        <ele>127.5</ele>
        <time>2014-09-28T15:14:20Z</time>
      </trkpt>
      <trkpt lat="49.03387" lon="1.10382">
        <ele>128.5</ele>
        <time>2014-09-28T15:14:22Z</time>
      </trkpt>
      <trkpt lat="49.0338" lon="1.10366">
        <ele>129.5</ele>
        <time>2014-09-28T15:14:24Z</time>
      </trkpt>
      <trkpt lat="49.03372" lon="1.10352">
        <ele>129.5</ele>
        <time>2014-09-28T15:14:26Z</time>
      </trkpt>
      <trkpt lat="49.03364" lon="1.10341">
        <ele>129.5</ele>
        <time>2014-09-28T15:14:28Z</time>
      </trkpt>
      <trkpt lat="49.03355" lon="1.10331">
        <ele>129.5</ele>
        <time>2014-09-28T15:14:30Z</time>
      </trkpt>
      <trkpt lat="49.03347" lon="1.10321">
        <ele>129.5</ele>
        <time>2014-09-28T15:14:32Z</time>
      </trkpt>
      <trkpt lat="49.03338" lon="1.1031">
        <ele>128.5</ele>
        <time>2014-09-28T15:14:34Z</time>
      </trkpt>
      <trkpt lat="49.03333" lon="1.10296">
        <ele>128.5</ele>
        <time>2014-09-28T15:14:36Z</time>
      </trkpt>
      <trkpt lat="49.03326" lon="1.10283">
        <ele>128.5</ele>
        <time>2014-09-28T15:14:38Z</time>
      </trkpt>
      <trkpt lat="49.03322" lon="1.10268">
        <ele>127.5</ele>
        <time>2014-09-28T15:14:39Z</time>
      </trkpt>
      <trkpt lat="49.03319" lon="1.10253">
        <ele>127.5</ele>
        <time>2014-09-28T15:14:41Z</time>
      </trkpt>
      <trkpt lat="49.03318" lon="1.10239">
        <ele>127.5</ele>
        <time>2014-09-28T15:14:43Z</time>
      </trkpt>
      <trkpt lat="49.03317" lon="1.10224">
        <ele>127.5</ele>
        <time>2014-09-28T15:14:46Z</time>
      </trkpt>
      <trkpt lat="49.03317" lon="1.10207">
        <ele>128.5</ele>
        <time>2014-09-28T15:14:48Z</time>
      </trkpt>
      <trkpt lat="49.03317" lon="1.1019">
        <ele>129.5</ele>
        <time>2014-09-28T15:14:49Z</time>
      </trkpt>
      <trkpt lat="49.03316" lon="1.10174">
        <ele>130.5</ele>
        <time>2014-09-28T15:14:52Z</time>
      </trkpt>
      <trkpt lat="49.03316" lon="1.10157">
        <ele>130.5</ele>
        <time>2014-09-28T15:14:54Z</time>
      </trkpt>
      <trkpt lat="49.03315" lon="1.10141">
        <ele>129.5</ele>
        <time>2014-09-28T15:14:56Z</time>
      </trkpt>
      <trkpt lat="49.03314" lon="1.10125">
        <ele>129.5</ele>
        <time>2014-09-28T15:14:58Z</time>
      </trkpt>
      <trkpt lat="49.03314" lon="1.10108">
        <ele>130.5</ele>
        <time>2014-09-28T15:15:00Z</time>
      </trkpt>
      <trkpt lat="49.03312" lon="1.10091">
        <ele>130.5</ele>
        <time>2014-09-28T15:15:02Z</time>
      </trkpt>
      <trkpt lat="49.0331" lon="1.10073">
        <ele>131.5</ele>
        <time>2014-09-28T15:15:04Z</time>
      </trkpt>
      <trkpt lat="49.03306" lon="1.10057">
        <ele>130.5</ele>
        <time>2014-09-28T15:15:06Z</time>
      </trkpt>
      <trkpt lat="49.03303" lon="1.10038">
        <ele>131.5</ele>
        <time>2014-09-28T15:15:08Z</time>
      </trkpt>
      <trkpt lat="49.03301" lon="1.10019">
        <ele>131.5</ele>
        <time>2014-09-28T15:15:10Z</time>
      </trkpt>
      <trkpt lat="49.03299" lon="1.10001">
        <ele>129.5</ele>
        <time>2014-09-28T15:15:12Z</time>
      </trkpt>
      <trkpt lat="49.03297" lon="1.09983">
        <ele>129.5</ele>
        <time>2014-09-28T15:15:14Z</time>
      </trkpt>
      <trkpt lat="49.03295" lon="1.09966">
        <ele>129.5</ele>
        <time>2014-09-28T15:15:16Z</time>
      </trkpt>
      <trkpt lat="49.03296" lon="1.09946">
        <ele>129.5</ele>
        <time>2014-09-28T15:15:17Z</time>
      </trkpt>
      <trkpt lat="49.03294" lon="1.09936">
        <ele>128.5</ele>
        <time>2014-09-28T15:15:19Z</time>
      </trkpt>
      <trkpt lat="49.03294" lon="1.0992">
        <ele>129.5</ele>
        <time>2014-09-28T15:15:21Z</time>
      </trkpt>
      <trkpt lat="49.03291" lon="1.09903">
        <ele>129.5</ele>
        <time>2014-09-28T15:15:23Z</time>
      </trkpt>
      <trkpt lat="49.03293" lon="1.09887">
        <ele>130.5</ele>
        <time>2014-09-28T15:15:25Z</time>
      </trkpt>
      <trkpt lat="49.03292" lon="1.09872">
        <ele>128.5</ele>
        <time>2014-09-28T15:15:27Z</time>
      </trkpt>
      <trkpt lat="49.03292" lon="1.09857">
        <ele>128.5</ele>
        <time>2014-09-28T15:15:29Z</time>
      </trkpt>
      <trkpt lat="49.03292" lon="1.09843">
        <ele>130.5</ele>
        <time>2014-09-28T15:15:31Z</time>
      </trkpt>
      <trkpt lat="49.03294" lon="1.09831">
        <ele>127.5</ele>
        <time>2014-09-28T15:16:58Z</time>
      </trkpt>
      <trkpt lat="49.03295" lon="1.09818">
        <ele>129.5</ele>
        <time>2014-09-28T15:17:05Z</time>
      </trkpt>
      <trkpt lat="49.03298" lon="1.09806">
        <ele>129.5</ele>
        <time>2014-09-28T15:17:08Z</time>
      </trkpt>
      <trkpt lat="49.03299" lon="1.09795">
        <ele>127.5</ele>
        <time>2014-09-28T15:17:10Z</time>
      </trkpt>
      <trkpt lat="49.03299" lon="1.09781">
        <ele>126.5</ele>
        <time>2014-09-28T15:17:12Z</time>
      </trkpt>
      <trkpt lat="49.03296" lon="1.09767">
        <ele>125.5</ele>
        <time>2014-09-28T15:17:14Z</time>
      </trkpt>
      <trkpt lat="49.03293" lon="1.09747">
        <ele>125.5</ele>
        <time>2014-09-28T15:17:16Z</time>
      </trkpt>
      <trkpt lat="49.03293" lon="1.09731">
        <ele>125.5</ele>
        <time>2014-09-28T15:17:18Z</time>
      </trkpt>
      <trkpt lat="49.03293" lon="1.09718">
        <ele>126.5</ele>
        <time>2014-09-28T15:17:20Z</time>
      </trkpt>
      <trkpt lat="49.03294" lon="1.09702">
        <ele>126.5</ele>
        <time>2014-09-28T15:17:22Z</time>
      </trkpt>
      <trkpt lat="49.03296" lon="1.09685">
        <ele>126.5</ele>
        <time>2014-09-28T15:17:24Z</time>
      </trkpt>
      <trkpt lat="49.03297" lon="1.0967">
        <ele>126.5</ele>
        <time>2014-09-28T15:17:26Z</time>
      </trkpt>
      <trkpt lat="49.03299" lon="1.09655">
        <ele>127.5</ele>
        <time>2014-09-28T15:17:28Z</time>
      </trkpt>
      <trkpt lat="49.03301" lon="1.0964">
        <ele>127.5</ele>
        <time>2014-09-28T15:17:30Z</time>
      </trkpt>
      <trkpt lat="49.03303" lon="1.09626">
        <ele>126.5</ele>
        <time>2014-09-28T15:17:32Z</time>
      </trkpt>
      <trkpt lat="49.03305" lon="1.09611">
        <ele>127.5</ele>
        <time>2014-09-28T15:17:34Z</time>
      </trkpt>
      <trkpt lat="49.03307" lon="1.09595">
        <ele>126.5</ele>
        <time>2014-09-28T15:17:36Z</time>
      </trkpt>
      <trkpt lat="49.0331" lon="1.0958">
        <ele>126.5</ele>
        <time>2014-09-28T15:17:38Z</time>
      </trkpt>
      <trkpt lat="49.03311" lon="1.09564">
        <ele>128.5</ele>
        <time>2014-09-28T15:17:40Z</time>
      </trkpt>
      <trkpt lat="49.03315" lon="1.09548">
        <ele>128.5</ele>
        <time>2014-09-28T15:17:42Z</time>
      </trkpt>
      <trkpt lat="49.03316" lon="1.09534">
        <ele>127.5</ele>
        <time>2014-09-28T15:17:44Z</time>
      </trkpt>
      <trkpt lat="49.0332" lon="1.09518">
        <ele>128.5</ele>
        <time>2014-09-28T15:17:46Z</time>
      </trkpt>
      <trkpt lat="49.03325" lon="1.09503">
        <ele>128.5</ele>
        <time>2014-09-28T15:17:48Z</time>
      </trkpt>
      <trkpt lat="49.03328" lon="1.09489">
        <ele>129.5</ele>
        <time>2014-09-28T15:17:50Z</time>
      </trkpt>
      <trkpt lat="49.03331" lon="1.09475">
        <ele>128.5</ele>
        <time>2014-09-28T15:17:52Z</time>
      </trkpt>
      <trkpt lat="49.03335" lon="1.09462">
        <ele>128.5</ele>
        <time>2014-09-28T15:17:54Z</time>
      </trkpt>
      <trkpt lat="49.03337" lon="1.09446">
        <ele>127.5</ele>
        <time>2014-09-28T15:17:56Z</time>
      </trkpt>
      <trkpt lat="49.03341" lon="1.09432">
        <ele>128.5</ele>
        <time>2014-09-28T15:17:58Z</time>
      </trkpt>
      <trkpt lat="49.03343" lon="1.09418">
        <ele>128.5</ele>
        <time>2014-09-28T15:18:00Z</time>
      </trkpt>
      <trkpt lat="49.03345" lon="1.09406">
        <ele>128.5</ele>
        <time>2014-09-28T15:18:02Z</time>
      </trkpt>
      <trkpt lat="49.03349" lon="1.09391">
        <ele>129.5</ele>
        <time>2014-09-28T15:18:04Z</time>
      </trkpt>
      <trkpt lat="49.03352" lon="1.09376">
        <ele>128.5</ele>
        <time>2014-09-28T15:18:06Z</time>
      </trkpt>
      <trkpt lat="49.03354" lon="1.09362">
        <ele>127.5</ele>
        <time>2014-09-28T15:18:08Z</time>
      </trkpt>
      <trkpt lat="49.03357" lon="1.09349">
        <ele>127.5</ele>
        <time>2014-09-28T15:18:10Z</time>
      </trkpt>
      <trkpt lat="49.03359" lon="1.09335">
        <ele>127.5</ele>
        <time>2014-09-28T15:18:12Z</time>
      </trkpt>
      <trkpt lat="49.03356" lon="1.09322">
        <ele>127.5</ele>
        <time>2014-09-28T15:18:15Z</time>
      </trkpt>
      <trkpt lat="49.03348" lon="1.09321">
        <ele>127.5</ele>
        <time>2014-09-28T15:18:17Z</time>
      </trkpt>
      <trkpt lat="49.03339" lon="1.09318">
        <ele>126.5</ele>
        <time>2014-09-28T15:18:19Z</time>
      </trkpt>
      <trkpt lat="49.0333" lon="1.09318">
        <ele>126.5</ele>
        <time>2014-09-28T15:18:21Z</time>
      </trkpt>
      <trkpt lat="49.03318" lon="1.09318">
        <ele>126.5</ele>
        <time>2014-09-28T15:18:23Z</time>
      </trkpt>
      <trkpt lat="49.03307" lon="1.09317">
        <ele>126.5</ele>
        <time>2014-09-28T15:18:25Z</time>
      </trkpt>
      <trkpt lat="49.03294" lon="1.09318">
        <ele>125.5</ele>
        <time>2014-09-28T15:18:27Z</time>
      </trkpt>
      <trkpt lat="49.03281" lon="1.09318">
        <ele>124.5</ele>
        <time>2014-09-28T15:18:29Z</time>
      </trkpt>
      <trkpt lat="49.03269" lon="1.09317">
        <ele>124.5</ele>
        <time>2014-09-28T15:18:31Z</time>
      </trkpt>
      <trkpt lat="49.03255" lon="1.09318">
        <ele>125.5</ele>
        <time>2014-09-28T15:18:33Z</time>
      </trkpt>
      <trkpt lat="49.03242" lon="1.09319">
        <ele>124.5</ele>
        <time>2014-09-28T15:18:35Z</time>
      </trkpt>
      <trkpt lat="49.03228" lon="1.09317">
        <ele>125.5</ele>
        <time>2014-09-28T15:18:37Z</time>
      </trkpt>
      <trkpt lat="49.03214" lon="1.09318">
        <ele>125.5</ele>
        <time>2014-09-28T15:18:39Z</time>
      </trkpt>
      <trkpt lat="49.03201" lon="1.09317">
        <ele>126.5</ele>
        <time>2014-09-28T15:18:41Z</time>
      </trkpt>
      <trkpt lat="49.03189" lon="1.09316">
        <ele>126.5</ele>
        <time>2014-09-28T15:18:43Z</time>
      </trkpt>
      <trkpt lat="49.03179" lon="1.09316">
        <ele>126.5</ele>
        <time>2014-09-28T15:18:45Z</time>
      </trkpt>
      <trkpt lat="49.0317" lon="1.09317">
        <ele>125.5</ele>
        <time>2014-09-28T15:18:48Z</time>
      </trkpt>
      <trkpt lat="49.03162" lon="1.09319">
        <ele>124.5</ele>
        <time>2014-09-28T15:18:50Z</time>
      </trkpt>
      <trkpt lat="49.03154" lon="1.09318">
        <ele>125.5</ele>
        <time>2014-09-28T15:18:52Z</time>
      </trkpt>
      <trkpt lat="49.03144" lon="1.09318">
        <ele>125.5</ele>
        <time>2014-09-28T15:18:54Z</time>
      </trkpt>
      <trkpt lat="49.03133" lon="1.09317">
        <ele>125.5</ele>
        <time>2014-09-28T15:18:56Z</time>
      </trkpt>
      <trkpt lat="49.03123" lon="1.09317">
        <ele>125.5</ele>
        <time>2014-09-28T15:18:58Z</time>
      </trkpt>
      <trkpt lat="49.03111" lon="1.09317">
        <ele>124.5</ele>
        <time>2014-09-28T15:19:00Z</time>
      </trkpt>
      <trkpt lat="49.03101" lon="1.09316">
        <ele>125.5</ele>
        <time>2014-09-28T15:19:02Z</time>
      </trkpt>
      <trkpt lat="49.0309" lon="1.09316">
        <ele>125.5</ele>
        <time>2014-09-28T15:19:04Z</time>
      </trkpt>
      <trkpt lat="49.03079" lon="1.09316">
        <ele>125.5</ele>
        <time>2014-09-28T15:19:06Z</time>
      </trkpt>
      <trkpt lat="49.03067" lon="1.09316">
        <ele>125.5</ele>
        <time>2014-09-28T15:19:08Z</time>
      </trkpt>
      <trkpt lat="49.03055" lon="1.09316">
        <ele>126.5</ele>
        <time>2014-09-28T15:19:10Z</time>
      </trkpt>
      <trkpt lat="49.03044" lon="1.09316">
        <ele>126.5</ele>
        <time>2014-09-28T15:19:12Z</time>
      </trkpt>
      <trkpt lat="49.03035" lon="1.09314">
        <ele>127.5</ele>
        <time>2014-09-28T15:19:14Z</time>
      </trkpt>
      <trkpt lat="49.03025" lon="1.09315">
        <ele>126.5</ele>
        <time>2014-09-28T15:19:16Z</time>
      </trkpt>
      <trkpt lat="49.03015" lon="1.09314">
        <ele>125.5</ele>
        <time>2014-09-28T15:19:18Z</time>
      </trkpt>
      <trkpt lat="49.03006" lon="1.09314">
        <ele>125.5</ele>
        <time>2014-09-28T15:19:20Z</time>
      </trkpt>
      <trkpt lat="49.02997" lon="1.09315">
        <ele>125.5</ele>
        <time>2014-09-28T15:19:22Z</time>
      </trkpt>
      <trkpt lat="49.02988" lon="1.09316">
        <ele>125.5</ele>
        <time>2014-09-28T15:19:24Z</time>
      </trkpt>
      <trkpt lat="49.02979" lon="1.09316">
        <ele>125.5</ele>
        <time>2014-09-28T15:19:26Z</time>
      </trkpt>
      <trkpt lat="49.02969" lon="1.09316">
        <ele>126.5</ele>
        <time>2014-09-28T15:19:28Z</time>
      </trkpt>
      <trkpt lat="49.0296" lon="1.09316">
        <ele>126.5</ele>
        <time>2014-09-28T15:19:30Z</time>
      </trkpt>
      <trkpt lat="49.02951" lon="1.09316">
        <ele>126.5</ele>
        <time>2014-09-28T15:19:32Z</time>
      </trkpt>
      <trkpt lat="49.02942" lon="1.09317">
        <ele>126.5</ele>
        <time>2014-09-28T15:19:34Z</time>
      </trkpt>
      <trkpt lat="49.02933" lon="1.09316">
        <ele>126.5</ele>
        <time>2014-09-28T15:19:36Z</time>
      </trkpt>
      <trkpt lat="49.02924" lon="1.09316">
        <ele>127.5</ele>
        <time>2014-09-28T15:19:38Z</time>
      </trkpt>
      <trkpt lat="49.02914" lon="1.09316">
        <ele>127.5</ele>
        <time>2014-09-28T15:19:40Z</time>
      </trkpt>
      <trkpt lat="49.02905" lon="1.09316">
        <ele>127.5</ele>
        <time>2014-09-28T15:19:42Z</time>
      </trkpt>
      <trkpt lat="49.02896" lon="1.09315">
        <ele>127.5</ele>
        <time>2014-09-28T15:19:44Z</time>
      </trkpt>
      <trkpt lat="49.02887" lon="1.09314">
        <ele>127.5</ele>
        <time>2014-09-28T15:19:46Z</time>
      </trkpt>
      <trkpt lat="49.02877" lon="1.09315">
        <ele>127.5</ele>
        <time>2014-09-28T15:19:48Z</time>
      </trkpt>
      <trkpt lat="49.02867" lon="1.09315">
        <ele>126.5</ele>
        <time>2014-09-28T15:19:50Z</time>
      </trkpt>
      <trkpt lat="49.02858" lon="1.09315">
        <ele>126.5</ele>
        <time>2014-09-28T15:19:52Z</time>
      </trkpt>
      <trkpt lat="49.02849" lon="1.09316">
        <ele>126.5</ele>
        <time>2014-09-28T15:19:54Z</time>
      </trkpt>
      <trkpt lat="49.02839" lon="1.09319">
        <ele>125.5</ele>
        <time>2014-09-28T15:19:56Z</time>
      </trkpt>
      <trkpt lat="49.02829" lon="1.09321">
        <ele>125.5</ele>
        <time>2014-09-28T15:19:58Z</time>
      </trkpt>
      <trkpt lat="49.02819" lon="1.09327">
        <ele>125.5</ele>
        <time>2014-09-28T15:20:00Z</time>
      </trkpt>
      <trkpt lat="49.0281" lon="1.09331">
        <ele>125.5</ele>
        <time>2014-09-28T15:20:02Z</time>
      </trkpt>
      <trkpt lat="49.028" lon="1.09337">
        <ele>126.5</ele>
        <time>2014-09-28T15:20:04Z</time>
      </trkpt>
      <trkpt lat="49.02789" lon="1.09343">
        <ele>126.5</ele>
        <time>2014-09-28T15:20:06Z</time>
      </trkpt>
      <trkpt lat="49.0278" lon="1.0935">
        <ele>125.5</ele>
        <time>2014-09-28T15:20:08Z</time>
      </trkpt>
      <trkpt lat="49.0277" lon="1.09354">
        <ele>125.5</ele>
        <time>2014-09-28T15:20:10Z</time>
      </trkpt>
      <trkpt lat="49.0276" lon="1.09355">
        <ele>125.5</ele>
        <time>2014-09-28T15:20:12Z</time>
      </trkpt>
      <trkpt lat="49.02754" lon="1.09346">
        <ele>125.5</ele>
        <time>2014-09-28T15:20:14Z</time>
      </trkpt>
      <trkpt lat="49.02755" lon="1.0933">
        <ele>126.5</ele>
        <time>2014-09-28T15:20:17Z</time>
      </trkpt>
      <trkpt lat="49.02758" lon="1.09319">
        <ele>126.5</ele>
        <time>2014-09-28T15:20:19Z</time>
      </trkpt>
      <trkpt lat="49.0276" lon="1.09306">
        <ele>126.5</ele>
        <time>2014-09-28T15:20:21Z</time>
      </trkpt>
      <trkpt lat="49.02762" lon="1.09293">
        <ele>126.5</ele>
        <time>2014-09-28T15:20:23Z</time>
      </trkpt>
      <trkpt lat="49.02764" lon="1.09279">
        <ele>126.5</ele>
        <time>2014-09-28T15:20:25Z</time>
      </trkpt>
      <trkpt lat="49.02767" lon="1.09266">
        <ele>126.5</ele>
        <time>2014-09-28T15:20:27Z</time>
      </trkpt>
      <trkpt lat="49.02769" lon="1.09251">
        <ele>127.5</ele>
        <time>2014-09-28T15:20:29Z</time>
      </trkpt>
      <trkpt lat="49.02769" lon="1.09238">
        <ele>126.5</ele>
        <time>2014-09-28T15:20:31Z</time>
      </trkpt>
      <trkpt lat="49.02768" lon="1.09224">
        <ele>126.5</ele>
        <time>2014-09-28T15:20:33Z</time>
      </trkpt>
      <trkpt lat="49.0277" lon="1.0921">
        <ele>126.5</ele>
        <time>2014-09-28T15:20:35Z</time>
      </trkpt>
      <trkpt lat="49.02769" lon="1.09197">
        <ele>126.5</ele>
        <time>2014-09-28T15:20:37Z</time>
      </trkpt>
      <trkpt lat="49.02769" lon="1.09184">
        <ele>126.5</ele>
        <time>2014-09-28T15:20:39Z</time>
      </trkpt>
      <trkpt lat="49.02768" lon="1.0917">
        <ele>126.5</ele>
        <time>2014-09-28T15:20:41Z</time>
      </trkpt>
      <trkpt lat="49.02766" lon="1.09156">
        <ele>125.5</ele>
        <time>2014-09-28T15:20:43Z</time>
      </trkpt>
      <trkpt lat="49.02763" lon="1.09141">
        <ele>125.5</ele>
        <time>2014-09-28T15:20:45Z</time>
      </trkpt>
      <trkpt lat="49.02761" lon="1.09127">
        <ele>125.5</ele>
        <time>2014-09-28T15:20:47Z</time>
      </trkpt>
      <trkpt lat="49.02759" lon="1.09112">
        <ele>126.5</ele>
        <time>2014-09-28T15:20:49Z</time>
      </trkpt>
      <trkpt lat="49.02756" lon="1.09097">
        <ele>125.5</ele>
        <time>2014-09-28T15:20:51Z</time>
      </trkpt>
      <trkpt lat="49.02753" lon="1.09082">
        <ele>125.5</ele>
        <time>2014-09-28T15:20:53Z</time>
      </trkpt>
      <trkpt lat="49.02752" lon="1.09066">
        <ele>124.5</ele>
        <time>2014-09-28T15:20:55Z</time>
      </trkpt>
      <trkpt lat="49.02751" lon="1.09051">
        <ele>124.5</ele>
        <time>2014-09-28T15:20:57Z</time>
      </trkpt>
      <trkpt lat="49.0275" lon="1.09035">
        <ele>124.5</ele>
        <time>2014-09-28T15:20:59Z</time>
      </trkpt>
      <trkpt lat="49.02748" lon="1.09018">
        <ele>125.5</ele>
        <time>2014-09-28T15:21:01Z</time>
      </trkpt>
      <trkpt lat="49.02748" lon="1.09003">
        <ele>124.5</ele>
        <time>2014-09-28T15:21:03Z</time>
      </trkpt>
      <trkpt lat="49.02747" lon="1.08987">
        <ele>124.5</ele>
        <time>2014-09-28T15:21:05Z</time>
      </trkpt>
      <trkpt lat="49.02748" lon="1.08971">
        <ele>125.5</ele>
        <time>2014-09-28T15:21:07Z</time>
      </trkpt>
      <trkpt lat="49.02747" lon="1.08954">
        <ele>124.5</ele>
        <time>2014-09-28T15:21:09Z</time>
      </trkpt>
      <trkpt lat="49.02747" lon="1.08938">
        <ele>124.5</ele>
        <time>2014-09-28T15:21:11Z</time>
      </trkpt>
      <trkpt lat="49.02747" lon="1.08922">
        <ele>124.5</ele>
        <time>2014-09-28T15:21:13Z</time>
      </trkpt>
      <trkpt lat="49.02747" lon="1.08905">
        <ele>124.5</ele>
        <time>2014-09-28T15:21:15Z</time>
      </trkpt>
      <trkpt lat="49.02747" lon="1.08888">
        <ele>124.5</ele>
        <time>2014-09-28T15:21:17Z</time>
      </trkpt>
      <trkpt lat="49.02747" lon="1.08873">
        <ele>124.5</ele>
        <time>2014-09-28T15:21:19Z</time>
      </trkpt>
      <trkpt lat="49.02745" lon="1.08858">
        <ele>124.5</ele>
        <time>2014-09-28T15:21:21Z</time>
      </trkpt>
      <trkpt lat="49.02745" lon="1.08844">
        <ele>124.5</ele>
        <time>2014-09-28T15:21:23Z</time>
      </trkpt>
      <trkpt lat="49.02746" lon="1.08829">
        <ele>124.5</ele>
        <time>2014-09-28T15:21:25Z</time>
      </trkpt>
      <trkpt lat="49.02746" lon="1.08815">
        <ele>124.5</ele>
        <time>2014-09-28T15:21:27Z</time>
      </trkpt>
      <trkpt lat="49.02745" lon="1.08801">
        <ele>124.5</ele>
        <time>2014-09-28T15:21:29Z</time>
      </trkpt>
      <trkpt lat="49.02745" lon="1.08787">
        <ele>124.5</ele>
        <time>2014-09-28T15:21:31Z</time>
      </trkpt>
      <trkpt lat="49.02746" lon="1.08771">
        <ele>125.5</ele>
        <time>2014-09-28T15:21:33Z</time>
      </trkpt>
      <trkpt lat="49.02746" lon="1.08757">
        <ele>126.5</ele>
        <time>2014-09-28T15:21:35Z</time>
      </trkpt>
      <trkpt lat="49.02747" lon="1.08743">
        <ele>127.5</ele>
        <time>2014-09-28T15:21:37Z</time>
      </trkpt>
      <trkpt lat="49.02747" lon="1.08729">
        <ele>127.5</ele>
        <time>2014-09-28T15:21:39Z</time>
      </trkpt>
      <trkpt lat="49.02746" lon="1.08716">
        <ele>127.5</ele>
        <time>2014-09-28T15:21:41Z</time>
      </trkpt>
      <trkpt lat="49.02747" lon="1.08704">
        <ele>127.5</ele>
        <time>2014-09-28T15:21:43Z</time>
      </trkpt>
      <trkpt lat="49.02746" lon="1.08692">
        <ele>126.5</ele>
        <time>2014-09-28T15:21:45Z</time>
      </trkpt>
      <trkpt lat="49.02746" lon="1.08676">
        <ele>125.5</ele>
        <time>2014-09-28T15:21:48Z</time>
      </trkpt>
      <trkpt lat="49.02745" lon="1.0866">
        <ele>125.5</ele>
        <time>2014-09-28T15:21:51Z</time>
      </trkpt>
      <trkpt lat="49.02743" lon="1.08647">
        <ele>127.5</ele>
        <time>2014-09-28T15:22:34Z</time>
      </trkpt>
      <trkpt lat="49.02743" lon="1.08631">
        <ele>127.5</ele>
        <time>2014-09-28T15:22:37Z</time>
      </trkpt>
      <trkpt lat="49.02744" lon="1.0862">
        <ele>126.5</ele>
        <time>2014-09-28T15:22:39Z</time>
      </trkpt>
      <trkpt lat="49.02745" lon="1.08608">
        <ele>126.5</ele>
        <time>2014-09-28T15:22:41Z</time>
      </trkpt>
      <trkpt lat="49.02746" lon="1.08597">
        <ele>125.5</ele>
        <time>2014-09-28T15:22:43Z</time>
      </trkpt>
      <trkpt lat="49.02747" lon="1.08583">
        <ele>127.5</ele>
        <time>2014-09-28T15:22:45Z</time>
      </trkpt>
      <trkpt lat="49.02748" lon="1.08568">
        <ele>126.5</ele>
        <time>2014-09-28T15:22:47Z</time>
      </trkpt>
      <trkpt lat="49.02749" lon="1.08554">
        <ele>125.5</ele>
        <time>2014-09-28T15:22:49Z</time>
      </trkpt>
      <trkpt lat="49.0275" lon="1.08539">
        <ele>124.5</ele>
        <time>2014-09-28T15:22:51Z</time>
      </trkpt>
      <trkpt lat="49.02751" lon="1.08526">
        <ele>124.5</ele>
        <time>2014-09-28T15:22:53Z</time>
      </trkpt>
      <trkpt lat="49.02753" lon="1.08511">
        <ele>124.5</ele>
        <time>2014-09-28T15:22:55Z</time>
      </trkpt>
      <trkpt lat="49.02757" lon="1.08495">
        <ele>125.5</ele>
        <time>2014-09-28T15:22:57Z</time>
      </trkpt>
      <trkpt lat="49.0276" lon="1.08481">
        <ele>124.5</ele>
        <time>2014-09-28T15:22:59Z</time>
      </trkpt>
      <trkpt lat="49.02763" lon="1.08468">
        <ele>124.5</ele>
        <time>2014-09-28T15:23:01Z</time>
      </trkpt>
      <trkpt lat="49.02767" lon="1.08454">
        <ele>124.5</ele>
        <time>2014-09-28T15:23:03Z</time>
      </trkpt>
      <trkpt lat="49.02771" lon="1.08441">
        <ele>124.5</ele>
        <time>2014-09-28T15:23:05Z</time>
      </trkpt>
      <trkpt lat="49.02773" lon="1.08428">
        <ele>124.5</ele>
        <time>2014-09-28T15:23:07Z</time>
      </trkpt>
      <trkpt lat="49.02779" lon="1.08417">
        <ele>125.5</ele>
        <time>2014-09-28T15:23:09Z</time>
      </trkpt>
      <trkpt lat="49.02781" lon="1.08401">
        <ele>126.5</ele>
        <time>2014-09-28T15:23:11Z</time>
      </trkpt>
      <trkpt lat="49.02785" lon="1.08388">
        <ele>124.5</ele>
        <time>2014-09-28T15:23:13Z</time>
      </trkpt>
      <trkpt lat="49.02789" lon="1.08372">
        <ele>125.5</ele>
        <time>2014-09-28T15:23:15Z</time>
      </trkpt>
      <trkpt lat="49.02792" lon="1.08358">
        <ele>124.5</ele>
        <time>2014-09-28T15:23:17Z</time>
      </trkpt>
      <trkpt lat="49.02794" lon="1.08342">
        <ele>124.5</ele>
        <time>2014-09-28T15:23:19Z</time>
      </trkpt>
      <trkpt lat="49.02797" lon="1.08327">
        <ele>123.5</ele>
        <time>2014-09-28T15:23:21Z</time>
      </trkpt>
      <trkpt lat="49.028" lon="1.08311">
        <ele>123.5</ele>
        <time>2014-09-28T15:23:23Z</time>
      </trkpt>
      <trkpt lat="49.02803" lon="1.08296">
        <ele>123.5</ele>
        <time>2014-09-28T15:23:25Z</time>
      </trkpt>
      <trkpt lat="49.02806" lon="1.0828">
        <ele>123.5</ele>
        <time>2014-09-28T15:23:27Z</time>
      </trkpt>
      <trkpt lat="49.02809" lon="1.08265">
        <ele>123.5</ele>
        <time>2014-09-28T15:23:28Z</time>
      </trkpt>
      <trkpt lat="49.02814" lon="1.0825">
        <ele>123.5</ele>
        <time>2014-09-28T15:23:31Z</time>
      </trkpt>
      <trkpt lat="49.02818" lon="1.08233">
        <ele>124.5</ele>
        <time>2014-09-28T15:23:32Z</time>
      </trkpt>
      <trkpt lat="49.02822" lon="1.08217">
        <ele>123.5</ele>
        <time>2014-09-28T15:23:35Z</time>
      </trkpt>
      <trkpt lat="49.02828" lon="1.08203">
        <ele>123.5</ele>
        <time>2014-09-28T15:23:37Z</time>
      </trkpt>
      <trkpt lat="49.02833" lon="1.08189">
        <ele>125.5</ele>
        <time>2014-09-28T15:23:39Z</time>
      </trkpt>
      <trkpt lat="49.02838" lon="1.08176">
        <ele>125.5</ele>
        <time>2014-09-28T15:23:41Z</time>
      </trkpt>
      <trkpt lat="49.02844" lon="1.08161">
        <ele>126.5</ele>
        <time>2014-09-28T15:23:43Z</time>
      </trkpt>
      <trkpt lat="49.02848" lon="1.08148">
        <ele>127.5</ele>
        <time>2014-09-28T15:23:45Z</time>
      </trkpt>
      <trkpt lat="49.02854" lon="1.08134">
        <ele>127.5</ele>
        <time>2014-09-28T15:23:47Z</time>
      </trkpt>
      <trkpt lat="49.02858" lon="1.0812">
        <ele>127.5</ele>
        <time>2014-09-28T15:23:49Z</time>
      </trkpt>
      <trkpt lat="49.02865" lon="1.08107">
        <ele>129.5</ele>
        <time>2014-09-28T15:23:51Z</time>
      </trkpt>
      <trkpt lat="49.0287" lon="1.08093">
        <ele>129.5</ele>
        <time>2014-09-28T15:23:53Z</time>
      </trkpt>
      <trkpt lat="49.02875" lon="1.08079">
        <ele>131.5</ele>
        <time>2014-09-28T15:23:55Z</time>
      </trkpt>
      <trkpt lat="49.02879" lon="1.08065">
        <ele>131.5</ele>
        <time>2014-09-28T15:23:57Z</time>
      </trkpt>
      <trkpt lat="49.02881" lon="1.08047">
        <ele>130.5</ele>
        <time>2014-09-28T15:23:59Z</time>
      </trkpt>
      <trkpt lat="49.02883" lon="1.0803">
        <ele>130.5</ele>
        <time>2014-09-28T15:24:01Z</time>
      </trkpt>
      <trkpt lat="49.02885" lon="1.08015">
        <ele>129.5</ele>
        <time>2014-09-28T15:24:03Z</time>
      </trkpt>
      <trkpt lat="49.02886" lon="1.07999">
        <ele>128.5</ele>
        <time>2014-09-28T15:24:05Z</time>
      </trkpt>
      <trkpt lat="49.02886" lon="1.07985">
        <ele>127.5</ele>
        <time>2014-09-28T15:24:07Z</time>
      </trkpt>
      <trkpt lat="49.02886" lon="1.07971">
        <ele>127.5</ele>
        <time>2014-09-28T15:24:08Z</time>
      </trkpt>
      <trkpt lat="49.02886" lon="1.07957">
        <ele>127.5</ele>
        <time>2014-09-28T15:24:11Z</time>
      </trkpt>
      <trkpt lat="49.02886" lon="1.07944">
        <ele>126.5</ele>
        <time>2014-09-28T15:24:13Z</time>
      </trkpt>
      <trkpt lat="49.02887" lon="1.07931">
        <ele>125.5</ele>
        <time>2014-09-28T15:24:15Z</time>
      </trkpt>
      <trkpt lat="49.02891" lon="1.07917">
        <ele>125.5</ele>
        <time>2014-09-28T15:24:18Z</time>
      </trkpt>
      <trkpt lat="49.02891" lon="1.07903">
        <ele>126.5</ele>
        <time>2014-09-28T15:24:20Z</time>
      </trkpt>
      <trkpt lat="49.02895" lon="1.0789">
        <ele>126.5</ele>
        <time>2014-09-28T15:24:22Z</time>
      </trkpt>
      <trkpt lat="49.02896" lon="1.07878">
        <ele>127.5</ele>
        <time>2014-09-28T15:24:24Z</time>
      </trkpt>
      <trkpt lat="49.02898" lon="1.0786">
        <ele>129.5</ele>
        <time>2014-09-28T15:24:26Z</time>
      </trkpt>
      <trkpt lat="49.02897" lon="1.07846">
        <ele>124.5</ele>
        <time>2014-09-28T15:24:28Z</time>
      </trkpt>
      <trkpt lat="49.02902" lon="1.0783">
        <ele>125.5</ele>
        <time>2014-09-28T15:24:30Z</time>
      </trkpt>
      <trkpt lat="49.02907" lon="1.07814">
        <ele>126.5</ele>
        <time>2014-09-28T15:24:32Z</time>
      </trkpt>
      <trkpt lat="49.0291" lon="1.07796">
        <ele>123.5</ele>
        <time>2014-09-28T15:24:34Z</time>
      </trkpt>
      <trkpt lat="49.02912" lon="1.0778">
        <ele>122.5</ele>
        <time>2014-09-28T15:24:36Z</time>
      </trkpt>
      <trkpt lat="49.02917" lon="1.07763">
        <ele>124.5</ele>
        <time>2014-09-28T15:24:38Z</time>
      </trkpt>
      <trkpt lat="49.02919" lon="1.07746">
        <ele>125.5</ele>
        <time>2014-09-28T15:24:40Z</time>
      </trkpt>
      <trkpt lat="49.02922" lon="1.07729">
        <ele>125.5</ele>
        <time>2014-09-28T15:24:42Z</time>
      </trkpt>
      <trkpt lat="49.02924" lon="1.07713">
        <ele>124.5</ele>
        <time>2014-09-28T15:24:43Z</time>
      </trkpt>
      <trkpt lat="49.02928" lon="1.07697">
        <ele>124.5</ele>
        <time>2014-09-28T15:24:46Z</time>
      </trkpt>
      <trkpt lat="49.02932" lon="1.07682">
        <ele>123.5</ele>
        <time>2014-09-28T15:24:48Z</time>
      </trkpt>
      <trkpt lat="49.02935" lon="1.07665">
        <ele>123.5</ele>
        <time>2014-09-28T15:24:50Z</time>
      </trkpt>
      <trkpt lat="49.02938" lon="1.07649">
        <ele>122.5</ele>
        <time>2014-09-28T15:24:52Z</time>
      </trkpt>
      <trkpt lat="49.0294" lon="1.07632">
        <ele>123.5</ele>
        <time>2014-09-28T15:24:54Z</time>
      </trkpt>
      <trkpt lat="49.02942" lon="1.07615">
        <ele>122.5</ele>
        <time>2014-09-28T15:24:56Z</time>
      </trkpt>
      <trkpt lat="49.02943" lon="1.076">
        <ele>121.5</ele>
        <time>2014-09-28T15:24:58Z</time>
      </trkpt>
      <trkpt lat="49.02945" lon="1.07583">
        <ele>121.5</ele>
        <time>2014-09-28T15:25:00Z</time>
      </trkpt>
      <trkpt lat="49.02946" lon="1.07567">
        <ele>121.5</ele>
        <time>2014-09-28T15:25:02Z</time>
      </trkpt>
      <trkpt lat="49.02947" lon="1.07552">
        <ele>121.5</ele>
        <time>2014-09-28T15:25:04Z</time>
      </trkpt>
      <trkpt lat="49.02948" lon="1.07537">
        <ele>121.5</ele>
        <time>2014-09-28T15:25:06Z</time>
      </trkpt>
      <trkpt lat="49.02949" lon="1.07526">
        <ele>122.5</ele>
        <time>2014-09-28T15:25:13Z</time>
      </trkpt>
      <trkpt lat="49.0295" lon="1.07513">
        <ele>123.5</ele>
        <time>2014-09-28T15:25:16Z</time>
      </trkpt>
      <trkpt lat="49.02951" lon="1.075">
        <ele>123.5</ele>
        <time>2014-09-28T15:25:19Z</time>
      </trkpt>
      <trkpt lat="49.02951" lon="1.07488">
        <ele>122.5</ele>
        <time>2014-09-28T15:25:20Z</time>
      </trkpt>
      <trkpt lat="49.02951" lon="1.07475">
        <ele>122.5</ele>
        <time>2014-09-28T15:25:23Z</time>
      </trkpt>
      <trkpt lat="49.02951" lon="1.07462">
        <ele>123.5</ele>
        <time>2014-09-28T15:25:25Z</time>
      </trkpt>
      <trkpt lat="49.0295" lon="1.07447">
        <ele>123.5</ele>
        <time>2014-09-28T15:25:26Z</time>
      </trkpt>
      <trkpt lat="49.02949" lon="1.07433">
        <ele>123.5</ele>
        <time>2014-09-28T15:25:29Z</time>
      </trkpt>
      <trkpt lat="49.02946" lon="1.07418">
        <ele>122.5</ele>
        <time>2014-09-28T15:25:31Z</time>
      </trkpt>
      <trkpt lat="49.02943" lon="1.07403">
        <ele>122.5</ele>
        <time>2014-09-28T15:25:32Z</time>
      </trkpt>
      <trkpt lat="49.0294" lon="1.07388">
        <ele>122.5</ele>
        <time>2014-09-28T15:25:34Z</time>
      </trkpt>
      <trkpt lat="49.02937" lon="1.07373">
        <ele>122.5</ele>
        <time>2014-09-28T15:25:37Z</time>
      </trkpt>
      <trkpt lat="49.02935" lon="1.0736">
        <ele>121.5</ele>
        <time>2014-09-28T15:25:39Z</time>
      </trkpt>
      <trkpt lat="49.02931" lon="1.07346">
        <ele>120.5</ele>
        <time>2014-09-28T15:25:41Z</time>
      </trkpt>
      <trkpt lat="49.02929" lon="1.07332">
        <ele>119.5</ele>
        <time>2014-09-28T15:25:43Z</time>
      </trkpt>
      <trkpt lat="49.02929" lon="1.07317">
        <ele>119.5</ele>
        <time>2014-09-28T15:25:44Z</time>
      </trkpt>
      <trkpt lat="49.02924" lon="1.07303">
        <ele>118.5</ele>
        <time>2014-09-28T15:25:47Z</time>
      </trkpt>
      <trkpt lat="49.02921" lon="1.07291">
        <ele>117.5</ele>
        <time>2014-09-28T15:25:49Z</time>
      </trkpt>
      <trkpt lat="49.02918" lon="1.07278">
        <ele>118.5</ele>
        <time>2014-09-28T15:25:51Z</time>
      </trkpt>
      <trkpt lat="49.02917" lon="1.07264">
        <ele>118.5</ele>
        <time>2014-09-28T15:25:53Z</time>
      </trkpt>
      <trkpt lat="49.02913" lon="1.07252">
        <ele>117.5</ele>
        <time>2014-09-28T15:25:54Z</time>
      </trkpt>
      <trkpt lat="49.02911" lon="1.07239">
        <ele>117.5</ele>
        <time>2014-09-28T15:25:56Z</time>
      </trkpt>
      <trkpt lat="49.02909" lon="1.07226">
        <ele>118.5</ele>
        <time>2014-09-28T15:25:58Z</time>
      </trkpt>
      <trkpt lat="49.02907" lon="1.07212">
        <ele>118.5</ele>
        <time>2014-09-28T15:26:01Z</time>
      </trkpt>
      <trkpt lat="49.02906" lon="1.07197">
        <ele>119.5</ele>
        <time>2014-09-28T15:26:02Z</time>
      </trkpt>
      <trkpt lat="49.02907" lon="1.07182">
        <ele>120.5</ele>
        <time>2014-09-28T15:26:05Z</time>
      </trkpt>
      <trkpt lat="49.02906" lon="1.07169">
        <ele>119.5</ele>
        <time>2014-09-28T15:26:06Z</time>
      </trkpt>
      <trkpt lat="49.02908" lon="1.07157">
        <ele>121.5</ele>
        <time>2014-09-28T15:26:08Z</time>
      </trkpt>
      <trkpt lat="49.02909" lon="1.07145">
        <ele>123.5</ele>
        <time>2014-09-28T15:26:11Z</time>
      </trkpt>
      <trkpt lat="49.0291" lon="1.07133">
        <ele>123.5</ele>
        <time>2014-09-28T15:26:13Z</time>
      </trkpt>
      <trkpt lat="49.02913" lon="1.07122">
        <ele>123.5</ele>
        <time>2014-09-28T15:26:15Z</time>
      </trkpt>
      <trkpt lat="49.02917" lon="1.0711">
        <ele>124.5</ele>
        <time>2014-09-28T15:26:18Z</time>
      </trkpt>
      <trkpt lat="49.0292" lon="1.07096">
        <ele>123.5</ele>
        <time>2014-09-28T15:26:28Z</time>
      </trkpt>
      <trkpt lat="49.02921" lon="1.0708">
        <ele>124.5</ele>
        <time>2014-09-28T15:26:32Z</time>
      </trkpt>
      <trkpt lat="49.02922" lon="1.07066">
        <ele>124.5</ele>
        <time>2014-09-28T15:26:33Z</time>
      </trkpt>
      <trkpt lat="49.02924" lon="1.07052">
        <ele>120.5</ele>
        <time>2014-09-28T15:26:36Z</time>
      </trkpt>
      <trkpt lat="49.02927" lon="1.07038">
        <ele>119.5</ele>
        <time>2014-09-28T15:26:37Z</time>
      </trkpt>
      <trkpt lat="49.02929" lon="1.07023">
        <ele>119.5</ele>
        <time>2014-09-28T15:26:39Z</time>
      </trkpt>
      <trkpt lat="49.0293" lon="1.07008">
        <ele>119.5</ele>
        <time>2014-09-28T15:26:42Z</time>
      </trkpt>
      <trkpt lat="49.02931" lon="1.06997">
        <ele>117.5</ele>
        <time>2014-09-28T15:26:42Z</time>
      </trkpt>
      <trkpt lat="49.02933" lon="1.06981">
        <ele>119.5</ele>
        <time>2014-09-28T15:26:45Z</time>
      </trkpt>
      <trkpt lat="49.02934" lon="1.06966">
        <ele>118.5</ele>
        <time>2014-09-28T15:26:46Z</time>
      </trkpt>
      <trkpt lat="49.02936" lon="1.0695">
        <ele>118.5</ele>
        <time>2014-09-28T15:26:48Z</time>
      </trkpt>
      <trkpt lat="49.02933" lon="1.06933">
        <ele>117.5</ele>
        <time>2014-09-28T15:26:50Z</time>
      </trkpt>
      <trkpt lat="49.02932" lon="1.06915">
        <ele>115.5</ele>
        <time>2014-09-28T15:26:52Z</time>
      </trkpt>
      <trkpt lat="49.02929" lon="1.06899">
        <ele>115.5</ele>
        <time>2014-09-28T15:26:54Z</time>
      </trkpt>
      <trkpt lat="49.02931" lon="1.06882">
        <ele>116.5</ele>
        <time>2014-09-28T15:26:56Z</time>
      </trkpt>
      <trkpt lat="49.02931" lon="1.0687">
        <ele>117.5</ele>
        <time>2014-09-28T15:26:58Z</time>
      </trkpt>
      <trkpt lat="49.0293" lon="1.06856">
        <ele>117.5</ele>
        <time>2014-09-28T15:27:00Z</time>
      </trkpt>
      <trkpt lat="49.02924" lon="1.06841">
        <ele>118.5</ele>
        <time>2014-09-28T15:27:01Z</time>
      </trkpt>
      <trkpt lat="49.02926" lon="1.06827">
        <ele>120.5</ele>
        <time>2014-09-28T15:27:03Z</time>
      </trkpt>
      <trkpt lat="49.02921" lon="1.06811">
        <ele>115.5</ele>
        <time>2014-09-28T15:27:06Z</time>
      </trkpt>
      <trkpt lat="49.02921" lon="1.06798">
        <ele>118.5</ele>
        <time>2014-09-28T15:27:07Z</time>
      </trkpt>
      <trkpt lat="49.0292" lon="1.06784">
        <ele>120.5</ele>
        <time>2014-09-28T15:27:09Z</time>
      </trkpt>
      <trkpt lat="49.0292" lon="1.06766">
        <ele>121.5</ele>
        <time>2014-09-28T15:27:11Z</time>
      </trkpt>
      <trkpt lat="49.02918" lon="1.06746">
        <ele>121.5</ele>
        <time>2014-09-28T15:27:14Z</time>
      </trkpt>
      <trkpt lat="49.02913" lon="1.06733">
        <ele>120.5</ele>
        <time>2014-09-28T15:27:14Z</time>
      </trkpt>
      <trkpt lat="49.02909" lon="1.06715">
        <ele>119.5</ele>
        <time>2014-09-28T15:27:16Z</time>
      </trkpt>
      <trkpt lat="49.02905" lon="1.06701">
        <ele>119.5</ele>
        <time>2014-09-28T15:27:18Z</time>
      </trkpt>
      <trkpt lat="49.02898" lon="1.06686">
        <ele>117.5</ele>
        <time>2014-09-28T15:27:20Z</time>
      </trkpt>
      <trkpt lat="49.02892" lon="1.06668">
        <ele>117.5</ele>
        <time>2014-09-28T15:27:22Z</time>
      </trkpt>
      <trkpt lat="49.02883" lon="1.06659">
        <ele>115.5</ele>
        <time>2014-09-28T15:27:24Z</time>
      </trkpt>
      <trkpt lat="49.02877" lon="1.06644">
        <ele>113.5</ele>
        <time>2014-09-28T15:27:26Z</time>
      </trkpt>
      <trkpt lat="49.02871" lon="1.06627">
        <ele>111.5</ele>
        <time>2014-09-28T15:27:29Z</time>
      </trkpt>
      <trkpt lat="49.02866" lon="1.06611">
        <ele>108.5</ele>
        <time>2014-09-28T15:27:30Z</time>
      </trkpt>
      <trkpt lat="49.02865" lon="1.06593">
        <ele>109.5</ele>
        <time>2014-09-28T15:27:33Z</time>
      </trkpt>
      <trkpt lat="49.02863" lon="1.06575">
        <ele>110.5</ele>
        <time>2014-09-28T15:27:34Z</time>
      </trkpt>
      <trkpt lat="49.02862" lon="1.06558">
        <ele>111.5</ele>
        <time>2014-09-28T15:27:36Z</time>
      </trkpt>
      <trkpt lat="49.0286" lon="1.0654">
        <ele>111.5</ele>
        <time>2014-09-28T15:27:38Z</time>
      </trkpt>
      <trkpt lat="49.02857" lon="1.06525">
        <ele>111.5</ele>
        <time>2014-09-28T15:27:40Z</time>
      </trkpt>
      <trkpt lat="49.02855" lon="1.06509">
        <ele>111.5</ele>
        <time>2014-09-28T15:27:42Z</time>
      </trkpt>
      <trkpt lat="49.02851" lon="1.06494">
        <ele>110.5</ele>
        <time>2014-09-28T15:27:44Z</time>
      </trkpt>
      <trkpt lat="49.02848" lon="1.06478">
        <ele>109.5</ele>
        <time>2014-09-28T15:27:46Z</time>
      </trkpt>
      <trkpt lat="49.02844" lon="1.06465">
        <ele>109.5</ele>
        <time>2014-09-28T15:27:48Z</time>
      </trkpt>
      <trkpt lat="49.0284" lon="1.06452">
        <ele>108.5</ele>
        <time>2014-09-28T15:27:50Z</time>
      </trkpt>
      <trkpt lat="49.02835" lon="1.06438">
        <ele>108.5</ele>
        <time>2014-09-28T15:27:52Z</time>
      </trkpt>
      <trkpt lat="49.02831" lon="1.06427">
        <ele>109.5</ele>
        <time>2014-09-28T15:27:54Z</time>
      </trkpt>
      <trkpt lat="49.02828" lon="1.06416">
        <ele>109.5</ele>
        <time>2014-09-28T15:27:56Z</time>
      </trkpt>
      <trkpt lat="49.02824" lon="1.06403">
        <ele>112.5</ele>
        <time>2014-09-28T15:27:58Z</time>
      </trkpt>
      <trkpt lat="49.02821" lon="1.0639">
        <ele>113.5</ele>
        <time>2014-09-28T15:28:00Z</time>
      </trkpt>
      <trkpt lat="49.02816" lon="1.06378">
        <ele>113.5</ele>
        <time>2014-09-28T15:28:02Z</time>
      </trkpt>
      <trkpt lat="49.02812" lon="1.06364">
        <ele>112.5</ele>
        <time>2014-09-28T15:28:05Z</time>
      </trkpt>
      <trkpt lat="49.02809" lon="1.0635">
        <ele>113.5</ele>
        <time>2014-09-28T15:28:08Z</time>
      </trkpt>
      <trkpt lat="49.02805" lon="1.06336">
        <ele>114.5</ele>
        <time>2014-09-28T15:28:12Z</time>
      </trkpt>
      <trkpt lat="49.02802" lon="1.06322">
        <ele>114.5</ele>
        <time>2014-09-28T15:28:14Z</time>
      </trkpt>
      <trkpt lat="49.02799" lon="1.06311">
        <ele>114.5</ele>
        <time>2014-09-28T15:28:18Z</time>
      </trkpt>
      <trkpt lat="49.02796" lon="1.063">
        <ele>113.5</ele>
        <time>2014-09-28T15:28:20Z</time>
      </trkpt>
      <trkpt lat="49.02793" lon="1.06288">
        <ele>113.5</ele>
        <time>2014-09-28T15:28:23Z</time>
      </trkpt>
      <trkpt lat="49.0279" lon="1.06276">
        <ele>115.5</ele>
        <time>2014-09-28T15:28:26Z</time>
      </trkpt>
      <trkpt lat="49.02787" lon="1.06265">
        <ele>116.5</ele>
        <time>2014-09-28T15:28:29Z</time>
      </trkpt>
      <trkpt lat="49.02784" lon="1.06252">
        <ele>118.5</ele>
        <time>2014-09-28T15:28:33Z</time>
      </trkpt>
      <trkpt lat="49.02782" lon="1.06239">
        <ele>119.5</ele>
        <time>2014-09-28T15:28:36Z</time>
      </trkpt>
      <trkpt lat="49.02779" lon="1.06226">
        <ele>119.5</ele>
        <time>2014-09-28T15:28:39Z</time>
      </trkpt>
      <trkpt lat="49.02776" lon="1.06213">
        <ele>120.5</ele>
        <time>2014-09-28T15:28:41Z</time>
      </trkpt>
      <trkpt lat="49.02774" lon="1.06199">
        <ele>121.5</ele>
        <time>2014-09-28T15:28:44Z</time>
      </trkpt>
      <trkpt lat="49.02772" lon="1.06185">
        <ele>120.5</ele>
        <time>2014-09-28T15:28:47Z</time>
      </trkpt>
      <trkpt lat="49.0277" lon="1.06172">
        <ele>119.5</ele>
        <time>2014-09-28T15:28:51Z</time>
      </trkpt>
      <trkpt lat="49.0277" lon="1.06172">
        <ele>119.5</ele>
        <time>2014-09-28T15:29:15Z</time>
      </trkpt>
      <trkpt lat="49.02771" lon="1.06172">
        <ele>120.5</ele>
        <time>2014-09-28T15:33:48Z</time>
      </trkpt>
      <trkpt lat="49.02771" lon="1.06159">
        <ele>120.5</ele>
        <time>2014-09-28T15:34:04Z</time>
      </trkpt>
      <trkpt lat="49.02769" lon="1.06148">
        <ele>117.5</ele>
        <time>2014-09-28T15:35:04Z</time>
      </trkpt>
      <trkpt lat="49.0277" lon="1.06137">
        <ele>119.5</ele>
        <time>2014-09-28T15:35:08Z</time>
      </trkpt>
      <trkpt lat="49.0277" lon="1.06121">
        <ele>119.5</ele>
        <time>2014-09-28T15:35:11Z</time>
      </trkpt>
      <trkpt lat="49.02768" lon="1.0611">
        <ele>118.5</ele>
        <time>2014-09-28T15:35:13Z</time>
      </trkpt>
      <trkpt lat="49.02767" lon="1.06099">
        <ele>117.5</ele>
        <time>2014-09-28T15:35:15Z</time>
      </trkpt>
      <trkpt lat="49.02766" lon="1.06088">
        <ele>117.5</ele>
        <time>2014-09-28T15:35:18Z</time>
      </trkpt>
      <trkpt lat="49.02765" lon="1.06077">
        <ele>116.5</ele>
        <time>2014-09-28T15:35:19Z</time>
      </trkpt>
      <trkpt lat="49.02764" lon="1.06061">
        <ele>116.5</ele>
        <time>2014-09-28T15:35:22Z</time>
      </trkpt>
      <trkpt lat="49.02763" lon="1.06044">
        <ele>117.5</ele>
        <time>2014-09-28T15:35:25Z</time>
      </trkpt>
      <trkpt lat="49.02761" lon="1.06028">
        <ele>117.5</ele>
        <time>2014-09-28T15:35:28Z</time>
      </trkpt>
      <trkpt lat="49.0276" lon="1.06012">
        <ele>117.5</ele>
        <time>2014-09-28T15:35:31Z</time>
      </trkpt>
      <trkpt lat="49.02759" lon="1.06">
        <ele>117.5</ele>
        <time>2014-09-28T15:35:33Z</time>
      </trkpt>
      <trkpt lat="49.02757" lon="1.05988">
        <ele>117.5</ele>
        <time>2014-09-28T15:35:35Z</time>
      </trkpt>
      <trkpt lat="49.02756" lon="1.05975">
        <ele>118.5</ele>
        <time>2014-09-28T15:35:37Z</time>
      </trkpt>
      <trkpt lat="49.02755" lon="1.05962">
        <ele>118.5</ele>
        <time>2014-09-28T15:35:39Z</time>
      </trkpt>
      <trkpt lat="49.02754" lon="1.05949">
        <ele>118.5</ele>
        <time>2014-09-28T15:35:41Z</time>
      </trkpt>
      <trkpt lat="49.02753" lon="1.05936">
        <ele>118.5</ele>
        <time>2014-09-28T15:35:43Z</time>
      </trkpt>
      <trkpt lat="49.02752" lon="1.05923">
        <ele>118.5</ele>
        <time>2014-09-28T15:35:45Z</time>
      </trkpt>
      <trkpt lat="49.02751" lon="1.0591">
        <ele>116.5</ele>
        <time>2014-09-28T15:35:47Z</time>
      </trkpt>
      <trkpt lat="49.0275" lon="1.05898">
        <ele>117.5</ele>
        <time>2014-09-28T15:35:49Z</time>
      </trkpt>
      <trkpt lat="49.0275" lon="1.05886">
        <ele>117.5</ele>
        <time>2014-09-28T15:35:51Z</time>
      </trkpt>
      <trkpt lat="49.02749" lon="1.05873">
        <ele>118.5</ele>
        <time>2014-09-28T15:35:53Z</time>
      </trkpt>
      <trkpt lat="49.02747" lon="1.0586">
        <ele>118.5</ele>
        <time>2014-09-28T15:35:55Z</time>
      </trkpt>
      <trkpt lat="49.02746" lon="1.05848">
        <ele>119.5</ele>
        <time>2014-09-28T15:35:57Z</time>
      </trkpt>
      <trkpt lat="49.02746" lon="1.05837">
        <ele>119.5</ele>
        <time>2014-09-28T15:35:59Z</time>
      </trkpt>
      <trkpt lat="49.02745" lon="1.05825">
        <ele>119.5</ele>
        <time>2014-09-28T15:36:01Z</time>
      </trkpt>
      <trkpt lat="49.02744" lon="1.05813">
        <ele>118.5</ele>
        <time>2014-09-28T15:36:03Z</time>
      </trkpt>
      <trkpt lat="49.02743" lon="1.05801">
        <ele>118.5</ele>
        <time>2014-09-28T15:36:05Z</time>
      </trkpt>
      <trkpt lat="49.02742" lon="1.05789">
        <ele>118.5</ele>
        <time>2014-09-28T15:36:07Z</time>
      </trkpt>
      <trkpt lat="49.0274" lon="1.05776">
        <ele>119.5</ele>
        <time>2014-09-28T15:36:09Z</time>
      </trkpt>
      <trkpt lat="49.02739" lon="1.05763">
        <ele>119.5</ele>
        <time>2014-09-28T15:36:11Z</time>
      </trkpt>
      <trkpt lat="49.02738" lon="1.0575">
        <ele>119.5</ele>
        <time>2014-09-28T15:36:13Z</time>
      </trkpt>
      <trkpt lat="49.02736" lon="1.05735">
        <ele>119.5</ele>
        <time>2014-09-28T15:36:15Z</time>
      </trkpt>
      <trkpt lat="49.02735" lon="1.05721">
        <ele>120.5</ele>
        <time>2014-09-28T15:36:17Z</time>
      </trkpt>
      <trkpt lat="49.02734" lon="1.05708">
        <ele>120.5</ele>
        <time>2014-09-28T15:36:19Z</time>
      </trkpt>
      <trkpt lat="49.02731" lon="1.05695">
        <ele>119.5</ele>
        <time>2014-09-28T15:36:21Z</time>
      </trkpt>
      <trkpt lat="49.0273" lon="1.05683">
        <ele>119.5</ele>
        <time>2014-09-28T15:36:23Z</time>
      </trkpt>
      <trkpt lat="49.02729" lon="1.05669">
        <ele>119.5</ele>
        <time>2014-09-28T15:36:25Z</time>
      </trkpt>
      <trkpt lat="49.02728" lon="1.05656">
        <ele>120.5</ele>
        <time>2014-09-28T15:36:27Z</time>
      </trkpt>
      <trkpt lat="49.02726" lon="1.05641">
        <ele>119.5</ele>
        <time>2014-09-28T15:36:29Z</time>
      </trkpt>
      <trkpt lat="49.02724" lon="1.05627">
        <ele>120.5</ele>
        <time>2014-09-28T15:36:31Z</time>
      </trkpt>
      <trkpt lat="49.02722" lon="1.05613">
        <ele>120.5</ele>
        <time>2014-09-28T15:36:33Z</time>
      </trkpt>
      <trkpt lat="49.0272" lon="1.05599">
        <ele>120.5</ele>
        <time>2014-09-28T15:36:35Z</time>
      </trkpt>
      <trkpt lat="49.02719" lon="1.05585">
        <ele>120.5</ele>
        <time>2014-09-28T15:36:37Z</time>
      </trkpt>
      <trkpt lat="49.02717" lon="1.05571">
        <ele>120.5</ele>
        <time>2014-09-28T15:36:39Z</time>
      </trkpt>
      <trkpt lat="49.02716" lon="1.05557">
        <ele>120.5</ele>
        <time>2014-09-28T15:36:41Z</time>
      </trkpt>
      <trkpt lat="49.02716" lon="1.05543">
        <ele>120.5</ele>
        <time>2014-09-28T15:36:43Z</time>
      </trkpt>
      <trkpt lat="49.02715" lon="1.05529">
        <ele>120.5</ele>
        <time>2014-09-28T15:36:46Z</time>
      </trkpt>
      <trkpt lat="49.02714" lon="1.05513">
        <ele>120.5</ele>
        <time>2014-09-28T15:36:48Z</time>
      </trkpt>
      <trkpt lat="49.02713" lon="1.055">
        <ele>120.5</ele>
        <time>2014-09-28T15:36:49Z</time>
      </trkpt>
      <trkpt lat="49.02712" lon="1.05485">
        <ele>120.5</ele>
        <time>2014-09-28T15:36:51Z</time>
      </trkpt>
      <trkpt lat="49.02709" lon="1.05471">
        <ele>121.5</ele>
        <time>2014-09-28T15:36:53Z</time>
      </trkpt>
      <trkpt lat="49.02707" lon="1.05458">
        <ele>120.5</ele>
        <time>2014-09-28T15:36:55Z</time>
      </trkpt>
      <trkpt lat="49.02707" lon="1.05444">
        <ele>119.5</ele>
        <time>2014-09-28T15:36:57Z</time>
      </trkpt>
      <trkpt lat="49.02706" lon="1.05428">
        <ele>120.5</ele>
        <time>2014-09-28T15:36:59Z</time>
      </trkpt>
      <trkpt lat="49.02705" lon="1.05413">
        <ele>120.5</ele>
        <time>2014-09-28T15:37:01Z</time>
      </trkpt>
      <trkpt lat="49.02705" lon="1.05398">
        <ele>120.5</ele>
        <time>2014-09-28T15:37:03Z</time>
      </trkpt>
      <trkpt lat="49.02705" lon="1.05384">
        <ele>121.5</ele>
        <time>2014-09-28T15:37:05Z</time>
      </trkpt>
      <trkpt lat="49.02705" lon="1.05369">
        <ele>121.5</ele>
        <time>2014-09-28T15:37:07Z</time>
      </trkpt>
      <trkpt lat="49.02705" lon="1.05353">
        <ele>122.5</ele>
        <time>2014-09-28T15:37:09Z</time>
      </trkpt>
      <trkpt lat="49.02704" lon="1.05339">
        <ele>121.5</ele>
        <time>2014-09-28T15:37:11Z</time>
      </trkpt>
      <trkpt lat="49.02704" lon="1.05324">
        <ele>121.5</ele>
        <time>2014-09-28T15:37:14Z</time>
      </trkpt>
      <trkpt lat="49.02703" lon="1.05309">
        <ele>121.5</ele>
        <time>2014-09-28T15:37:15Z</time>
      </trkpt>
      <trkpt lat="49.02703" lon="1.05297">
        <ele>120.5</ele>
        <time>2014-09-28T15:37:17Z</time>
      </trkpt>
      <trkpt lat="49.02702" lon="1.0528">
        <ele>120.5</ele>
        <time>2014-09-28T15:37:19Z</time>
      </trkpt>
      <trkpt lat="49.02701" lon="1.05264">
        <ele>120.5</ele>
        <time>2014-09-28T15:37:21Z</time>
      </trkpt>
      <trkpt lat="49.027" lon="1.0525">
        <ele>121.5</ele>
        <time>2014-09-28T15:37:23Z</time>
      </trkpt>
      <trkpt lat="49.02699" lon="1.05235">
        <ele>121.5</ele>
        <time>2014-09-28T15:37:25Z</time>
      </trkpt>
      <trkpt lat="49.02698" lon="1.05221">
        <ele>122.5</ele>
        <time>2014-09-28T15:37:27Z</time>
      </trkpt>
      <trkpt lat="49.02696" lon="1.05207">
        <ele>122.5</ele>
        <time>2014-09-28T15:37:29Z</time>
      </trkpt>
      <trkpt lat="49.02696" lon="1.05193">
        <ele>122.5</ele>
        <time>2014-09-28T15:37:31Z</time>
      </trkpt>
      <trkpt lat="49.02694" lon="1.05181">
        <ele>121.5</ele>
        <time>2014-09-28T15:37:33Z</time>
      </trkpt>
      <trkpt lat="49.02694" lon="1.05166">
        <ele>121.5</ele>
        <time>2014-09-28T15:37:35Z</time>
      </trkpt>
      <trkpt lat="49.02693" lon="1.05151">
        <ele>120.5</ele>
        <time>2014-09-28T15:37:37Z</time>
      </trkpt>
      <trkpt lat="49.02692" lon="1.05136">
        <ele>119.5</ele>
        <time>2014-09-28T15:37:39Z</time>
      </trkpt>
      <trkpt lat="49.02691" lon="1.05121">
        <ele>119.5</ele>
        <time>2014-09-28T15:37:41Z</time>
      </trkpt>
      <trkpt lat="49.02691" lon="1.05107">
        <ele>119.5</ele>
        <time>2014-09-28T15:37:43Z</time>
      </trkpt>
      <trkpt lat="49.02692" lon="1.05091">
        <ele>120.5</ele>
        <time>2014-09-28T15:37:47Z</time>
      </trkpt>
      <trkpt lat="49.02692" lon="1.05079">
        <ele>120.5</ele>
        <time>2014-09-28T15:37:49Z</time>
      </trkpt>
      <trkpt lat="49.02694" lon="1.05067">
        <ele>120.5</ele>
        <time>2014-09-28T15:37:50Z</time>
      </trkpt>
      <trkpt lat="49.02693" lon="1.05053">
        <ele>120.5</ele>
        <time>2014-09-28T15:37:52Z</time>
      </trkpt>
      <trkpt lat="49.02695" lon="1.0504">
        <ele>120.5</ele>
        <time>2014-09-28T15:37:54Z</time>
      </trkpt>
      <trkpt lat="49.02696" lon="1.05027">
        <ele>121.5</ele>
        <time>2014-09-28T15:37:57Z</time>
      </trkpt>
      <trkpt lat="49.02698" lon="1.05015">
        <ele>120.5</ele>
        <time>2014-09-28T15:37:58Z</time>
      </trkpt>
      <trkpt lat="49.02699" lon="1.05001">
        <ele>120.5</ele>
        <time>2014-09-28T15:38:01Z</time>
      </trkpt>
      <trkpt lat="49.027" lon="1.04988">
        <ele>120.5</ele>
        <time>2014-09-28T15:38:03Z</time>
      </trkpt>
      <trkpt lat="49.02702" lon="1.04976">
        <ele>121.5</ele>
        <time>2014-09-28T15:38:04Z</time>
      </trkpt>
      <trkpt lat="49.02705" lon="1.04964">
        <ele>121.5</ele>
        <time>2014-09-28T15:38:06Z</time>
      </trkpt>
      <trkpt lat="49.02706" lon="1.04952">
        <ele>120.5</ele>
        <time>2014-09-28T15:38:08Z</time>
      </trkpt>
      <trkpt lat="49.02707" lon="1.0494">
        <ele>120.5</ele>
        <time>2014-09-28T15:38:10Z</time>
      </trkpt>
      <trkpt lat="49.02708" lon="1.04928">
        <ele>120.5</ele>
        <time>2014-09-28T15:38:12Z</time>
      </trkpt>
      <trkpt lat="49.0271" lon="1.04917">
        <ele>122.5</ele>
        <time>2014-09-28T15:38:15Z</time>
      </trkpt>
      <trkpt lat="49.02712" lon="1.04905">
        <ele>122.5</ele>
        <time>2014-09-28T15:38:16Z</time>
      </trkpt>
      <trkpt lat="49.02714" lon="1.04895">
        <ele>122.5</ele>
        <time>2014-09-28T15:38:18Z</time>
      </trkpt>
      <trkpt lat="49.02716" lon="1.04883">
        <ele>122.5</ele>
        <time>2014-09-28T15:38:20Z</time>
      </trkpt>
      <trkpt lat="49.02718" lon="1.04872">
        <ele>122.5</ele>
        <time>2014-09-28T15:38:22Z</time>
      </trkpt>
      <trkpt lat="49.0272" lon="1.0486">
        <ele>122.5</ele>
        <time>2014-09-28T15:38:24Z</time>
      </trkpt>
      <trkpt lat="49.02724" lon="1.04849">
        <ele>123.5</ele>
        <time>2014-09-28T15:38:26Z</time>
      </trkpt>
      <trkpt lat="49.02729" lon="1.04838">
        <ele>123.5</ele>
        <time>2014-09-28T15:38:28Z</time>
      </trkpt>
      <trkpt lat="49.02732" lon="1.04826">
        <ele>125.5</ele>
        <time>2014-09-28T15:38:30Z</time>
      </trkpt>
      <trkpt lat="49.02736" lon="1.04811">
        <ele>125.5</ele>
        <time>2014-09-28T15:38:32Z</time>
      </trkpt>
      <trkpt lat="49.02739" lon="1.04799">
        <ele>125.5</ele>
        <time>2014-09-28T15:38:34Z</time>
      </trkpt>
      <trkpt lat="49.02741" lon="1.04785">
        <ele>125.5</ele>
        <time>2014-09-28T15:38:36Z</time>
      </trkpt>
      <trkpt lat="49.02741" lon="1.04772">
        <ele>125.5</ele>
        <time>2014-09-28T15:38:38Z</time>
      </trkpt>
      <trkpt lat="49.02738" lon="1.04759">
        <ele>125.5</ele>
        <time>2014-09-28T15:38:40Z</time>
      </trkpt>
      <trkpt lat="49.02733" lon="1.04747">
        <ele>126.5</ele>
        <time>2014-09-28T15:38:42Z</time>
      </trkpt>
      <trkpt lat="49.0273" lon="1.04735">
        <ele>127.5</ele>
        <time>2014-09-28T15:38:44Z</time>
      </trkpt>
      <trkpt lat="49.02722" lon="1.04729">
        <ele>127.5</ele>
        <time>2014-09-28T15:38:46Z</time>
      </trkpt>
      <trkpt lat="49.02712" lon="1.04726">
        <ele>126.5</ele>
        <time>2014-09-28T15:38:49Z</time>
      </trkpt>
      <trkpt lat="49.02703" lon="1.04726">
        <ele>125.5</ele>
        <time>2014-09-28T15:38:50Z</time>
      </trkpt>
      <trkpt lat="49.02696" lon="1.04725">
        <ele>124.5</ele>
        <time>2014-09-28T15:38:52Z</time>
      </trkpt>
      <trkpt lat="49.02685" lon="1.04722">
        <ele>122.5</ele>
        <time>2014-09-28T15:38:54Z</time>
      </trkpt>
      <trkpt lat="49.02677" lon="1.04721">
        <ele>122.5</ele>
        <time>2014-09-28T15:38:57Z</time>
      </trkpt>
      <trkpt lat="49.02669" lon="1.04723">
        <ele>123.5</ele>
        <time>2014-09-28T15:38:58Z</time>
      </trkpt>
      <trkpt lat="49.02662" lon="1.04724">
        <ele>124.5</ele>
        <time>2014-09-28T15:39:00Z</time>
      </trkpt>
      <trkpt lat="49.02655" lon="1.04727">
        <ele>124.5</ele>
        <time>2014-09-28T15:39:02Z</time>
      </trkpt>
      <trkpt lat="49.02644" lon="1.04729">
        <ele>124.5</ele>
        <time>2014-09-28T15:39:05Z</time>
      </trkpt>
      <trkpt lat="49.02636" lon="1.04732">
        <ele>123.5</ele>
        <time>2014-09-28T15:39:07Z</time>
      </trkpt>
      <trkpt lat="49.02629" lon="1.04737">
        <ele>122.5</ele>
        <time>2014-09-28T15:39:09Z</time>
      </trkpt>
      <trkpt lat="49.02621" lon="1.04744">
        <ele>121.5</ele>
        <time>2014-09-28T15:39:11Z</time>
      </trkpt>
      <trkpt lat="49.02614" lon="1.04751">
        <ele>120.5</ele>
        <time>2014-09-28T15:39:13Z</time>
      </trkpt>
      <trkpt lat="49.02604" lon="1.04761">
        <ele>121.5</ele>
        <time>2014-09-28T15:39:15Z</time>
      </trkpt>
      <trkpt lat="49.02594" lon="1.04764">
        <ele>126.5</ele>
        <time>2014-09-28T15:39:17Z</time>
      </trkpt>
      <trkpt lat="49.02585" lon="1.04771">
        <ele>125.5</ele>
        <time>2014-09-28T15:39:19Z</time>
      </trkpt>
      <trkpt lat="49.02575" lon="1.04775">
        <ele>126.5</ele>
        <time>2014-09-28T15:39:21Z</time>
      </trkpt>
      <trkpt lat="49.02565" lon="1.04781">
        <ele>127.5</ele>
        <time>2014-09-28T15:39:23Z</time>
      </trkpt>
      <trkpt lat="49.02556" lon="1.04783">
        <ele>128.5</ele>
        <time>2014-09-28T15:39:25Z</time>
      </trkpt>
      <trkpt lat="49.02547" lon="1.04785">
        <ele>129.5</ele>
        <time>2014-09-28T15:39:27Z</time>
      </trkpt>
      <trkpt lat="49.02538" lon="1.04789">
        <ele>131.5</ele>
        <time>2014-09-28T15:39:29Z</time>
      </trkpt>
      <trkpt lat="49.0253" lon="1.04791">
        <ele>131.5</ele>
        <time>2014-09-28T15:39:31Z</time>
      </trkpt>
      <trkpt lat="49.02522" lon="1.04795">
        <ele>132.5</ele>
        <time>2014-09-28T15:39:33Z</time>
      </trkpt>
      <trkpt lat="49.02515" lon="1.04799">
        <ele>131.5</ele>
        <time>2014-09-28T15:39:35Z</time>
      </trkpt>
      <trkpt lat="49.02505" lon="1.04806">
        <ele>132.5</ele>
        <time>2014-09-28T15:39:38Z</time>
      </trkpt>
      <trkpt lat="49.02496" lon="1.04812">
        <ele>131.5</ele>
        <time>2014-09-28T15:39:41Z</time>
      </trkpt>
      <trkpt lat="49.02487" lon="1.04817">
        <ele>131.5</ele>
        <time>2014-09-28T15:39:44Z</time>
      </trkpt>
      <trkpt lat="49.02478" lon="1.04818">
        <ele>132.5</ele>
        <time>2014-09-28T15:39:47Z</time>
      </trkpt>
      <trkpt lat="49.02468" lon="1.04819">
        <ele>133.5</ele>
        <time>2014-09-28T15:39:51Z</time>
      </trkpt>
      <trkpt lat="49.02459" lon="1.04818">
        <ele>134.5</ele>
        <time>2014-09-28T15:39:54Z</time>
      </trkpt>
      <trkpt lat="49.0245" lon="1.04818">
        <ele>135.5</ele>
        <time>2014-09-28T15:39:56Z</time>
      </trkpt>
      <trkpt lat="49.02441" lon="1.04817">
        <ele>135.5</ele>
        <time>2014-09-28T15:39:59Z</time>
      </trkpt>
      <trkpt lat="49.0243" lon="1.04817">
        <ele>135.5</ele>
        <time>2014-09-28T15:40:02Z</time>
      </trkpt>
      <trkpt lat="49.02423" lon="1.04816">
        <ele>134.5</ele>
        <time>2014-09-28T15:40:04Z</time>
      </trkpt>
      <trkpt lat="49.02416" lon="1.04814">
        <ele>135.5</ele>
        <time>2014-09-28T15:40:06Z</time>
      </trkpt>
      <trkpt lat="49.02408" lon="1.04813">
        <ele>133.5</ele>
        <time>2014-09-28T15:40:08Z</time>
      </trkpt>
      <trkpt lat="49.024" lon="1.04811">
        <ele>133.5</ele>
        <time>2014-09-28T15:40:10Z</time>
      </trkpt>
      <trkpt lat="49.02392" lon="1.04808">
        <ele>135.5</ele>
        <time>2014-09-28T15:40:12Z</time>
      </trkpt>
      <trkpt lat="49.02383" lon="1.04806">
        <ele>134.5</ele>
        <time>2014-09-28T15:40:14Z</time>
      </trkpt>
      <trkpt lat="49.02375" lon="1.04806">
        <ele>133.5</ele>
        <time>2014-09-28T15:40:16Z</time>
      </trkpt>
      <trkpt lat="49.02367" lon="1.04807">
        <ele>132.5</ele>
        <time>2014-09-28T15:40:18Z</time>
      </trkpt>
      <trkpt lat="49.0236" lon="1.04809">
        <ele>132.5</ele>
        <time>2014-09-28T15:40:20Z</time>
      </trkpt>
      <trkpt lat="49.02353" lon="1.04812">
        <ele>132.5</ele>
        <time>2014-09-28T15:40:22Z</time>
      </trkpt>
      <trkpt lat="49.02345" lon="1.04816">
        <ele>132.5</ele>
        <time>2014-09-28T15:40:24Z</time>
      </trkpt>
      <trkpt lat="49.02337" lon="1.0482">
        <ele>131.5</ele>
        <time>2014-09-28T15:40:26Z</time>
      </trkpt>
      <trkpt lat="49.02328" lon="1.04825">
        <ele>130.5</ele>
        <time>2014-09-28T15:40:28Z</time>
      </trkpt>
      <trkpt lat="49.02319" lon="1.04828">
        <ele>130.5</ele>
        <time>2014-09-28T15:40:30Z</time>
      </trkpt>
      <trkpt lat="49.02308" lon="1.04831">
        <ele>129.5</ele>
        <time>2014-09-28T15:40:32Z</time>
      </trkpt>
      <trkpt lat="49.02298" lon="1.04834">
        <ele>128.5</ele>
        <time>2014-09-28T15:40:34Z</time>
      </trkpt>
      <trkpt lat="49.02287" lon="1.04835">
        <ele>128.5</ele>
        <time>2014-09-28T15:40:36Z</time>
      </trkpt>
      <trkpt lat="49.02275" lon="1.04837">
        <ele>127.5</ele>
        <time>2014-09-28T15:40:38Z</time>
      </trkpt>
      <trkpt lat="49.02264" lon="1.04835">
        <ele>127.5</ele>
        <time>2014-09-28T15:40:40Z</time>
      </trkpt>
      <trkpt lat="49.02254" lon="1.04832">
        <ele>125.5</ele>
        <time>2014-09-28T15:40:42Z</time>
      </trkpt>
      <trkpt lat="49.02248" lon="1.04825">
        <ele>133.5</ele>
        <time>2014-09-28T15:41:13Z</time>
      </trkpt>
      <trkpt lat="49.02249" lon="1.04836">
        <ele>130.5</ele>
        <time>2014-09-28T15:42:07Z</time>
      </trkpt>
      <trkpt lat="49.02244" lon="1.04827">
        <ele>130.5</ele>
        <time>2014-09-28T15:43:42Z</time>
      </trkpt>
      <trkpt lat="49.02239" lon="1.04818">
        <ele>130.5</ele>
        <time>2014-09-28T15:43:43Z</time>
      </trkpt>
      <trkpt lat="49.02232" lon="1.04811">
        <ele>130.5</ele>
        <time>2014-09-28T15:43:46Z</time>
      </trkpt>
      <trkpt lat="49.02225" lon="1.04805">
        <ele>131.5</ele>
        <time>2014-09-28T15:43:48Z</time>
      </trkpt>
      <trkpt lat="49.02217" lon="1.048">
        <ele>131.5</ele>
        <time>2014-09-28T15:43:49Z</time>
      </trkpt>
      <trkpt lat="49.02209" lon="1.04797">
        <ele>130.5</ele>
        <time>2014-09-28T15:43:51Z</time>
      </trkpt>
      <trkpt lat="49.02201" lon="1.04793">
        <ele>129.5</ele>
        <time>2014-09-28T15:43:53Z</time>
      </trkpt>
      <trkpt lat="49.02195" lon="1.04787">
        <ele>129.5</ele>
        <time>2014-09-28T15:43:54Z</time>
      </trkpt>
      <trkpt lat="49.02187" lon="1.04785">
        <ele>130.5</ele>
        <time>2014-09-28T15:43:56Z</time>
      </trkpt>
      <trkpt lat="49.0218" lon="1.04781">
        <ele>130.5</ele>
        <time>2014-09-28T15:43:59Z</time>
      </trkpt>
      <trkpt lat="49.02173" lon="1.04785">
        <ele>131.5</ele>
        <time>2014-09-28T15:44:00Z</time>
      </trkpt>
      <trkpt lat="49.02165" lon="1.0478">
        <ele>134.5</ele>
        <time>2014-09-28T15:44:01Z</time>
      </trkpt>
      <trkpt lat="49.02157" lon="1.0478">
        <ele>134.5</ele>
        <time>2014-09-28T15:44:03Z</time>
      </trkpt>
      <trkpt lat="49.02145" lon="1.04775">
        <ele>133.5</ele>
        <time>2014-09-28T15:44:05Z</time>
      </trkpt>
      <trkpt lat="49.0213" lon="1.04777">
        <ele>130.5</ele>
        <time>2014-09-28T15:44:07Z</time>
      </trkpt>
      <trkpt lat="49.0212" lon="1.04777">
        <ele>129.5</ele>
        <time>2014-09-28T15:44:09Z</time>
      </trkpt>
      <trkpt lat="49.02108" lon="1.04777">
        <ele>129.5</ele>
        <time>2014-09-28T15:44:11Z</time>
      </trkpt>
      <trkpt lat="49.02099" lon="1.04774">
        <ele>127.5</ele>
        <time>2014-09-28T15:44:12Z</time>
      </trkpt>
      <trkpt lat="49.02091" lon="1.04766">
        <ele>127.5</ele>
        <time>2014-09-28T15:44:15Z</time>
      </trkpt>
      <trkpt lat="49.02081" lon="1.04761">
        <ele>128.5</ele>
        <time>2014-09-28T15:44:16Z</time>
      </trkpt>
      <trkpt lat="49.02067" lon="1.04756">
        <ele>127.5</ele>
        <time>2014-09-28T15:44:18Z</time>
      </trkpt>
      <trkpt lat="49.02056" lon="1.0475">
        <ele>128.5</ele>
        <time>2014-09-28T15:44:20Z</time>
      </trkpt>
      <trkpt lat="49.02047" lon="1.04741">
        <ele>129.5</ele>
        <time>2014-09-28T15:44:22Z</time>
      </trkpt>
      <trkpt lat="49.0204" lon="1.04728">
        <ele>130.5</ele>
        <time>2014-09-28T15:44:24Z</time>
      </trkpt>
      <trkpt lat="49.02032" lon="1.04715">
        <ele>129.5</ele>
        <time>2014-09-28T15:44:26Z</time>
      </trkpt>
      <trkpt lat="49.0202" lon="1.04704">
        <ele>128.5</ele>
        <time>2014-09-28T15:44:28Z</time>
      </trkpt>
      <trkpt lat="49.02013" lon="1.04704">
        <ele>126.5</ele>
        <time>2014-09-28T15:44:29Z</time>
      </trkpt>
      <trkpt lat="49.02003" lon="1.04693">
        <ele>126.5</ele>
        <time>2014-09-28T15:44:31Z</time>
      </trkpt>
      <trkpt lat="49.01993" lon="1.04679">
        <ele>124.5</ele>
        <time>2014-09-28T15:44:33Z</time>
      </trkpt>
      <trkpt lat="49.01983" lon="1.04669">
        <ele>124.5</ele>
        <time>2014-09-28T15:44:36Z</time>
      </trkpt>
      <trkpt lat="49.01974" lon="1.04664">
        <ele>123.5</ele>
        <time>2014-09-28T15:44:36Z</time>
      </trkpt>
      <trkpt lat="49.01966" lon="1.0466">
        <ele>121.5</ele>
        <time>2014-09-28T15:44:38Z</time>
      </trkpt>
      <trkpt lat="49.01959" lon="1.04656">
        <ele>120.5</ele>
        <time>2014-09-28T15:44:39Z</time>
      </trkpt>
      <trkpt lat="49.01946" lon="1.0465">
        <ele>119.5</ele>
        <time>2014-09-28T15:44:40Z</time>
      </trkpt>
      <trkpt lat="49.01934" lon="1.04641">
        <ele>118.5</ele>
        <time>2014-09-28T15:44:42Z</time>
      </trkpt>
      <trkpt lat="49.01924" lon="1.04629">
        <ele>118.5</ele>
        <time>2014-09-28T15:44:45Z</time>
      </trkpt>
      <trkpt lat="49.01915" lon="1.04614">
        <ele>118.5</ele>
        <time>2014-09-28T15:44:46Z</time>
      </trkpt>
      <trkpt lat="49.01905" lon="1.04605">
        <ele>117.5</ele>
        <time>2014-09-28T15:44:47Z</time>
      </trkpt>
      <trkpt lat="49.00763" lon="1.04581">
        <ele>109.5</ele>
        <time>2014-09-28T15:50:57Z</time>
      </trkpt>
      <trkpt lat="49.0077" lon="1.04576">
        <ele>108.5</ele>
        <time>2014-09-28T15:50:59Z</time>
      </trkpt>
      <trkpt lat="49.00779" lon="1.0458">
        <ele>115.5</ele>
        <time>2014-09-28T15:53:00Z</time>
      </trkpt>
      <trkpt lat="49.00788" lon="1.04575">
        <ele>114.5</ele>
        <time>2014-09-28T15:53:03Z</time>
      </trkpt>
      <trkpt lat="49.00794" lon="1.04565">
        <ele>114.5</ele>
        <time>2014-09-28T15:53:05Z</time>
      </trkpt>
      <trkpt lat="49.00797" lon="1.04547">
        <ele>113.5</ele>
        <time>2014-09-28T15:53:06Z</time>
      </trkpt>
      <trkpt lat="49.008" lon="1.0453">
        <ele>113.5</ele>
        <time>2014-09-28T15:53:08Z</time>
      </trkpt>
      <trkpt lat="49.00802" lon="1.04511">
        <ele>112.5</ele>
        <time>2014-09-28T15:53:11Z</time>
      </trkpt>
      <trkpt lat="49.00803" lon="1.04493">
        <ele>112.5</ele>
        <time>2014-09-28T15:53:12Z</time>
      </trkpt>
      <trkpt lat="49.00798" lon="1.04471">
        <ele>109.5</ele>
        <time>2014-09-28T15:53:14Z</time>
      </trkpt>
      <trkpt lat="49.00797" lon="1.04459">
        <ele>108.5</ele>
        <time>2014-09-28T15:53:15Z</time>
      </trkpt>
      <trkpt lat="49.00794" lon="1.04447">
        <ele>106.5</ele>
        <time>2014-09-28T15:53:16Z</time>
      </trkpt>
      <trkpt lat="49.00791" lon="1.04435">
        <ele>105.5</ele>
        <time>2014-09-28T15:53:17Z</time>
      </trkpt>
      <trkpt lat="49.00786" lon="1.04424">
        <ele>105.5</ele>
        <time>2014-09-28T15:53:19Z</time>
      </trkpt>
      <trkpt lat="49.00783" lon="1.04414">
        <ele>104.5</ele>
        <time>2014-09-28T15:53:20Z</time>
      </trkpt>
      <trkpt lat="49.0078" lon="1.04398">
        <ele>103.5</ele>
        <time>2014-09-28T15:53:21Z</time>
      </trkpt>
      <trkpt lat="49.00775" lon="1.04387">
        <ele>102.5</ele>
        <time>2014-09-28T15:53:24Z</time>
      </trkpt>
      <trkpt lat="49.00769" lon="1.04381">
        <ele>103.5</ele>
        <time>2014-09-28T15:53:27Z</time>
      </trkpt>
      <trkpt lat="49.00759" lon="1.04381">
        <ele>106.5</ele>
        <time>2014-09-28T15:53:31Z</time>
      </trkpt>
      <trkpt lat="49.0075" lon="1.04381">
        <ele>104.5</ele>
        <time>2014-09-28T15:53:33Z</time>
      </trkpt>
      <trkpt lat="49.00742" lon="1.04382">
        <ele>106.5</ele>
        <time>2014-09-28T15:53:36Z</time>
      </trkpt>
      <trkpt lat="49.00735" lon="1.04382">
        <ele>107.5</ele>
        <time>2014-09-28T15:53:39Z</time>
      </trkpt>
      <trkpt lat="49.00727" lon="1.04384">
        <ele>107.5</ele>
        <time>2014-09-28T15:53:42Z</time>
      </trkpt>
      <trkpt lat="49.00718" lon="1.04386">
        <ele>105.5</ele>
        <time>2014-09-28T15:53:45Z</time>
      </trkpt>
      <trkpt lat="49.00709" lon="1.04388">
        <ele>106.5</ele>
        <time>2014-09-28T15:53:48Z</time>
      </trkpt>
      <trkpt lat="49.007" lon="1.04389">
        <ele>110.5</ele>
        <time>2014-09-28T15:53:51Z</time>
      </trkpt>
      <trkpt lat="49.00692" lon="1.04389">
        <ele>112.5</ele>
        <time>2014-09-28T15:53:55Z</time>
      </trkpt>
      <trkpt lat="49.00683" lon="1.04388">
        <ele>114.5</ele>
        <time>2014-09-28T15:53:58Z</time>
      </trkpt>
      <trkpt lat="49.00675" lon="1.04385">
        <ele>112.5</ele>
        <time>2014-09-28T15:54:01Z</time>
      </trkpt>
      <trkpt lat="49.00666" lon="1.04382">
        <ele>113.5</ele>
        <time>2014-09-28T15:54:05Z</time>
      </trkpt>
      <trkpt lat="49.00657" lon="1.04379">
        <ele>113.5</ele>
        <time>2014-09-28T15:54:08Z</time>
      </trkpt>
      <trkpt lat="49.00647" lon="1.04377">
        <ele>114.5</ele>
        <time>2014-09-28T15:54:10Z</time>
      </trkpt>
      <trkpt lat="49.00637" lon="1.04373">
        <ele>114.5</ele>
        <time>2014-09-28T15:54:14Z</time>
      </trkpt>
      <trkpt lat="49.00627" lon="1.0437">
        <ele>114.5</ele>
        <time>2014-09-28T15:54:17Z</time>
      </trkpt>
      <trkpt lat="49.00618" lon="1.04368">
        <ele>114.5</ele>
        <time>2014-09-28T15:54:19Z</time>
      </trkpt>
      <trkpt lat="49.00609" lon="1.04367">
        <ele>114.5</ele>
        <time>2014-09-28T15:54:23Z</time>
      </trkpt>
      <trkpt lat="49.006" lon="1.04367">
        <ele>115.5</ele>
        <time>2014-09-28T15:54:25Z</time>
      </trkpt>
      <trkpt lat="49.00592" lon="1.04368">
        <ele>116.5</ele>
        <time>2014-09-28T15:54:28Z</time>
      </trkpt>
      <trkpt lat="49.00583" lon="1.04368">
        <ele>117.5</ele>
        <time>2014-09-28T15:54:32Z</time>
      </trkpt>
      <trkpt lat="49.00574" lon="1.04369">
        <ele>117.5</ele>
        <time>2014-09-28T15:54:34Z</time>
      </trkpt>
      <trkpt lat="49.00565" lon="1.04369">
        <ele>118.5</ele>
        <time>2014-09-28T15:54:38Z</time>
      </trkpt>
      <trkpt lat="49.00556" lon="1.0437">
        <ele>118.5</ele>
        <time>2014-09-28T15:54:40Z</time>
      </trkpt>
      <trkpt lat="49.00547" lon="1.0437">
        <ele>119.5</ele>
        <time>2014-09-28T15:54:44Z</time>
      </trkpt>
      <trkpt lat="49.00539" lon="1.04371">
        <ele>119.5</ele>
        <time>2014-09-28T15:54:47Z</time>
      </trkpt>
      <trkpt lat="49.0053" lon="1.04371">
        <ele>120.5</ele>
        <time>2014-09-28T15:54:50Z</time>
      </trkpt>
      <trkpt lat="49.00521" lon="1.04371">
        <ele>120.5</ele>
        <time>2014-09-28T15:54:53Z</time>
      </trkpt>
      <trkpt lat="49.00513" lon="1.0437">
        <ele>119.5</ele>
        <time>2014-09-28T15:54:55Z</time>
      </trkpt>
      <trkpt lat="49.00505" lon="1.0437">
        <ele>120.5</ele>
        <time>2014-09-28T15:54:58Z</time>
      </trkpt>
      <trkpt lat="49.00497" lon="1.04369">
        <ele>120.5</ele>
        <time>2014-09-28T15:55:01Z</time>
      </trkpt>
      <trkpt lat="49.00488" lon="1.04368">
        <ele>122.5</ele>
        <time>2014-09-28T15:55:04Z</time>
      </trkpt>
      <trkpt lat="49.0048" lon="1.04367">
        <ele>122.5</ele>
        <time>2014-09-28T15:55:08Z</time>
      </trkpt>
      <trkpt lat="49.00472" lon="1.04366">
        <ele>122.5</ele>
        <time>2014-09-28T15:55:10Z</time>
      </trkpt>
      <trkpt lat="49.00463" lon="1.04366">
        <ele>122.5</ele>
        <time>2014-09-28T15:55:14Z</time>
      </trkpt>
      <trkpt lat="49.00454" lon="1.04365">
        <ele>123.5</ele>
        <time>2014-09-28T15:55:17Z</time>
      </trkpt>
      <trkpt lat="49.00445" lon="1.04364">
        <ele>122.5</ele>
        <time>2014-09-28T15:55:19Z</time>
      </trkpt>
      <trkpt lat="49.00437" lon="1.04365">
        <ele>122.5</ele>
        <time>2014-09-28T15:55:22Z</time>
      </trkpt>
      <trkpt lat="49.00428" lon="1.04366">
        <ele>122.5</ele>
        <time>2014-09-28T15:55:26Z</time>
      </trkpt>
      <trkpt lat="49.00421" lon="1.04367">
        <ele>122.5</ele>
        <time>2014-09-28T15:55:28Z</time>
      </trkpt>
      <trkpt lat="49.00413" lon="1.04367">
        <ele>122.5</ele>
        <time>2014-09-28T15:55:31Z</time>
      </trkpt>
      <trkpt lat="49.00405" lon="1.04368">
        <ele>123.5</ele>
        <time>2014-09-28T15:55:34Z</time>
      </trkpt>
      <trkpt lat="49.00396" lon="1.04369">
        <ele>124.5</ele>
        <time>2014-09-28T15:55:37Z</time>
      </trkpt>
      <trkpt lat="49.00388" lon="1.0437">
        <ele>125.5</ele>
        <time>2014-09-28T15:55:40Z</time>
      </trkpt>
      <trkpt lat="49.00381" lon="1.04372">
        <ele>125.5</ele>
        <time>2014-09-28T15:55:43Z</time>
      </trkpt>
      <trkpt lat="49.00373" lon="1.04373">
        <ele>125.5</ele>
        <time>2014-09-28T15:55:44Z</time>
      </trkpt>
      <trkpt lat="49.00366" lon="1.04374">
        <ele>124.5</ele>
        <time>2014-09-28T15:55:46Z</time>
      </trkpt>
      <trkpt lat="49.00355" lon="1.04376">
        <ele>124.5</ele>
        <time>2014-09-28T15:55:49Z</time>
      </trkpt>
      <trkpt lat="49.00346" lon="1.04377">
        <ele>125.5</ele>
        <time>2014-09-28T15:55:53Z</time>
      </trkpt>
      <trkpt lat="49.00337" lon="1.04379">
        <ele>124.5</ele>
        <time>2014-09-28T15:55:55Z</time>
      </trkpt>
      <trkpt lat="49.00329" lon="1.0438">
        <ele>123.5</ele>
        <time>2014-09-28T15:55:58Z</time>
      </trkpt>
      <trkpt lat="49.00321" lon="1.04382">
        <ele>124.5</ele>
        <time>2014-09-28T15:56:02Z</time>
      </trkpt>
      <trkpt lat="49.00313" lon="1.04384">
        <ele>125.5</ele>
        <time>2014-09-28T15:56:04Z</time>
      </trkpt>
      <trkpt lat="49.00305" lon="1.04386">
        <ele>125.5</ele>
        <time>2014-09-28T15:56:08Z</time>
      </trkpt>
      <trkpt lat="49.00296" lon="1.04387">
        <ele>125.5</ele>
        <time>2014-09-28T15:56:10Z</time>
      </trkpt>
      <trkpt lat="49.00288" lon="1.04389">
        <ele>125.5</ele>
        <time>2014-09-28T15:56:14Z</time>
      </trkpt>
      <trkpt lat="49.00279" lon="1.04391">
        <ele>125.5</ele>
        <time>2014-09-28T15:56:17Z</time>
      </trkpt>
      <trkpt lat="49.00271" lon="1.04393">
        <ele>125.5</ele>
        <time>2014-09-28T15:56:19Z</time>
      </trkpt>
      <trkpt lat="49.00262" lon="1.04395">
        <ele>124.5</ele>
        <time>2014-09-28T15:56:23Z</time>
      </trkpt>
      <trkpt lat="49.00253" lon="1.04397">
        <ele>124.5</ele>
        <time>2014-09-28T15:56:25Z</time>
      </trkpt>
      <trkpt lat="49.00245" lon="1.04398">
        <ele>124.5</ele>
        <time>2014-09-28T15:56:28Z</time>
      </trkpt>
      <trkpt lat="49.00236" lon="1.044">
        <ele>123.5</ele>
        <time>2014-09-28T15:56:32Z</time>
      </trkpt>
      <trkpt lat="49.00227" lon="1.04403">
        <ele>124.5</ele>
        <time>2014-09-28T15:56:35Z</time>
      </trkpt>
      <trkpt lat="49.0022" lon="1.04405">
        <ele>123.5</ele>
        <time>2014-09-28T15:56:36Z</time>
      </trkpt>
      <trkpt lat="49.00212" lon="1.04407">
        <ele>123.5</ele>
        <time>2014-09-28T15:56:39Z</time>
      </trkpt>
      <trkpt lat="49.00204" lon="1.04409">
        <ele>125.5</ele>
        <time>2014-09-28T15:56:40Z</time>
      </trkpt>
      <trkpt lat="49.00196" lon="1.04411">
        <ele>124.5</ele>
        <time>2014-09-28T15:56:42Z</time>
      </trkpt>
      <trkpt lat="49.00187" lon="1.04413">
        <ele>124.5</ele>
        <time>2014-09-28T15:56:44Z</time>
      </trkpt>
      <trkpt lat="49.00179" lon="1.04415">
        <ele>124.5</ele>
        <time>2014-09-28T15:56:47Z</time>
      </trkpt>
      <trkpt lat="49.0017" lon="1.04418">
        <ele>123.5</ele>
        <time>2014-09-28T15:56:48Z</time>
      </trkpt>
      <trkpt lat="49.00162" lon="1.0442">
        <ele>123.5</ele>
        <time>2014-09-28T15:56:50Z</time>
      </trkpt>
      <trkpt lat="49.00154" lon="1.04422">
        <ele>122.5</ele>
        <time>2014-09-28T15:56:52Z</time>
      </trkpt>
      <trkpt lat="49.00147" lon="1.04424">
        <ele>123.5</ele>
        <time>2014-09-28T15:56:54Z</time>
      </trkpt>
      <trkpt lat="49.00139" lon="1.04425">
        <ele>124.5</ele>
        <time>2014-09-28T15:56:56Z</time>
      </trkpt>
      <trkpt lat="49.00132" lon="1.04427">
        <ele>125.5</ele>
        <time>2014-09-28T15:56:58Z</time>
      </trkpt>
      <trkpt lat="49.00124" lon="1.04428">
        <ele>124.5</ele>
        <time>2014-09-28T15:57:05Z</time>
      </trkpt>
      <trkpt lat="49.00113" lon="1.04431">
        <ele>123.5</ele>
        <time>2014-09-28T15:57:08Z</time>
      </trkpt>
      <trkpt lat="49.00102" lon="1.04436">
        <ele>123.5</ele>
        <time>2014-09-28T15:57:10Z</time>
      </trkpt>
      <trkpt lat="49.00095" lon="1.04439">
        <ele>123.5</ele>
        <time>2014-09-28T15:57:13Z</time>
      </trkpt>
      <trkpt lat="49.00088" lon="1.04442">
        <ele>123.5</ele>
        <time>2014-09-28T15:57:14Z</time>
      </trkpt>
      <trkpt lat="49.00081" lon="1.04445">
        <ele>123.5</ele>
        <time>2014-09-28T15:57:17Z</time>
      </trkpt>
      <trkpt lat="49.00074" lon="1.04448">
        <ele>123.5</ele>
        <time>2014-09-28T15:57:19Z</time>
      </trkpt>
      <trkpt lat="49.00064" lon="1.04452">
        <ele>124.5</ele>
        <time>2014-09-28T15:57:21Z</time>
      </trkpt>
      <trkpt lat="49.00055" lon="1.04456">
        <ele>124.5</ele>
        <time>2014-09-28T15:57:24Z</time>
      </trkpt>
      <trkpt lat="49.00046" lon="1.0446">
        <ele>124.5</ele>
        <time>2014-09-28T15:57:27Z</time>
      </trkpt>
      <trkpt lat="49.00036" lon="1.04464">
        <ele>125.5</ele>
        <time>2014-09-28T15:57:31Z</time>
      </trkpt>
      <trkpt lat="49.00025" lon="1.04467">
        <ele>124.5</ele>
        <time>2014-09-28T15:57:34Z</time>
      </trkpt>
      <trkpt lat="49.00015" lon="1.0447">
        <ele>125.5</ele>
        <time>2014-09-28T15:57:37Z</time>
      </trkpt>
      <trkpt lat="49.00005" lon="1.04474">
        <ele>125.5</ele>
        <time>2014-09-28T15:57:40Z</time>
      </trkpt>
      <trkpt lat="48.99995" lon="1.04478">
        <ele>125.5</ele>
        <time>2014-09-28T15:57:42Z</time>
      </trkpt>
      <trkpt lat="48.99986" lon="1.0448">
        <ele>126.5</ele>
        <time>2014-09-28T15:57:45Z</time>
      </trkpt>
      <trkpt lat="48.99977" lon="1.0448">
        <ele>126.5</ele>
        <time>2014-09-28T15:57:49Z</time>
      </trkpt>
      <trkpt lat="48.99969" lon="1.04476">
        <ele>126.5</ele>
        <time>2014-09-28T15:57:51Z</time>
      </trkpt>
      <trkpt lat="48.99959" lon="1.04471">
        <ele>126.5</ele>
        <time>2014-09-28T15:57:54Z</time>
      </trkpt>
      <trkpt lat="48.9995" lon="1.04467">
        <ele>128.5</ele>
        <time>2014-09-28T15:57:57Z</time>
      </trkpt>
      <trkpt lat="48.9994" lon="1.04461">
        <ele>129.5</ele>
        <time>2014-09-28T15:58:00Z</time>
      </trkpt>
      <trkpt lat="48.99931" lon="1.04454">
        <ele>129.5</ele>
        <time>2014-09-28T15:58:03Z</time>
      </trkpt>
      <trkpt lat="48.99921" lon="1.04449">
        <ele>129.5</ele>
        <time>2014-09-28T15:58:07Z</time>
      </trkpt>
      <trkpt lat="48.99914" lon="1.04446">
        <ele>128.5</ele>
        <time>2014-09-28T15:58:08Z</time>
      </trkpt>
      <trkpt lat="48.99906" lon="1.04442">
        <ele>127.5</ele>
        <time>2014-09-28T15:58:10Z</time>
      </trkpt>
      <trkpt lat="48.99898" lon="1.04439">
        <ele>125.5</ele>
        <time>2014-09-28T15:58:12Z</time>
      </trkpt>
      <trkpt lat="48.99885" lon="1.04433">
        <ele>125.5</ele>
        <time>2014-09-28T15:58:14Z</time>
      </trkpt>
      <trkpt lat="48.99876" lon="1.04429">
        <ele>125.5</ele>
        <time>2014-09-28T15:58:16Z</time>
      </trkpt>
      <trkpt lat="48.99867" lon="1.04423">
        <ele>126.5</ele>
        <time>2014-09-28T15:58:18Z</time>
      </trkpt>
      <trkpt lat="48.99858" lon="1.04415">
        <ele>124.5</ele>
        <time>2014-09-28T15:58:20Z</time>
      </trkpt>
      <trkpt lat="48.99846" lon="1.04405">
        <ele>124.5</ele>
        <time>2014-09-28T15:58:22Z</time>
      </trkpt>
      <trkpt lat="48.99836" lon="1.04396">
        <ele>123.5</ele>
        <time>2014-09-28T15:58:24Z</time>
      </trkpt>
      <trkpt lat="48.99829" lon="1.04388">
        <ele>125.5</ele>
        <time>2014-09-28T15:58:26Z</time>
      </trkpt>
      <trkpt lat="48.9982" lon="1.04382">
        <ele>125.5</ele>
        <time>2014-09-28T15:58:28Z</time>
      </trkpt>
      <trkpt lat="48.99812" lon="1.04373">
        <ele>125.5</ele>
        <time>2014-09-28T15:58:30Z</time>
      </trkpt>
      <trkpt lat="48.99804" lon="1.04367">
        <ele>123.5</ele>
        <time>2014-09-28T15:58:32Z</time>
      </trkpt>
      <trkpt lat="48.99796" lon="1.0436">
        <ele>124.5</ele>
        <time>2014-09-28T15:58:34Z</time>
      </trkpt>
      <trkpt lat="48.99784" lon="1.04353">
        <ele>127.5</ele>
        <time>2014-09-28T15:58:36Z</time>
      </trkpt>
      <trkpt lat="48.99778" lon="1.04344">
        <ele>125.5</ele>
        <time>2014-09-28T15:58:37Z</time>
      </trkpt>
      <trkpt lat="48.99772" lon="1.04335">
        <ele>124.5</ele>
        <time>2014-09-28T15:58:38Z</time>
      </trkpt>
      <trkpt lat="48.99765" lon="1.04326">
        <ele>122.5</ele>
        <time>2014-09-28T15:58:39Z</time>
      </trkpt>
      <trkpt lat="48.99755" lon="1.04311">
        <ele>120.5</ele>
        <time>2014-09-28T15:58:41Z</time>
      </trkpt>
      <trkpt lat="48.99748" lon="1.04304">
        <ele>119.5</ele>
        <time>2014-09-28T15:58:42Z</time>
      </trkpt>
      <trkpt lat="48.99742" lon="1.04297">
        <ele>117.5</ele>
        <time>2014-09-28T15:58:43Z</time>
      </trkpt>
      <trkpt lat="48.99736" lon="1.04289">
        <ele>117.5</ele>
        <time>2014-09-28T15:58:44Z</time>
      </trkpt>
      <trkpt lat="48.9973" lon="1.04279">
        <ele>116.5</ele>
        <time>2014-09-28T15:58:45Z</time>
      </trkpt>
      <trkpt lat="48.99723" lon="1.04268">
        <ele>113.5</ele>
        <time>2014-09-28T15:58:46Z</time>
      </trkpt>
      <trkpt lat="48.99718" lon="1.04258">
        <ele>111.5</ele>
        <time>2014-09-28T15:58:47Z</time>
      </trkpt>
      <trkpt lat="48.99714" lon="1.04249">
        <ele>108.5</ele>
        <time>2014-09-28T15:58:48Z</time>
      </trkpt>
      <trkpt lat="48.99709" lon="1.04239">
        <ele>107.5</ele>
        <time>2014-09-28T15:58:49Z</time>
      </trkpt>
      <trkpt lat="48.99701" lon="1.04232">
        <ele>105.5</ele>
        <time>2014-09-28T15:58:50Z</time>
      </trkpt>
      <trkpt lat="48.99696" lon="1.04223">
        <ele>102.5</ele>
        <time>2014-09-28T15:58:51Z</time>
      </trkpt>
      <trkpt lat="48.99689" lon="1.04215">
        <ele>101.5</ele>
        <time>2014-09-28T15:58:52Z</time>
      </trkpt>
      <trkpt lat="48.99678" lon="1.04203">
        <ele>100.5</ele>
        <time>2014-09-28T15:58:54Z</time>
      </trkpt>
      <trkpt lat="48.99667" lon="1.04194">
        <ele>96.5</ele>
        <time>2014-09-28T15:58:56Z</time>
      </trkpt>
      <trkpt lat="48.9966" lon="1.04191">
        <ele>95.5</ele>
        <time>2014-09-28T15:58:57Z</time>
      </trkpt>
      <trkpt lat="48.99653" lon="1.04188">
        <ele>95.5</ele>
        <time>2014-09-28T15:58:58Z</time>
      </trkpt>
      <trkpt lat="48.99645" lon="1.04184">
        <ele>94.5</ele>
        <time>2014-09-28T15:58:59Z</time>
      </trkpt>
      <trkpt lat="48.99636" lon="1.04184">
        <ele>93.5</ele>
        <time>2014-09-28T15:59:00Z</time>
      </trkpt>
      <trkpt lat="48.99628" lon="1.04182">
        <ele>93.5</ele>
        <time>2014-09-28T15:59:01Z</time>
      </trkpt>
      <trkpt lat="48.99621" lon="1.04179">
        <ele>92.5</ele>
        <time>2014-09-28T15:59:02Z</time>
      </trkpt>
      <trkpt lat="48.99609" lon="1.04176">
        <ele>89.5</ele>
        <time>2014-09-28T15:59:04Z</time>
      </trkpt>
      <trkpt lat="48.99601" lon="1.04174">
        <ele>88.5</ele>
        <time>2014-09-28T15:59:08Z</time>
      </trkpt>
      <trkpt lat="48.99593" lon="1.04168">
        <ele>84.5</ele>
        <time>2014-09-28T15:59:24Z</time>
      </trkpt>
      <trkpt lat="48.99585" lon="1.04162">
        <ele>83.5</ele>
        <time>2014-09-28T15:59:27Z</time>
      </trkpt>
      <trkpt lat="48.99578" lon="1.04159">
        <ele>85.5</ele>
        <time>2014-09-28T15:59:30Z</time>
      </trkpt>
      <trkpt lat="48.99568" lon="1.04157">
        <ele>85.5</ele>
        <time>2014-09-28T15:59:33Z</time>
      </trkpt>
      <trkpt lat="48.99561" lon="1.04155">
        <ele>85.5</ele>
        <time>2014-09-28T15:59:35Z</time>
      </trkpt>
      <trkpt lat="48.99552" lon="1.04152">
        <ele>84.5</ele>
        <time>2014-09-28T15:59:37Z</time>
      </trkpt>
      <trkpt lat="48.99544" lon="1.0415">
        <ele>82.5</ele>
        <time>2014-09-28T15:59:39Z</time>
      </trkpt>
      <trkpt lat="48.99532" lon="1.04146">
        <ele>81.5</ele>
        <time>2014-09-28T15:59:41Z</time>
      </trkpt>
      <trkpt lat="48.99523" lon="1.04141">
        <ele>81.5</ele>
        <time>2014-09-28T15:59:43Z</time>
      </trkpt>
      <trkpt lat="48.99512" lon="1.04139">
        <ele>81.5</ele>
        <time>2014-09-28T15:59:45Z</time>
      </trkpt>
      <trkpt lat="48.995" lon="1.04136">
        <ele>82.5</ele>
        <time>2014-09-28T15:59:47Z</time>
      </trkpt>
      <trkpt lat="48.99489" lon="1.04133">
        <ele>82.5</ele>
        <time>2014-09-28T15:59:49Z</time>
      </trkpt>
      <trkpt lat="48.99478" lon="1.0413">
        <ele>79.5</ele>
        <time>2014-09-28T15:59:51Z</time>
      </trkpt>
      <trkpt lat="48.99466" lon="1.04126">
        <ele>78.5</ele>
        <time>2014-09-28T15:59:53Z</time>
      </trkpt>
      <trkpt lat="48.99454" lon="1.04123">
        <ele>77.5</ele>
        <time>2014-09-28T15:59:56Z</time>
      </trkpt>
      <trkpt lat="48.99443" lon="1.0412">
        <ele>76.5</ele>
        <time>2014-09-28T15:59:58Z</time>
      </trkpt>
      <trkpt lat="48.99433" lon="1.04116">
        <ele>76.5</ele>
        <time>2014-09-28T15:59:59Z</time>
      </trkpt>
      <trkpt lat="48.99423" lon="1.04114">
        <ele>76.5</ele>
        <time>2014-09-28T16:00:01Z</time>
      </trkpt>
      <trkpt lat="48.99413" lon="1.04112">
        <ele>75.5</ele>
        <time>2014-09-28T16:00:03Z</time>
      </trkpt>
      <trkpt lat="48.99404" lon="1.04111">
        <ele>75.5</ele>
        <time>2014-09-28T16:00:05Z</time>
      </trkpt>
      <trkpt lat="48.99395" lon="1.04109">
        <ele>74.5</ele>
        <time>2014-09-28T16:00:07Z</time>
      </trkpt>
      <trkpt lat="48.99386" lon="1.04107">
        <ele>75.5</ele>
        <time>2014-09-28T16:00:09Z</time>
      </trkpt>
      <trkpt lat="48.99376" lon="1.04104">
        <ele>77.5</ele>
        <time>2014-09-28T16:00:11Z</time>
      </trkpt>
      <trkpt lat="48.99367" lon="1.04101">
        <ele>76.5</ele>
        <time>2014-09-28T16:00:13Z</time>
      </trkpt>
      <trkpt lat="48.99359" lon="1.04097">
        <ele>77.5</ele>
        <time>2014-09-28T16:00:15Z</time>
      </trkpt>
      <trkpt lat="48.9935" lon="1.04095">
        <ele>77.5</ele>
        <time>2014-09-28T16:00:17Z</time>
      </trkpt>
      <trkpt lat="48.9934" lon="1.04093">
        <ele>77.5</ele>
        <time>2014-09-28T16:00:19Z</time>
      </trkpt>
      <trkpt lat="48.99332" lon="1.04092">
        <ele>77.5</ele>
        <time>2014-09-28T16:00:22Z</time>
      </trkpt>
      <trkpt lat="48.99324" lon="1.0409">
        <ele>77.5</ele>
        <time>2014-09-28T16:00:25Z</time>
      </trkpt>
      <trkpt lat="48.99317" lon="1.04083">
        <ele>76.5</ele>
        <time>2014-09-28T16:01:21Z</time>
      </trkpt>
      <trkpt lat="48.99309" lon="1.04077">
        <ele>78.5</ele>
        <time>2014-09-28T16:01:24Z</time>
      </trkpt>
      <trkpt lat="48.99299" lon="1.04074">
        <ele>79.5</ele>
        <time>2014-09-28T16:01:27Z</time>
      </trkpt>
      <trkpt lat="48.99292" lon="1.04068">
        <ele>76.5</ele>
        <time>2014-09-28T16:01:29Z</time>
      </trkpt>
      <trkpt lat="48.99285" lon="1.04059">
        <ele>75.5</ele>
        <time>2014-09-28T16:01:31Z</time>
      </trkpt>
      <trkpt lat="48.99277" lon="1.0405">
        <ele>75.5</ele>
        <time>2014-09-28T16:01:33Z</time>
      </trkpt>
      <trkpt lat="48.9927" lon="1.04043">
        <ele>76.5</ele>
        <time>2014-09-28T16:01:35Z</time>
      </trkpt>
      <trkpt lat="48.99263" lon="1.04035">
        <ele>75.5</ele>
        <time>2014-09-28T16:01:37Z</time>
      </trkpt>
      <trkpt lat="48.99257" lon="1.04027">
        <ele>75.5</ele>
        <time>2014-09-28T16:01:39Z</time>
      </trkpt>
      <trkpt lat="48.9925" lon="1.04019">
        <ele>74.5</ele>
        <time>2014-09-28T16:01:41Z</time>
      </trkpt>
      <trkpt lat="48.99241" lon="1.04006">
        <ele>74.5</ele>
        <time>2014-09-28T16:01:43Z</time>
      </trkpt>
      <trkpt lat="48.99235" lon="1.03997">
        <ele>75.5</ele>
        <time>2014-09-28T16:01:46Z</time>
      </trkpt>
      <trkpt lat="48.99228" lon="1.03989">
        <ele>75.5</ele>
        <time>2014-09-28T16:01:48Z</time>
      </trkpt>
      <trkpt lat="48.99221" lon="1.03981">
        <ele>75.5</ele>
        <time>2014-09-28T16:01:50Z</time>
      </trkpt>
      <trkpt lat="48.99215" lon="1.03972">
        <ele>75.5</ele>
        <time>2014-09-28T16:01:51Z</time>
      </trkpt>
      <trkpt lat="48.99208" lon="1.03964">
        <ele>75.5</ele>
        <time>2014-09-28T16:01:53Z</time>
      </trkpt>
      <trkpt lat="48.99201" lon="1.03956">
        <ele>75.5</ele>
        <time>2014-09-28T16:01:55Z</time>
      </trkpt>
      <trkpt lat="48.99195" lon="1.03946">
        <ele>76.5</ele>
        <time>2014-09-28T16:01:57Z</time>
      </trkpt>
      <trkpt lat="48.99188" lon="1.03936">
        <ele>76.5</ele>
        <time>2014-09-28T16:01:59Z</time>
      </trkpt>
      <trkpt lat="48.99183" lon="1.03927">
        <ele>78.5</ele>
        <time>2014-09-28T16:02:01Z</time>
      </trkpt>
      <trkpt lat="48.99173" lon="1.0392">
        <ele>78.5</ele>
        <time>2014-09-28T16:02:03Z</time>
      </trkpt>
      <trkpt lat="48.99165" lon="1.0391">
        <ele>76.5</ele>
        <time>2014-09-28T16:02:05Z</time>
      </trkpt>
      <trkpt lat="48.99159" lon="1.03897">
        <ele>75.5</ele>
        <time>2014-09-28T16:02:07Z</time>
      </trkpt>
      <trkpt lat="48.99154" lon="1.03886">
        <ele>76.5</ele>
        <time>2014-09-28T16:02:09Z</time>
      </trkpt>
      <trkpt lat="48.99147" lon="1.03876">
        <ele>75.5</ele>
        <time>2014-09-28T16:02:11Z</time>
      </trkpt>
      <trkpt lat="48.9914" lon="1.03867">
        <ele>75.5</ele>
        <time>2014-09-28T16:02:14Z</time>
      </trkpt>
      <trkpt lat="48.99133" lon="1.03855">
        <ele>75.5</ele>
        <time>2014-09-28T16:02:16Z</time>
      </trkpt>
      <trkpt lat="48.99127" lon="1.03844">
        <ele>76.5</ele>
        <time>2014-09-28T16:02:17Z</time>
      </trkpt>
      <trkpt lat="48.99118" lon="1.03833">
        <ele>78.5</ele>
        <time>2014-09-28T16:02:20Z</time>
      </trkpt>
      <trkpt lat="48.99112" lon="1.03824">
        <ele>77.5</ele>
        <time>2014-09-28T16:02:22Z</time>
      </trkpt>
      <trkpt lat="48.99106" lon="1.03812">
        <ele>78.5</ele>
        <time>2014-09-28T16:02:24Z</time>
      </trkpt>
      <trkpt lat="48.99101" lon="1.03802">
        <ele>76.5</ele>
        <time>2014-09-28T16:02:26Z</time>
      </trkpt>
      <trkpt lat="48.99094" lon="1.03792">
        <ele>76.5</ele>
        <time>2014-09-28T16:02:28Z</time>
      </trkpt>
      <trkpt lat="48.99089" lon="1.03784">
        <ele>76.5</ele>
        <time>2014-09-28T16:02:30Z</time>
      </trkpt>
      <trkpt lat="48.99082" lon="1.03774">
        <ele>77.5</ele>
        <time>2014-09-28T16:02:32Z</time>
      </trkpt>
      <trkpt lat="48.99076" lon="1.03765">
        <ele>77.5</ele>
        <time>2014-09-28T16:02:34Z</time>
      </trkpt>
      <trkpt lat="48.99068" lon="1.03753">
        <ele>77.5</ele>
        <time>2014-09-28T16:02:36Z</time>
      </trkpt>
      <trkpt lat="48.9906" lon="1.03742">
        <ele>77.5</ele>
        <time>2014-09-28T16:02:38Z</time>
      </trkpt>
      <trkpt lat="48.99055" lon="1.03731">
        <ele>76.5</ele>
        <time>2014-09-28T16:02:40Z</time>
      </trkpt>
      <trkpt lat="48.99049" lon="1.03721">
        <ele>77.5</ele>
        <time>2014-09-28T16:02:42Z</time>
      </trkpt>
      <trkpt lat="48.99042" lon="1.03711">
        <ele>77.5</ele>
        <time>2014-09-28T16:02:44Z</time>
      </trkpt>
      <trkpt lat="48.99035" lon="1.037">
        <ele>77.5</ele>
        <time>2014-09-28T16:02:46Z</time>
      </trkpt>
      <trkpt lat="48.99029" lon="1.03689">
        <ele>76.5</ele>
        <time>2014-09-28T16:02:48Z</time>
      </trkpt>
      <trkpt lat="48.99022" lon="1.03676">
        <ele>76.5</ele>
        <time>2014-09-28T16:02:50Z</time>
      </trkpt>
      <trkpt lat="48.99015" lon="1.03665">
        <ele>75.5</ele>
        <time>2014-09-28T16:02:52Z</time>
      </trkpt>
      <trkpt lat="48.99009" lon="1.03654">
        <ele>77.5</ele>
        <time>2014-09-28T16:02:54Z</time>
      </trkpt>
      <trkpt lat="48.99004" lon="1.03643">
        <ele>79.5</ele>
        <time>2014-09-28T16:02:56Z</time>
      </trkpt>
      <trkpt lat="48.98999" lon="1.03632">
        <ele>79.5</ele>
        <time>2014-09-28T16:02:58Z</time>
      </trkpt>
      <trkpt lat="48.98993" lon="1.03623">
        <ele>79.5</ele>
        <time>2014-09-28T16:03:00Z</time>
      </trkpt>
      <trkpt lat="48.98986" lon="1.03613">
        <ele>81.5</ele>
        <time>2014-09-28T16:03:02Z</time>
      </trkpt>
      <trkpt lat="48.98979" lon="1.03606">
        <ele>81.5</ele>
        <time>2014-09-28T16:03:04Z</time>
      </trkpt>
      <trkpt lat="48.98971" lon="1.03597">
        <ele>80.5</ele>
        <time>2014-09-28T16:03:06Z</time>
      </trkpt>
      <trkpt lat="48.98965" lon="1.03589">
        <ele>81.5</ele>
        <time>2014-09-28T16:03:08Z</time>
      </trkpt>
      <trkpt lat="48.98959" lon="1.0358">
        <ele>81.5</ele>
        <time>2014-09-28T16:03:10Z</time>
      </trkpt>
      <trkpt lat="48.98953" lon="1.0357">
        <ele>81.5</ele>
        <time>2014-09-28T16:03:13Z</time>
      </trkpt>
      <trkpt lat="48.98947" lon="1.03558">
        <ele>82.5</ele>
        <time>2014-09-28T16:03:16Z</time>
      </trkpt>
      <trkpt lat="48.98944" lon="1.03548">
        <ele>81.5</ele>
        <time>2014-09-28T16:03:18Z</time>
      </trkpt>
      <trkpt lat="48.98941" lon="1.03538">
        <ele>79.5</ele>
        <time>2014-09-28T16:03:20Z</time>
      </trkpt>
      <trkpt lat="48.98938" lon="1.03527">
        <ele>78.5</ele>
        <time>2014-09-28T16:03:22Z</time>
      </trkpt>
      <trkpt lat="48.98934" lon="1.03516">
        <ele>77.5</ele>
        <time>2014-09-28T16:03:24Z</time>
      </trkpt>
      <trkpt lat="48.9893" lon="1.03501">
        <ele>76.5</ele>
        <time>2014-09-28T16:03:27Z</time>
      </trkpt>
      <trkpt lat="48.98925" lon="1.03487">
        <ele>76.5</ele>
        <time>2014-09-28T16:03:30Z</time>
      </trkpt>
      <trkpt lat="48.9892" lon="1.03474">
        <ele>79.5</ele>
        <time>2014-09-28T16:03:33Z</time>
      </trkpt>
      <trkpt lat="48.98915" lon="1.0346">
        <ele>79.5</ele>
        <time>2014-09-28T16:03:36Z</time>
      </trkpt>
      <trkpt lat="48.9891" lon="1.0345">
        <ele>78.5</ele>
        <time>2014-09-28T16:03:39Z</time>
      </trkpt>
      <trkpt lat="48.98905" lon="1.03441">
        <ele>78.5</ele>
        <time>2014-09-28T16:03:42Z</time>
      </trkpt>
      <trkpt lat="48.989" lon="1.03432">
        <ele>78.5</ele>
        <time>2014-09-28T16:03:45Z</time>
      </trkpt>
      <trkpt lat="48.98894" lon="1.0342">
        <ele>77.5</ele>
        <time>2014-09-28T16:03:48Z</time>
      </trkpt>
      <trkpt lat="48.98886" lon="1.03409">
        <ele>77.5</ele>
        <time>2014-09-28T16:03:52Z</time>
      </trkpt>
      <trkpt lat="48.98881" lon="1.03401">
        <ele>75.5</ele>
        <time>2014-09-28T16:03:54Z</time>
      </trkpt>
      <trkpt lat="48.98874" lon="1.03393">
        <ele>76.5</ele>
        <time>2014-09-28T16:03:55Z</time>
      </trkpt>
      <trkpt lat="48.98868" lon="1.03384">
        <ele>77.5</ele>
        <time>2014-09-28T16:03:57Z</time>
      </trkpt>
      <trkpt lat="48.98863" lon="1.03375">
        <ele>78.5</ele>
        <time>2014-09-28T16:03:59Z</time>
      </trkpt>
      <trkpt lat="48.98857" lon="1.03367">
        <ele>77.5</ele>
        <time>2014-09-28T16:04:02Z</time>
      </trkpt>
      <trkpt lat="48.9885" lon="1.03359">
        <ele>76.5</ele>
        <time>2014-09-28T16:04:03Z</time>
      </trkpt>
      <trkpt lat="48.98844" lon="1.03352">
        <ele>76.5</ele>
        <time>2014-09-28T16:04:06Z</time>
      </trkpt>
      <trkpt lat="48.98839" lon="1.03344">
        <ele>77.5</ele>
        <time>2014-09-28T16:04:07Z</time>
      </trkpt>
      <trkpt lat="48.98832" lon="1.03336">
        <ele>76.5</ele>
        <time>2014-09-28T16:04:09Z</time>
      </trkpt>
      <trkpt lat="48.98824" lon="1.03326">
        <ele>76.5</ele>
        <time>2014-09-28T16:04:11Z</time>
      </trkpt>
      <trkpt lat="48.98817" lon="1.03317">
        <ele>75.5</ele>
        <time>2014-09-28T16:04:13Z</time>
      </trkpt>
      <trkpt lat="48.9881" lon="1.03309">
        <ele>75.5</ele>
        <time>2014-09-28T16:04:15Z</time>
      </trkpt>
      <trkpt lat="48.98803" lon="1.033">
        <ele>76.5</ele>
        <time>2014-09-28T16:04:17Z</time>
      </trkpt>
      <trkpt lat="48.98797" lon="1.03291">
        <ele>76.5</ele>
        <time>2014-09-28T16:04:20Z</time>
      </trkpt>
      <trkpt lat="48.9879" lon="1.03283">
        <ele>76.5</ele>
        <time>2014-09-28T16:04:21Z</time>
      </trkpt>
      <trkpt lat="48.98783" lon="1.03275">
        <ele>75.5</ele>
        <time>2014-09-28T16:04:23Z</time>
      </trkpt>
      <trkpt lat="48.98777" lon="1.03267">
        <ele>75.5</ele>
        <time>2014-09-28T16:04:25Z</time>
      </trkpt>
      <trkpt lat="48.98769" lon="1.03259">
        <ele>75.5</ele>
        <time>2014-09-28T16:04:27Z</time>
      </trkpt>
      <trkpt lat="48.98761" lon="1.03254">
        <ele>75.5</ele>
        <time>2014-09-28T16:04:29Z</time>
      </trkpt>
      <trkpt lat="48.98753" lon="1.03249">
        <ele>76.5</ele>
        <time>2014-09-28T16:04:31Z</time>
      </trkpt>
      <trkpt lat="48.98745" lon="1.03244">
        <ele>76.5</ele>
        <time>2014-09-28T16:04:33Z</time>
      </trkpt>
      <trkpt lat="48.98736" lon="1.03241">
        <ele>76.5</ele>
        <time>2014-09-28T16:04:35Z</time>
      </trkpt>
      <trkpt lat="48.98728" lon="1.03235">
        <ele>76.5</ele>
        <time>2014-09-28T16:04:37Z</time>
      </trkpt>
      <trkpt lat="48.9872" lon="1.03229">
        <ele>76.5</ele>
        <time>2014-09-28T16:04:39Z</time>
      </trkpt>
      <trkpt lat="48.98713" lon="1.03221">
        <ele>76.5</ele>
        <time>2014-09-28T16:04:41Z</time>
      </trkpt>
      <trkpt lat="48.98705" lon="1.03213">
        <ele>76.5</ele>
        <time>2014-09-28T16:04:43Z</time>
      </trkpt>
      <trkpt lat="48.98701" lon="1.03202">
        <ele>77.5</ele>
        <time>2014-09-28T16:04:45Z</time>
      </trkpt>
      <trkpt lat="48.98696" lon="1.03192">
        <ele>77.5</ele>
        <time>2014-09-28T16:04:47Z</time>
      </trkpt>
      <trkpt lat="48.98691" lon="1.03183">
        <ele>76.5</ele>
        <time>2014-09-28T16:04:49Z</time>
      </trkpt>
      <trkpt lat="48.98688" lon="1.03173">
        <ele>77.5</ele>
        <time>2014-09-28T16:04:51Z</time>
      </trkpt>
      <trkpt lat="48.98685" lon="1.03161">
        <ele>76.5</ele>
        <time>2014-09-28T16:04:53Z</time>
      </trkpt>
      <trkpt lat="48.98683" lon="1.0315">
        <ele>76.5</ele>
        <time>2014-09-28T16:04:55Z</time>
      </trkpt>
      <trkpt lat="48.98682" lon="1.03139">
        <ele>76.5</ele>
        <time>2014-09-28T16:04:57Z</time>
      </trkpt>
      <trkpt lat="48.9868" lon="1.03123">
        <ele>76.5</ele>
        <time>2014-09-28T16:05:00Z</time>
      </trkpt>
      <trkpt lat="48.98683" lon="1.03111">
        <ele>77.5</ele>
        <time>2014-09-28T16:05:03Z</time>
      </trkpt>
      <trkpt lat="48.98675" lon="1.03103">
        <ele>76.5</ele>
        <time>2014-09-28T16:07:41Z</time>
      </trkpt>
      <trkpt lat="48.9867" lon="1.03094">
        <ele>75.5</ele>
        <time>2014-09-28T16:07:43Z</time>
      </trkpt>
      <trkpt lat="48.98666" lon="1.03084">
        <ele>76.5</ele>
        <time>2014-09-28T16:07:45Z</time>
      </trkpt>
      <trkpt lat="48.98662" lon="1.03072">
        <ele>74.5</ele>
        <time>2014-09-28T16:07:47Z</time>
      </trkpt>
      <trkpt lat="48.98658" lon="1.03061">
        <ele>74.5</ele>
        <time>2014-09-28T16:07:49Z</time>
      </trkpt>
      <trkpt lat="48.98653" lon="1.0305">
        <ele>74.5</ele>
        <time>2014-09-28T16:07:51Z</time>
      </trkpt>
      <trkpt lat="48.98649" lon="1.0304">
        <ele>74.5</ele>
        <time>2014-09-28T16:07:53Z</time>
      </trkpt>
      <trkpt lat="48.98646" lon="1.03029">
        <ele>73.5</ele>
        <time>2014-09-28T16:07:55Z</time>
      </trkpt>
      <trkpt lat="48.98648" lon="1.03017">
        <ele>73.5</ele>
        <time>2014-09-28T16:07:57Z</time>
      </trkpt>
      <trkpt lat="48.98654" lon="1.03008">
        <ele>73.5</ele>
        <time>2014-09-28T16:08:00Z</time>
      </trkpt>
      <trkpt lat="48.98661" lon="1.03">
        <ele>72.5</ele>
        <time>2014-09-28T16:08:01Z</time>
      </trkpt>
      <trkpt lat="48.98668" lon="1.02993">
        <ele>72.5</ele>
        <time>2014-09-28T16:08:03Z</time>
      </trkpt>
      <trkpt lat="48.98676" lon="1.02987">
        <ele>72.5</ele>
        <time>2014-09-28T16:08:05Z</time>
      </trkpt>
      <trkpt lat="48.98684" lon="1.02983">
        <ele>72.5</ele>
        <time>2014-09-28T16:08:07Z</time>
      </trkpt>
      <trkpt lat="48.98692" lon="1.02981">
        <ele>72.5</ele>
        <time>2014-09-28T16:08:09Z</time>
      </trkpt>
      <trkpt lat="48.98701" lon="1.02981">
        <ele>72.5</ele>
        <time>2014-09-28T16:08:11Z</time>
      </trkpt>
      <trkpt lat="48.98709" lon="1.02983">
        <ele>74.5</ele>
        <time>2014-09-28T16:08:14Z</time>
      </trkpt>
      <trkpt lat="48.98717" lon="1.02987">
        <ele>74.5</ele>
        <time>2014-09-28T16:08:15Z</time>
      </trkpt>
      <trkpt lat="48.98725" lon="1.02993">
        <ele>74.5</ele>
        <time>2014-09-28T16:08:17Z</time>
      </trkpt>
      <trkpt lat="48.98732" lon="1.03002">
        <ele>75.5</ele>
        <time>2014-09-28T16:08:19Z</time>
      </trkpt>
      <trkpt lat="48.98739" lon="1.03012">
        <ele>76.5</ele>
        <time>2014-09-28T16:08:21Z</time>
      </trkpt>
      <trkpt lat="48.98745" lon="1.03024">
        <ele>77.5</ele>
        <time>2014-09-28T16:08:23Z</time>
      </trkpt>
      <trkpt lat="48.98748" lon="1.03036">
        <ele>78.5</ele>
        <time>2014-09-28T16:08:26Z</time>
      </trkpt>
      <trkpt lat="48.98751" lon="1.03049">
        <ele>76.5</ele>
        <time>2014-09-28T16:08:27Z</time>
      </trkpt>
      <trkpt lat="48.98752" lon="1.03062">
        <ele>77.5</ele>
        <time>2014-09-28T16:08:30Z</time>
      </trkpt>
      <trkpt lat="48.98751" lon="1.03075">
        <ele>78.5</ele>
        <time>2014-09-28T16:08:31Z</time>
      </trkpt>
      <trkpt lat="48.98749" lon="1.03087">
        <ele>78.5</ele>
        <time>2014-09-28T16:08:33Z</time>
      </trkpt>
      <trkpt lat="48.98745" lon="1.03099">
        <ele>79.5</ele>
        <time>2014-09-28T16:08:35Z</time>
      </trkpt>
      <trkpt lat="48.98741" lon="1.03109">
        <ele>80.5</ele>
        <time>2014-09-28T16:08:37Z</time>
      </trkpt>
      <trkpt lat="48.98736" lon="1.0312">
        <ele>80.5</ele>
        <time>2014-09-28T16:08:39Z</time>
      </trkpt>
      <trkpt lat="48.98731" lon="1.03129">
        <ele>80.5</ele>
        <time>2014-09-28T16:08:41Z</time>
      </trkpt>
      <trkpt lat="48.98726" lon="1.03138">
        <ele>80.5</ele>
        <time>2014-09-28T16:08:43Z</time>
      </trkpt>
      <trkpt lat="48.98721" lon="1.03145">
        <ele>80.5</ele>
        <time>2014-09-28T16:08:45Z</time>
      </trkpt>
      <trkpt lat="48.98717" lon="1.03154">
        <ele>81.5</ele>
        <time>2014-09-28T16:08:47Z</time>
      </trkpt>
      <trkpt lat="48.98713" lon="1.03165">
        <ele>83.5</ele>
        <time>2014-09-28T16:08:49Z</time>
      </trkpt>
      <trkpt lat="48.98709" lon="1.03175">
        <ele>82.5</ele>
        <time>2014-09-28T16:08:51Z</time>
      </trkpt>
      <trkpt lat="48.98703" lon="1.03183">
        <ele>79.5</ele>
        <time>2014-09-28T16:08:53Z</time>
      </trkpt>
      <trkpt lat="48.98699" lon="1.03193">
        <ele>78.5</ele>
        <time>2014-09-28T16:08:55Z</time>
      </trkpt>
      <trkpt lat="48.98695" lon="1.03202">
        <ele>76.5</ele>
        <time>2014-09-28T16:08:57Z</time>
      </trkpt>
      <trkpt lat="48.98691" lon="1.03211">
        <ele>78.5</ele>
        <time>2014-09-28T16:08:59Z</time>
      </trkpt>
      <trkpt lat="48.98686" lon="1.03221">
        <ele>80.5</ele>
        <time>2014-09-28T16:09:01Z</time>
      </trkpt>
      <trkpt lat="48.98682" lon="1.0323">
        <ele>80.5</ele>
        <time>2014-09-28T16:09:03Z</time>
      </trkpt>
      <trkpt lat="48.98677" lon="1.0324">
        <ele>81.5</ele>
        <time>2014-09-28T16:09:05Z</time>
      </trkpt>
      <trkpt lat="48.98673" lon="1.0325">
        <ele>81.5</ele>
        <time>2014-09-28T16:09:07Z</time>
      </trkpt>
      <trkpt lat="48.98669" lon="1.03261">
        <ele>82.5</ele>
        <time>2014-09-28T16:09:09Z</time>
      </trkpt>
      <trkpt lat="48.98665" lon="1.03276">
        <ele>82.5</ele>
        <time>2014-09-28T16:09:11Z</time>
      </trkpt>
      <trkpt lat="48.98662" lon="1.0329">
        <ele>82.5</ele>
        <time>2014-09-28T16:09:13Z</time>
      </trkpt>
      <trkpt lat="48.98661" lon="1.03306">
        <ele>81.5</ele>
        <time>2014-09-28T16:09:15Z</time>
      </trkpt>
      <trkpt lat="48.98661" lon="1.03322">
        <ele>80.5</ele>
        <time>2014-09-28T16:09:17Z</time>
      </trkpt>
      <trkpt lat="48.98663" lon="1.03339">
        <ele>80.5</ele>
        <time>2014-09-28T16:09:19Z</time>
      </trkpt>
      <trkpt lat="48.98663" lon="1.03356">
        <ele>77.5</ele>
        <time>2014-09-28T16:09:21Z</time>
      </trkpt>
      <trkpt lat="48.98669" lon="1.03372">
        <ele>78.5</ele>
        <time>2014-09-28T16:09:23Z</time>
      </trkpt>
      <trkpt lat="48.98674" lon="1.0338">
        <ele>78.5</ele>
        <time>2014-09-28T16:09:24Z</time>
      </trkpt>
      <trkpt lat="48.98683" lon="1.03396">
        <ele>78.5</ele>
        <time>2014-09-28T16:09:26Z</time>
      </trkpt>
      <trkpt lat="48.98694" lon="1.03407">
        <ele>79.5</ele>
        <time>2014-09-28T16:09:28Z</time>
      </trkpt>
      <trkpt lat="48.987" lon="1.03414">
        <ele>78.5</ele>
        <time>2014-09-28T16:09:29Z</time>
      </trkpt>
      <trkpt lat="48.98712" lon="1.03425">
        <ele>76.5</ele>
        <time>2014-09-28T16:09:31Z</time>
      </trkpt>
      <trkpt lat="48.98719" lon="1.03432">
        <ele>75.5</ele>
        <time>2014-09-28T16:09:32Z</time>
      </trkpt>
      <trkpt lat="48.98726" lon="1.03438">
        <ele>75.5</ele>
        <time>2014-09-28T16:09:33Z</time>
      </trkpt>
      <trkpt lat="48.98733" lon="1.03443">
        <ele>75.5</ele>
        <time>2014-09-28T16:09:34Z</time>
      </trkpt>
      <trkpt lat="48.98739" lon="1.03449">
        <ele>76.5</ele>
        <time>2014-09-28T16:09:35Z</time>
      </trkpt>
      <trkpt lat="48.98753" lon="1.0346">
        <ele>74.5</ele>
        <time>2014-09-28T16:09:37Z</time>
      </trkpt>
      <trkpt lat="48.98759" lon="1.03466">
        <ele>74.5</ele>
        <time>2014-09-28T16:09:38Z</time>
      </trkpt>
      <trkpt lat="48.98769" lon="1.03478">
        <ele>76.5</ele>
        <time>2014-09-28T16:09:40Z</time>
      </trkpt>
      <trkpt lat="48.98775" lon="1.03486">
        <ele>75.5</ele>
        <time>2014-09-28T16:09:41Z</time>
      </trkpt>
      <trkpt lat="48.98783" lon="1.03492">
        <ele>78.5</ele>
        <time>2014-09-28T16:09:42Z</time>
      </trkpt>
      <trkpt lat="48.98794" lon="1.03502">
        <ele>77.5</ele>
        <time>2014-09-28T16:09:44Z</time>
      </trkpt>
      <trkpt lat="48.98804" lon="1.03512">
        <ele>75.5</ele>
        <time>2014-09-28T16:09:46Z</time>
      </trkpt>
      <trkpt lat="48.98814" lon="1.03526">
        <ele>75.5</ele>
        <time>2014-09-28T16:09:48Z</time>
      </trkpt>
      <trkpt lat="48.98823" lon="1.03534">
        <ele>76.5</ele>
        <time>2014-09-28T16:09:50Z</time>
      </trkpt>
      <trkpt lat="48.9883" lon="1.03545">
        <ele>74.5</ele>
        <time>2014-09-28T16:09:52Z</time>
      </trkpt>
      <trkpt lat="48.98838" lon="1.03553">
        <ele>75.5</ele>
        <time>2014-09-28T16:09:54Z</time>
      </trkpt>
      <trkpt lat="48.98846" lon="1.03564">
        <ele>73.5</ele>
        <time>2014-09-28T16:09:56Z</time>
      </trkpt>
      <trkpt lat="48.98849" lon="1.03578">
        <ele>72.5</ele>
        <time>2014-09-28T16:09:58Z</time>
      </trkpt>
      <trkpt lat="48.98856" lon="1.03586">
        <ele>71.5</ele>
        <time>2014-09-28T16:10:00Z</time>
      </trkpt>
      <trkpt lat="48.98861" lon="1.03605">
        <ele>71.5</ele>
        <time>2014-09-28T16:10:02Z</time>
      </trkpt>
      <trkpt lat="48.98867" lon="1.03617">
        <ele>74.5</ele>
        <time>2014-09-28T16:10:04Z</time>
      </trkpt>
      <trkpt lat="48.98873" lon="1.0363">
        <ele>71.5</ele>
        <time>2014-09-28T16:10:06Z</time>
      </trkpt>
      <trkpt lat="48.98878" lon="1.03645">
        <ele>72.5</ele>
        <time>2014-09-28T16:10:08Z</time>
      </trkpt>
      <trkpt lat="48.98881" lon="1.03658">
        <ele>71.5</ele>
        <time>2014-09-28T16:10:10Z</time>
      </trkpt>
      <trkpt lat="48.98882" lon="1.03676">
        <ele>70.5</ele>
        <time>2014-09-28T16:10:12Z</time>
      </trkpt>
      <trkpt lat="48.98876" lon="1.03689">
        <ele>75.5</ele>
        <time>2014-09-28T16:10:14Z</time>
      </trkpt>
      <trkpt lat="48.98868" lon="1.03697">
        <ele>76.5</ele>
        <time>2014-09-28T16:10:16Z</time>
      </trkpt>
      <trkpt lat="48.98862" lon="1.03713">
        <ele>75.5</ele>
        <time>2014-09-28T16:10:18Z</time>
      </trkpt>
      <trkpt lat="48.98855" lon="1.03723">
        <ele>72.5</ele>
        <time>2014-09-28T16:10:20Z</time>
      </trkpt>
      <trkpt lat="48.98847" lon="1.03734">
        <ele>69.5</ele>
        <time>2014-09-28T16:10:22Z</time>
      </trkpt>
      <trkpt lat="48.98839" lon="1.03748">
        <ele>68.5</ele>
        <time>2014-09-28T16:10:24Z</time>
      </trkpt>
      <trkpt lat="48.98831" lon="1.03759">
        <ele>71.5</ele>
        <time>2014-09-28T16:10:26Z</time>
      </trkpt>
      <trkpt lat="48.98821" lon="1.03768">
        <ele>72.5</ele>
        <time>2014-09-28T16:10:29Z</time>
      </trkpt>
      <trkpt lat="48.98812" lon="1.03781">
        <ele>72.5</ele>
        <time>2014-09-28T16:10:30Z</time>
      </trkpt>
      <trkpt lat="48.98805" lon="1.03792">
        <ele>74.5</ele>
        <time>2014-09-28T16:10:32Z</time>
      </trkpt>
      <trkpt lat="48.988" lon="1.0381">
        <ele>73.5</ele>
        <time>2014-09-28T16:10:34Z</time>
      </trkpt>
      <trkpt lat="48.98794" lon="1.03824">
        <ele>74.5</ele>
        <time>2014-09-28T16:10:36Z</time>
      </trkpt>
      <trkpt lat="48.98792" lon="1.0384">
        <ele>72.5</ele>
        <time>2014-09-28T16:10:38Z</time>
      </trkpt>
      <trkpt lat="48.98796" lon="1.03857">
        <ele>75.5</ele>
        <time>2014-09-28T16:10:40Z</time>
      </trkpt>
      <trkpt lat="48.988" lon="1.03866">
        <ele>74.5</ele>
        <time>2014-09-28T16:10:43Z</time>
      </trkpt>
      <trkpt lat="48.98806" lon="1.03878">
        <ele>72.5</ele>
        <time>2014-09-28T16:10:44Z</time>
      </trkpt>
      <trkpt lat="48.98811" lon="1.03888">
        <ele>73.5</ele>
        <time>2014-09-28T16:10:46Z</time>
      </trkpt>
      <trkpt lat="48.98818" lon="1.03898">
        <ele>73.5</ele>
        <time>2014-09-28T16:10:48Z</time>
      </trkpt>
      <trkpt lat="48.98822" lon="1.03911">
        <ele>72.5</ele>
        <time>2014-09-28T16:10:50Z</time>
      </trkpt>
      <trkpt lat="48.98829" lon="1.03925">
        <ele>73.5</ele>
        <time>2014-09-28T16:10:52Z</time>
      </trkpt>
      <trkpt lat="48.98835" lon="1.03936">
        <ele>73.5</ele>
        <time>2014-09-28T16:10:54Z</time>
      </trkpt>
      <trkpt lat="48.98842" lon="1.03947">
        <ele>74.5</ele>
        <time>2014-09-28T16:10:56Z</time>
      </trkpt>
      <trkpt lat="48.98849" lon="1.03958">
        <ele>74.5</ele>
        <time>2014-09-28T16:10:58Z</time>
      </trkpt>
      <trkpt lat="48.98853" lon="1.03971">
        <ele>71.5</ele>
        <time>2014-09-28T16:11:00Z</time>
      </trkpt>
      <trkpt lat="48.98861" lon="1.03981">
        <ele>72.5</ele>
        <time>2014-09-28T16:11:02Z</time>
      </trkpt>
      <trkpt lat="48.98869" lon="1.03992">
        <ele>72.5</ele>
        <time>2014-09-28T16:11:04Z</time>
      </trkpt>
      <trkpt lat="48.98877" lon="1.04001">
        <ele>72.5</ele>
        <time>2014-09-28T16:11:06Z</time>
      </trkpt>
      <trkpt lat="48.98883" lon="1.04016">
        <ele>73.5</ele>
        <time>2014-09-28T16:11:09Z</time>
      </trkpt>
      <trkpt lat="48.98891" lon="1.04023">
        <ele>73.5</ele>
        <time>2014-09-28T16:11:10Z</time>
      </trkpt>
      <trkpt lat="48.98897" lon="1.04033">
        <ele>71.5</ele>
        <time>2014-09-28T16:11:12Z</time>
      </trkpt>
      <trkpt lat="48.98903" lon="1.04048">
        <ele>72.5</ele>
        <time>2014-09-28T16:11:14Z</time>
      </trkpt>
      <trkpt lat="48.9891" lon="1.04058">
        <ele>71.5</ele>
        <time>2014-09-28T16:11:16Z</time>
      </trkpt>
      <trkpt lat="48.98915" lon="1.04075">
        <ele>74.5</ele>
        <time>2014-09-28T16:11:18Z</time>
      </trkpt>
      <trkpt lat="48.98924" lon="1.04088">
        <ele>72.5</ele>
        <time>2014-09-28T16:11:20Z</time>
      </trkpt>
      <trkpt lat="48.9893" lon="1.04106">
        <ele>70.5</ele>
        <time>2014-09-28T16:11:22Z</time>
      </trkpt>
      <trkpt lat="48.98938" lon="1.04118">
        <ele>70.5</ele>
        <time>2014-09-28T16:11:24Z</time>
      </trkpt>
      <trkpt lat="48.98944" lon="1.04133">
        <ele>72.5</ele>
        <time>2014-09-28T16:11:26Z</time>
      </trkpt>
      <trkpt lat="48.98952" lon="1.04147">
        <ele>76.5</ele>
        <time>2014-09-28T16:11:28Z</time>
      </trkpt>
      <trkpt lat="48.98958" lon="1.04158">
        <ele>75.5</ele>
        <time>2014-09-28T16:11:30Z</time>
      </trkpt>
      <trkpt lat="48.98968" lon="1.04165">
        <ele>74.5</ele>
        <time>2014-09-28T16:11:32Z</time>
      </trkpt>
      <trkpt lat="48.98977" lon="1.0417">
        <ele>74.5</ele>
        <time>2014-09-28T16:11:34Z</time>
      </trkpt>
      <trkpt lat="48.98988" lon="1.04176">
        <ele>74.5</ele>
        <time>2014-09-28T16:11:37Z</time>
      </trkpt>
      <trkpt lat="48.98997" lon="1.04183">
        <ele>74.5</ele>
        <time>2014-09-28T16:11:38Z</time>
      </trkpt>
      <trkpt lat="48.99007" lon="1.04185">
        <ele>75.5</ele>
        <time>2014-09-28T16:11:40Z</time>
      </trkpt>
      <trkpt lat="48.99019" lon="1.04181">
        <ele>74.5</ele>
        <time>2014-09-28T16:11:43Z</time>
      </trkpt>
      <trkpt lat="48.99028" lon="1.04173">
        <ele>73.5</ele>
        <time>2014-09-28T16:11:45Z</time>
      </trkpt>
      <trkpt lat="48.99039" lon="1.0417">
        <ele>74.5</ele>
        <time>2014-09-28T16:11:46Z</time>
      </trkpt>
      <trkpt lat="48.99049" lon="1.04178">
        <ele>75.5</ele>
        <time>2014-09-28T16:11:49Z</time>
      </trkpt>
      <trkpt lat="48.99058" lon="1.04187">
        <ele>74.5</ele>
        <time>2014-09-28T16:11:50Z</time>
      </trkpt>
      <trkpt lat="48.99066" lon="1.04197">
        <ele>74.5</ele>
        <time>2014-09-28T16:11:52Z</time>
      </trkpt>
      <trkpt lat="48.99073" lon="1.04207">
        <ele>75.5</ele>
        <time>2014-09-28T16:11:54Z</time>
      </trkpt>
      <trkpt lat="48.99079" lon="1.04217">
        <ele>75.5</ele>
        <time>2014-09-28T16:11:56Z</time>
      </trkpt>
      <trkpt lat="48.99086" lon="1.04227">
        <ele>76.5</ele>
        <time>2014-09-28T16:11:58Z</time>
      </trkpt>
      <trkpt lat="48.99092" lon="1.04237">
        <ele>76.5</ele>
        <time>2014-09-28T16:12:00Z</time>
      </trkpt>
      <trkpt lat="48.99098" lon="1.04246">
        <ele>76.5</ele>
        <time>2014-09-28T16:12:02Z</time>
      </trkpt>
      <trkpt lat="48.991" lon="1.04258">
        <ele>76.5</ele>
        <time>2014-09-28T16:12:04Z</time>
      </trkpt>
      <trkpt lat="48.99109" lon="1.04268">
        <ele>74.5</ele>
        <time>2014-09-28T16:12:06Z</time>
      </trkpt>
      <trkpt lat="48.99116" lon="1.04277">
        <ele>75.5</ele>
        <time>2014-09-28T16:12:10Z</time>
      </trkpt>
      <trkpt lat="48.99122" lon="1.04283">
        <ele>74.5</ele>
        <time>2014-09-28T16:12:12Z</time>
      </trkpt>
      <trkpt lat="48.9913" lon="1.0429">
        <ele>75.5</ele>
        <time>2014-09-28T16:12:15Z</time>
      </trkpt>
      <trkpt lat="48.99137" lon="1.04296">
        <ele>76.5</ele>
        <time>2014-09-28T16:12:17Z</time>
      </trkpt>
      <trkpt lat="48.99146" lon="1.04301">
        <ele>75.5</ele>
        <time>2014-09-28T16:12:18Z</time>
      </trkpt>
      <trkpt lat="48.99154" lon="1.04306">
        <ele>75.5</ele>
        <time>2014-09-28T16:12:20Z</time>
      </trkpt>
      <trkpt lat="48.99165" lon="1.0431">
        <ele>72.5</ele>
        <time>2014-09-28T16:12:22Z</time>
      </trkpt>
      <trkpt lat="48.99175" lon="1.0431">
        <ele>73.5</ele>
        <time>2014-09-28T16:12:24Z</time>
      </trkpt>
      <trkpt lat="48.99183" lon="1.04313">
        <ele>72.5</ele>
        <time>2014-09-28T16:12:26Z</time>
      </trkpt>
      <trkpt lat="48.99193" lon="1.04318">
        <ele>72.5</ele>
        <time>2014-09-28T16:12:28Z</time>
      </trkpt>
      <trkpt lat="48.99201" lon="1.04325">
        <ele>72.5</ele>
        <time>2014-09-28T16:12:30Z</time>
      </trkpt>
      <trkpt lat="48.99209" lon="1.04332">
        <ele>72.5</ele>
        <time>2014-09-28T16:12:32Z</time>
      </trkpt>
      <trkpt lat="48.99207" lon="1.04344">
        <ele>75.5</ele>
        <time>2014-09-28T16:12:34Z</time>
      </trkpt>
      <trkpt lat="48.99202" lon="1.04358">
        <ele>72.5</ele>
        <time>2014-09-28T16:12:36Z</time>
      </trkpt>
      <trkpt lat="48.99198" lon="1.04372">
        <ele>73.5</ele>
        <time>2014-09-28T16:12:38Z</time>
      </trkpt>
      <trkpt lat="48.99193" lon="1.04387">
        <ele>71.5</ele>
        <time>2014-09-28T16:12:40Z</time>
      </trkpt>
      <trkpt lat="48.99188" lon="1.04401">
        <ele>70.5</ele>
        <time>2014-09-28T16:12:42Z</time>
      </trkpt>
      <trkpt lat="48.99185" lon="1.04414">
        <ele>69.5</ele>
        <time>2014-09-28T16:12:44Z</time>
      </trkpt>
      <trkpt lat="48.99182" lon="1.04427">
        <ele>70.5</ele>
        <time>2014-09-28T16:12:46Z</time>
      </trkpt>
      <trkpt lat="48.9918" lon="1.04441">
        <ele>71.5</ele>
        <time>2014-09-28T16:12:49Z</time>
      </trkpt>
      <trkpt lat="48.99177" lon="1.04455">
        <ele>71.5</ele>
        <time>2014-09-28T16:12:51Z</time>
      </trkpt>
      <trkpt lat="48.99174" lon="1.04469">
        <ele>72.5</ele>
        <time>2014-09-28T16:12:52Z</time>
      </trkpt>
      <trkpt lat="48.99173" lon="1.04484">
        <ele>72.5</ele>
        <time>2014-09-28T16:12:55Z</time>
      </trkpt>
      <trkpt lat="48.99172" lon="1.04497">
        <ele>72.5</ele>
        <time>2014-09-28T16:12:56Z</time>
      </trkpt>
      <trkpt lat="48.99172" lon="1.04512">
        <ele>74.5</ele>
        <time>2014-09-28T16:12:58Z</time>
      </trkpt>
      <trkpt lat="48.99167" lon="1.04525">
        <ele>73.5</ele>
        <time>2014-09-28T16:13:00Z</time>
      </trkpt>
      <trkpt lat="48.99166" lon="1.04539">
        <ele>70.5</ele>
        <time>2014-09-28T16:13:02Z</time>
      </trkpt>
      <trkpt lat="48.99164" lon="1.04553">
        <ele>70.5</ele>
        <time>2014-09-28T16:13:04Z</time>
      </trkpt>
      <trkpt lat="48.99161" lon="1.04569">
        <ele>71.5</ele>
        <time>2014-09-28T16:13:06Z</time>
      </trkpt>
      <trkpt lat="48.99159" lon="1.04584">
        <ele>72.5</ele>
        <time>2014-09-28T16:13:08Z</time>
      </trkpt>
      <trkpt lat="48.99157" lon="1.04598">
        <ele>71.5</ele>
        <time>2014-09-28T16:13:10Z</time>
      </trkpt>
      <trkpt lat="48.99154" lon="1.04612">
        <ele>71.5</ele>
        <time>2014-09-28T16:13:12Z</time>
      </trkpt>
      <trkpt lat="48.99152" lon="1.04625">
        <ele>70.5</ele>
        <time>2014-09-28T16:13:14Z</time>
      </trkpt>
      <trkpt lat="48.99152" lon="1.04637">
        <ele>70.5</ele>
        <time>2014-09-28T16:13:16Z</time>
      </trkpt>
      <trkpt lat="48.99154" lon="1.04651">
        <ele>70.5</ele>
        <time>2014-09-28T16:13:18Z</time>
      </trkpt>
      <trkpt lat="48.99156" lon="1.04665">
        <ele>73.5</ele>
        <time>2014-09-28T16:13:20Z</time>
      </trkpt>
      <trkpt lat="48.99159" lon="1.04676">
        <ele>73.5</ele>
        <time>2014-09-28T16:13:22Z</time>
      </trkpt>
      <trkpt lat="48.99162" lon="1.04687">
        <ele>72.5</ele>
        <time>2014-09-28T16:13:24Z</time>
      </trkpt>
      <trkpt lat="48.99161" lon="1.04699">
        <ele>70.5</ele>
        <time>2014-09-28T16:13:27Z</time>
      </trkpt>
      <trkpt lat="48.99162" lon="1.04713">
        <ele>73.5</ele>
        <time>2014-09-28T16:13:30Z</time>
      </trkpt>
      <trkpt lat="48.99163" lon="1.0473">
        <ele>74.5</ele>
        <time>2014-09-28T16:13:33Z</time>
      </trkpt>
      <trkpt lat="48.99164" lon="1.04741">
        <ele>75.5</ele>
        <time>2014-09-28T16:13:35Z</time>
      </trkpt>
      <trkpt lat="48.99165" lon="1.04753">
        <ele>75.5</ele>
        <time>2014-09-28T16:13:37Z</time>
      </trkpt>
      <trkpt lat="48.99165" lon="1.04764">
        <ele>75.5</ele>
        <time>2014-09-28T16:13:39Z</time>
      </trkpt>
      <trkpt lat="48.99164" lon="1.0478">
        <ele>74.5</ele>
        <time>2014-09-28T16:13:43Z</time>
      </trkpt>
      <trkpt lat="48.9916" lon="1.04795">
        <ele>74.5</ele>
        <time>2014-09-28T16:13:45Z</time>
      </trkpt>
      <trkpt lat="48.99157" lon="1.04805">
        <ele>75.5</ele>
        <time>2014-09-28T16:13:47Z</time>
      </trkpt>
      <trkpt lat="48.99154" lon="1.04815">
        <ele>73.5</ele>
        <time>2014-09-28T16:13:49Z</time>
      </trkpt>
      <trkpt lat="48.99151" lon="1.04825">
        <ele>73.5</ele>
        <time>2014-09-28T16:13:51Z</time>
      </trkpt>
      <trkpt lat="48.99147" lon="1.0484">
        <ele>73.5</ele>
        <time>2014-09-28T16:13:54Z</time>
      </trkpt>
      <trkpt lat="48.99143" lon="1.04855">
        <ele>75.5</ele>
        <time>2014-09-28T16:13:57Z</time>
      </trkpt>
      <trkpt lat="48.99137" lon="1.04868">
        <ele>76.5</ele>
        <time>2014-09-28T16:14:00Z</time>
      </trkpt>
      <trkpt lat="48.99133" lon="1.04881">
        <ele>78.5</ele>
        <time>2014-09-28T16:14:03Z</time>
      </trkpt>
      <trkpt lat="48.9913" lon="1.04893">
        <ele>80.5</ele>
        <time>2014-09-28T16:14:06Z</time>
      </trkpt>
      <trkpt lat="48.99125" lon="1.04904">
        <ele>83.5</ele>
        <time>2014-09-28T16:14:09Z</time>
      </trkpt>
      <trkpt lat="48.99121" lon="1.04917">
        <ele>83.5</ele>
        <time>2014-09-28T16:14:12Z</time>
      </trkpt>
      <trkpt lat="48.99119" lon="1.0493">
        <ele>82.5</ele>
        <time>2014-09-28T16:14:15Z</time>
      </trkpt>
      <trkpt lat="48.99118" lon="1.04942">
        <ele>81.5</ele>
        <time>2014-09-28T16:14:18Z</time>
      </trkpt>
      <trkpt lat="48.99117" lon="1.04955">
        <ele>82.5</ele>
        <time>2014-09-28T16:14:21Z</time>
      </trkpt>
      <trkpt lat="48.99118" lon="1.04968">
        <ele>79.5</ele>
        <time>2014-09-28T16:14:24Z</time>
      </trkpt>
      <trkpt lat="48.99119" lon="1.0498">
        <ele>80.5</ele>
        <time>2014-09-28T16:14:27Z</time>
      </trkpt>
      <trkpt lat="48.99119" lon="1.04992">
        <ele>80.5</ele>
        <time>2014-09-28T16:14:30Z</time>
      </trkpt>
      <trkpt lat="48.9912" lon="1.05007">
        <ele>82.5</ele>
        <time>2014-09-28T16:14:33Z</time>
      </trkpt>
      <trkpt lat="48.99124" lon="1.05021">
        <ele>83.5</ele>
        <time>2014-09-28T16:14:36Z</time>
      </trkpt>
      <trkpt lat="48.99128" lon="1.05034">
        <ele>84.5</ele>
        <time>2014-09-28T16:14:39Z</time>
      </trkpt>
      <trkpt lat="48.99128" lon="1.05048">
        <ele>85.5</ele>
        <time>2014-09-28T16:14:43Z</time>
      </trkpt>
      <trkpt lat="48.99129" lon="1.05062">
        <ele>89.5</ele>
        <time>2014-09-28T16:14:45Z</time>
      </trkpt>
      <trkpt lat="48.9913" lon="1.05076">
        <ele>90.5</ele>
        <time>2014-09-28T16:14:48Z</time>
      </trkpt>
      <trkpt lat="48.99131" lon="1.0509">
        <ele>92.5</ele>
        <time>2014-09-28T16:14:51Z</time>
      </trkpt>
      <trkpt lat="48.99133" lon="1.05105">
        <ele>92.5</ele>
        <time>2014-09-28T16:14:54Z</time>
      </trkpt>
      <trkpt lat="48.99135" lon="1.05119">
        <ele>92.5</ele>
        <time>2014-09-28T16:14:57Z</time>
      </trkpt>
      <trkpt lat="48.99136" lon="1.05133">
        <ele>91.5</ele>
        <time>2014-09-28T16:15:00Z</time>
      </trkpt>
      <trkpt lat="48.99138" lon="1.05145">
        <ele>90.5</ele>
        <time>2014-09-28T16:15:03Z</time>
      </trkpt>
      <trkpt lat="48.99139" lon="1.05158">
        <ele>91.5</ele>
        <time>2014-09-28T16:15:06Z</time>
      </trkpt>
      <trkpt lat="48.99141" lon="1.05172">
        <ele>91.5</ele>
        <time>2014-09-28T16:15:09Z</time>
      </trkpt>
      <trkpt lat="48.99142" lon="1.05187">
        <ele>92.5</ele>
        <time>2014-09-28T16:15:12Z</time>
      </trkpt>
      <trkpt lat="48.99142" lon="1.05201">
        <ele>91.5</ele>
        <time>2014-09-28T16:15:15Z</time>
      </trkpt>
      <trkpt lat="48.99139" lon="1.05216">
        <ele>89.5</ele>
        <time>2014-09-28T16:15:18Z</time>
      </trkpt>
      <trkpt lat="48.99135" lon="1.05229">
        <ele>92.5</ele>
        <time>2014-09-28T16:15:21Z</time>
      </trkpt>
      <trkpt lat="48.9913" lon="1.05241">
        <ele>94.5</ele>
        <time>2014-09-28T16:15:24Z</time>
      </trkpt>
      <trkpt lat="48.99123" lon="1.05254">
        <ele>89.5</ele>
        <time>2014-09-28T16:15:27Z</time>
      </trkpt>
      <trkpt lat="48.99118" lon="1.05266">
        <ele>84.5</ele>
        <time>2014-09-28T16:15:30Z</time>
      </trkpt>
      <trkpt lat="48.99112" lon="1.05278">
        <ele>85.5</ele>
        <time>2014-09-28T16:15:33Z</time>
      </trkpt>
      <trkpt lat="48.99107" lon="1.0529">
        <ele>88.5</ele>
        <time>2014-09-28T16:15:36Z</time>
      </trkpt>
      <trkpt lat="48.99103" lon="1.05301">
        <ele>91.5</ele>
        <time>2014-09-28T16:15:39Z</time>
      </trkpt>
      <trkpt lat="48.99101" lon="1.05314">
        <ele>95.5</ele>
        <time>2014-09-28T16:15:42Z</time>
      </trkpt>
      <trkpt lat="48.99098" lon="1.05326">
        <ele>95.5</ele>
        <time>2014-09-28T16:15:45Z</time>
      </trkpt>
      <trkpt lat="48.99093" lon="1.05337">
        <ele>92.5</ele>
        <time>2014-09-28T16:15:48Z</time>
      </trkpt>
      <trkpt lat="48.9909" lon="1.05347">
        <ele>93.5</ele>
        <time>2014-09-28T16:15:51Z</time>
      </trkpt>
      <trkpt lat="48.99088" lon="1.0536">
        <ele>96.5</ele>
        <time>2014-09-28T16:15:54Z</time>
      </trkpt>
      <trkpt lat="48.99085" lon="1.05371">
        <ele>97.5</ele>
        <time>2014-09-28T16:15:57Z</time>
      </trkpt>
      <trkpt lat="48.99085" lon="1.05384">
        <ele>96.5</ele>
        <time>2014-09-28T16:16:16Z</time>
      </trkpt>
      <trkpt lat="48.99082" lon="1.05399">
        <ele>94.5</ele>
        <time>2014-09-28T16:16:18Z</time>
      </trkpt>
      <trkpt lat="48.99078" lon="1.05414">
        <ele>94.5</ele>
        <time>2014-09-28T16:16:21Z</time>
      </trkpt>
      <trkpt lat="48.99075" lon="1.05428">
        <ele>95.5</ele>
        <time>2014-09-28T16:16:24Z</time>
      </trkpt>
      <trkpt lat="48.99071" lon="1.05442">
        <ele>96.5</ele>
        <time>2014-09-28T16:16:28Z</time>
      </trkpt>
      <trkpt lat="48.99066" lon="1.05453">
        <ele>94.5</ele>
        <time>2014-09-28T16:16:30Z</time>
      </trkpt>
      <trkpt lat="48.99061" lon="1.05464">
        <ele>94.5</ele>
        <time>2014-09-28T16:16:34Z</time>
      </trkpt>
      <trkpt lat="48.99057" lon="1.05475">
        <ele>99.5</ele>
        <time>2014-09-28T16:16:36Z</time>
      </trkpt>
      <trkpt lat="48.99052" lon="1.05485">
        <ele>101.5</ele>
        <time>2014-09-28T16:16:39Z</time>
      </trkpt>
      <trkpt lat="48.99045" lon="1.05495">
        <ele>101.5</ele>
        <time>2014-09-28T16:16:42Z</time>
      </trkpt>
      <trkpt lat="48.99038" lon="1.05502">
        <ele>98.5</ele>
        <time>2014-09-28T16:16:45Z</time>
      </trkpt>
      <trkpt lat="48.99031" lon="1.05507">
        <ele>94.5</ele>
        <time>2014-09-28T16:16:48Z</time>
      </trkpt>
      <trkpt lat="48.99023" lon="1.05512">
        <ele>96.5</ele>
        <time>2014-09-28T16:16:51Z</time>
      </trkpt>
      <trkpt lat="48.99015" lon="1.05518">
        <ele>97.5</ele>
        <time>2014-09-28T16:16:55Z</time>
      </trkpt>
      <trkpt lat="48.99007" lon="1.05522">
        <ele>99.5</ele>
        <time>2014-09-28T16:16:57Z</time>
      </trkpt>
      <trkpt lat="48.98998" lon="1.05526">
        <ele>104.5</ele>
        <time>2014-09-28T16:17:01Z</time>
      </trkpt>
      <trkpt lat="48.9899" lon="1.0553">
        <ele>107.5</ele>
        <time>2014-09-28T16:17:03Z</time>
      </trkpt>
      <trkpt lat="48.98982" lon="1.05535">
        <ele>105.5</ele>
        <time>2014-09-28T16:17:06Z</time>
      </trkpt>
      <trkpt lat="48.98974" lon="1.05542">
        <ele>105.5</ele>
        <time>2014-09-28T16:17:10Z</time>
      </trkpt>
      <trkpt lat="48.98967" lon="1.05549">
        <ele>106.5</ele>
        <time>2014-09-28T16:17:13Z</time>
      </trkpt>
      <trkpt lat="48.9896" lon="1.05556">
        <ele>106.5</ele>
        <time>2014-09-28T16:17:16Z</time>
      </trkpt>
      <trkpt lat="48.98952" lon="1.05564">
        <ele>105.5</ele>
        <time>2014-09-28T16:17:19Z</time>
      </trkpt>
      <trkpt lat="48.98943" lon="1.05571">
        <ele>107.5</ele>
        <time>2014-09-28T16:17:22Z</time>
      </trkpt>
      <trkpt lat="48.98935" lon="1.05579">
        <ele>108.5</ele>
        <time>2014-09-28T16:17:25Z</time>
      </trkpt>
      <trkpt lat="48.98927" lon="1.05586">
        <ele>110.5</ele>
        <time>2014-09-28T16:17:29Z</time>
      </trkpt>
      <trkpt lat="48.98919" lon="1.05592">
        <ele>112.5</ele>
        <time>2014-09-28T16:17:32Z</time>
      </trkpt>
      <trkpt lat="48.98912" lon="1.056">
        <ele>110.5</ele>
        <time>2014-09-28T16:17:34Z</time>
      </trkpt>
      <trkpt lat="48.98905" lon="1.05607">
        <ele>112.5</ele>
        <time>2014-09-28T16:17:38Z</time>
      </trkpt>
      <trkpt lat="48.98898" lon="1.05615">
        <ele>113.5</ele>
        <time>2014-09-28T16:17:41Z</time>
      </trkpt>
      <trkpt lat="48.98891" lon="1.05619">
        <ele>112.5</ele>
        <time>2014-09-28T16:17:43Z</time>
      </trkpt>
      <trkpt lat="48.98886" lon="1.0563">
        <ele>115.5</ele>
        <time>2014-09-28T16:19:24Z</time>
      </trkpt>
      <trkpt lat="48.98881" lon="1.05642">
        <ele>116.5</ele>
        <time>2014-09-28T16:19:28Z</time>
      </trkpt>
      <trkpt lat="48.98878" lon="1.05654">
        <ele>117.5</ele>
        <time>2014-09-28T16:19:30Z</time>
      </trkpt>
      <trkpt lat="48.98874" lon="1.05668">
        <ele>115.5</ele>
        <time>2014-09-28T16:19:33Z</time>
      </trkpt>
      <trkpt lat="48.98871" lon="1.05681">
        <ele>118.5</ele>
        <time>2014-09-28T16:19:36Z</time>
      </trkpt>
      <trkpt lat="48.98867" lon="1.05695">
        <ele>117.5</ele>
        <time>2014-09-28T16:19:39Z</time>
      </trkpt>
      <trkpt lat="48.98865" lon="1.05708">
        <ele>118.5</ele>
        <time>2014-09-28T16:19:42Z</time>
      </trkpt>
      <trkpt lat="48.98863" lon="1.05723">
        <ele>122.5</ele>
        <time>2014-09-28T16:19:45Z</time>
      </trkpt>
      <trkpt lat="48.98862" lon="1.05735">
        <ele>122.5</ele>
        <time>2014-09-28T16:19:47Z</time>
      </trkpt>
      <trkpt lat="48.98861" lon="1.05747">
        <ele>122.5</ele>
        <time>2014-09-28T16:19:49Z</time>
      </trkpt>
      <trkpt lat="48.9886" lon="1.05758">
        <ele>120.5</ele>
        <time>2014-09-28T16:19:51Z</time>
      </trkpt>
      <trkpt lat="48.98858" lon="1.0577">
        <ele>119.5</ele>
        <time>2014-09-28T16:19:54Z</time>
      </trkpt>
      <trkpt lat="48.98858" lon="1.05782">
        <ele>119.5</ele>
        <time>2014-09-28T16:19:55Z</time>
      </trkpt>
      <trkpt lat="48.98857" lon="1.05798">
        <ele>120.5</ele>
        <time>2014-09-28T16:19:58Z</time>
      </trkpt>
      <trkpt lat="48.98857" lon="1.05814">
        <ele>121.5</ele>
        <time>2014-09-28T16:20:01Z</time>
      </trkpt>
      <trkpt lat="48.98856" lon="1.05826">
        <ele>120.5</ele>
        <time>2014-09-28T16:20:03Z</time>
      </trkpt>
      <trkpt lat="48.98855" lon="1.05837">
        <ele>121.5</ele>
        <time>2014-09-28T16:20:05Z</time>
      </trkpt>
      <trkpt lat="48.98851" lon="1.05847">
        <ele>122.5</ele>
        <time>2014-09-28T16:20:08Z</time>
      </trkpt>
      <trkpt lat="48.98846" lon="1.05857">
        <ele>123.5</ele>
        <time>2014-09-28T16:20:09Z</time>
      </trkpt>
      <trkpt lat="48.98841" lon="1.05866">
        <ele>125.5</ele>
        <time>2014-09-28T16:20:11Z</time>
      </trkpt>
      <trkpt lat="48.98835" lon="1.05874">
        <ele>125.5</ele>
        <time>2014-09-28T16:20:14Z</time>
      </trkpt>
      <trkpt lat="48.98827" lon="1.05874">
        <ele>122.5</ele>
        <time>2014-09-28T16:20:23Z</time>
      </trkpt>
      <trkpt lat="48.9882" lon="1.05881">
        <ele>122.5</ele>
        <time>2014-09-28T16:20:26Z</time>
      </trkpt>
      <trkpt lat="48.98813" lon="1.05891">
        <ele>122.5</ele>
        <time>2014-09-28T16:20:29Z</time>
      </trkpt>
      <trkpt lat="48.98808" lon="1.05899">
        <ele>121.5</ele>
        <time>2014-09-28T16:20:31Z</time>
      </trkpt>
      <trkpt lat="48.98801" lon="1.05905">
        <ele>121.5</ele>
        <time>2014-09-28T16:20:33Z</time>
      </trkpt>
      <trkpt lat="48.98796" lon="1.05912">
        <ele>120.5</ele>
        <time>2014-09-28T16:20:35Z</time>
      </trkpt>
      <trkpt lat="48.98789" lon="1.05925">
        <ele>121.5</ele>
        <time>2014-09-28T16:20:38Z</time>
      </trkpt>
      <trkpt lat="48.98787" lon="1.05937">
        <ele>121.5</ele>
        <time>2014-09-28T16:20:40Z</time>
      </trkpt>
      <trkpt lat="48.98784" lon="1.05948">
        <ele>122.5</ele>
        <time>2014-09-28T16:20:42Z</time>
      </trkpt>
      <trkpt lat="48.98778" lon="1.05962">
        <ele>123.5</ele>
        <time>2014-09-28T16:20:45Z</time>
      </trkpt>
      <trkpt lat="48.98773" lon="1.05973">
        <ele>118.5</ele>
        <time>2014-09-28T16:20:49Z</time>
      </trkpt>
      <trkpt lat="48.9877" lon="1.05987">
        <ele>117.5</ele>
        <time>2014-09-28T16:20:51Z</time>
      </trkpt>
      <trkpt lat="48.9877" lon="1.06003">
        <ele>121.5</ele>
        <time>2014-09-28T16:20:54Z</time>
      </trkpt>
      <trkpt lat="48.98772" lon="1.06014">
        <ele>121.5</ele>
        <time>2014-09-28T16:20:57Z</time>
      </trkpt>
      <trkpt lat="48.98771" lon="1.06025">
        <ele>120.5</ele>
        <time>2014-09-28T16:21:02Z</time>
      </trkpt>
      <trkpt lat="48.98772" lon="1.06039">
        <ele>123.5</ele>
        <time>2014-09-28T16:21:07Z</time>
      </trkpt>
      <trkpt lat="48.9877" lon="1.06053">
        <ele>122.5</ele>
        <time>2014-09-28T16:21:12Z</time>
      </trkpt>
      <trkpt lat="48.98767" lon="1.06065">
        <ele>122.5</ele>
        <time>2014-09-28T16:21:15Z</time>
      </trkpt>
      <trkpt lat="48.98765" lon="1.06077">
        <ele>122.5</ele>
        <time>2014-09-28T16:21:20Z</time>
      </trkpt>
      <trkpt lat="48.98758" lon="1.06082">
        <ele>124.5</ele>
        <time>2014-09-28T16:21:25Z</time>
      </trkpt>
      <trkpt lat="48.98749" lon="1.06084">
        <ele>124.5</ele>
        <time>2014-09-28T16:21:29Z</time>
      </trkpt>
      <trkpt lat="48.98743" lon="1.06091">
        <ele>124.5</ele>
        <time>2014-09-28T16:21:34Z</time>
      </trkpt>
      <trkpt lat="48.98735" lon="1.06094">
        <ele>124.5</ele>
        <time>2014-09-28T16:21:40Z</time>
      </trkpt>
      <trkpt lat="48.98729" lon="1.06108">
        <ele>127.5</ele>
        <time>2014-09-28T16:21:43Z</time>
      </trkpt>
      <trkpt lat="48.98723" lon="1.06122">
        <ele>131.5</ele>
        <time>2014-09-28T16:21:46Z</time>
      </trkpt>
      <trkpt lat="48.98719" lon="1.06133">
        <ele>129.5</ele>
        <time>2014-09-28T16:21:48Z</time>
      </trkpt>
      <trkpt lat="48.98714" lon="1.06144">
        <ele>130.5</ele>
        <time>2014-09-28T16:21:50Z</time>
      </trkpt>
      <trkpt lat="48.98712" lon="1.06156">
        <ele>130.5</ele>
        <time>2014-09-28T16:21:52Z</time>
      </trkpt>
      <trkpt lat="48.98711" lon="1.06169">
        <ele>129.5</ele>
        <time>2014-09-28T16:21:54Z</time>
      </trkpt>
      <trkpt lat="48.98708" lon="1.06179">
        <ele>129.5</ele>
        <time>2014-09-28T16:21:57Z</time>
      </trkpt>
      <trkpt lat="48.98705" lon="1.06194">
        <ele>127.5</ele>
        <time>2014-09-28T16:21:59Z</time>
      </trkpt>
      <trkpt lat="48.98703" lon="1.06206">
        <ele>132.5</ele>
        <time>2014-09-28T16:22:01Z</time>
      </trkpt>
      <trkpt lat="48.98701" lon="1.06216">
        <ele>134.5</ele>
        <time>2014-09-28T16:22:03Z</time>
      </trkpt>
      <trkpt lat="48.98702" lon="1.06231">
        <ele>131.5</ele>
        <time>2014-09-28T16:22:06Z</time>
      </trkpt>
      <trkpt lat="48.98701" lon="1.06245">
        <ele>133.5</ele>
        <time>2014-09-28T16:22:07Z</time>
      </trkpt>
      <trkpt lat="48.98701" lon="1.06266">
        <ele>135.5</ele>
        <time>2014-09-28T16:22:09Z</time>
      </trkpt>
      <trkpt lat="48.98695" lon="1.0628">
        <ele>133.5</ele>
        <time>2014-09-28T16:22:11Z</time>
      </trkpt>
      <trkpt lat="48.98689" lon="1.06292">
        <ele>132.5</ele>
        <time>2014-09-28T16:22:13Z</time>
      </trkpt>
      <trkpt lat="48.98686" lon="1.06306">
        <ele>130.5</ele>
        <time>2014-09-28T16:22:16Z</time>
      </trkpt>
      <trkpt lat="48.98681" lon="1.06318">
        <ele>129.5</ele>
        <time>2014-09-28T16:22:17Z</time>
      </trkpt>
      <trkpt lat="48.98674" lon="1.0633">
        <ele>126.5</ele>
        <time>2014-09-28T16:22:20Z</time>
      </trkpt>
      <trkpt lat="48.98667" lon="1.0634">
        <ele>127.5</ele>
        <time>2014-09-28T16:22:22Z</time>
      </trkpt>
      <trkpt lat="48.98659" lon="1.06348">
        <ele>130.5</ele>
        <time>2014-09-28T16:22:24Z</time>
      </trkpt>
      <trkpt lat="48.98655" lon="1.06363">
        <ele>130.5</ele>
        <time>2014-09-28T16:22:26Z</time>
      </trkpt>
      <trkpt lat="48.98649" lon="1.06374">
        <ele>131.5</ele>
        <time>2014-09-28T16:22:28Z</time>
      </trkpt>
      <trkpt lat="48.98644" lon="1.06386">
        <ele>127.5</ele>
        <time>2014-09-28T16:22:30Z</time>
      </trkpt>
      <trkpt lat="48.98638" lon="1.064">
        <ele>131.5</ele>
        <time>2014-09-28T16:22:32Z</time>
      </trkpt>
      <trkpt lat="48.98633" lon="1.06416">
        <ele>129.5</ele>
        <time>2014-09-28T16:22:34Z</time>
      </trkpt>
      <trkpt lat="48.98627" lon="1.0643">
        <ele>129.5</ele>
        <time>2014-09-28T16:22:37Z</time>
      </trkpt>
      <trkpt lat="48.9862" lon="1.06443">
        <ele>130.5</ele>
        <time>2014-09-28T16:22:38Z</time>
      </trkpt>
      <trkpt lat="48.98614" lon="1.06453">
        <ele>126.5</ele>
        <time>2014-09-28T16:22:41Z</time>
      </trkpt>
      <trkpt lat="48.98608" lon="1.06465">
        <ele>124.5</ele>
        <time>2014-09-28T16:22:42Z</time>
      </trkpt>
      <trkpt lat="48.98601" lon="1.06477">
        <ele>127.5</ele>
        <time>2014-09-28T16:22:44Z</time>
      </trkpt>
      <trkpt lat="48.98596" lon="1.06489">
        <ele>127.5</ele>
        <time>2014-09-28T16:22:46Z</time>
      </trkpt>
      <trkpt lat="48.9859" lon="1.06501">
        <ele>127.5</ele>
        <time>2014-09-28T16:22:48Z</time>
      </trkpt>
      <trkpt lat="48.98587" lon="1.06515">
        <ele>126.5</ele>
        <time>2014-09-28T16:22:50Z</time>
      </trkpt>
      <trkpt lat="48.98582" lon="1.06529">
        <ele>124.5</ele>
        <time>2014-09-28T16:22:52Z</time>
      </trkpt>
      <trkpt lat="48.9858" lon="1.0654">
        <ele>125.5</ele>
        <time>2014-09-28T16:22:54Z</time>
      </trkpt>
      <trkpt lat="48.98575" lon="1.06551">
        <ele>123.5</ele>
        <time>2014-09-28T16:22:57Z</time>
      </trkpt>
      <trkpt lat="48.98571" lon="1.06561">
        <ele>124.5</ele>
        <time>2014-09-28T16:22:59Z</time>
      </trkpt>
      <trkpt lat="48.98567" lon="1.06571">
        <ele>125.5</ele>
        <time>2014-09-28T16:23:01Z</time>
      </trkpt>
      <trkpt lat="48.98562" lon="1.06585">
        <ele>130.5</ele>
        <time>2014-09-28T16:23:04Z</time>
      </trkpt>
      <trkpt lat="48.98558" lon="1.066">
        <ele>128.5</ele>
        <time>2014-09-28T16:23:07Z</time>
      </trkpt>
      <trkpt lat="48.98554" lon="1.06614">
        <ele>129.5</ele>
        <time>2014-09-28T16:23:10Z</time>
      </trkpt>
      <trkpt lat="48.98553" lon="1.06625">
        <ele>129.5</ele>
        <time>2014-09-28T16:23:12Z</time>
      </trkpt>
      <trkpt lat="48.98553" lon="1.06641">
        <ele>129.5</ele>
        <time>2014-09-28T16:23:15Z</time>
      </trkpt>
      <trkpt lat="48.98554" lon="1.06654">
        <ele>128.5</ele>
        <time>2014-09-28T16:23:17Z</time>
      </trkpt>
      <trkpt lat="48.98555" lon="1.06665">
        <ele>132.5</ele>
        <time>2014-09-28T16:23:19Z</time>
      </trkpt>
      <trkpt lat="48.98557" lon="1.0668">
        <ele>134.5</ele>
        <time>2014-09-28T16:23:22Z</time>
      </trkpt>
      <trkpt lat="48.98558" lon="1.06692">
        <ele>133.5</ele>
        <time>2014-09-28T16:23:25Z</time>
      </trkpt>
      <trkpt lat="48.98558" lon="1.06706">
        <ele>135.5</ele>
        <time>2014-09-28T16:23:29Z</time>
      </trkpt>
      <trkpt lat="48.98557" lon="1.06718">
        <ele>135.5</ele>
        <time>2014-09-28T16:23:32Z</time>
      </trkpt>
      <trkpt lat="48.98551" lon="1.06729">
        <ele>137.5</ele>
        <time>2014-09-28T16:24:06Z</time>
      </trkpt>
      <trkpt lat="48.98547" lon="1.06742">
        <ele>138.5</ele>
        <time>2014-09-28T16:24:09Z</time>
      </trkpt>
      <trkpt lat="48.98543" lon="1.06752">
        <ele>135.5</ele>
        <time>2014-09-28T16:24:11Z</time>
      </trkpt>
      <trkpt lat="48.98539" lon="1.06766">
        <ele>135.5</ele>
        <time>2014-09-28T16:24:14Z</time>
      </trkpt>
      <trkpt lat="48.98532" lon="1.06779">
        <ele>133.5</ele>
        <time>2014-09-28T16:24:17Z</time>
      </trkpt>
      <trkpt lat="48.98528" lon="1.06789">
        <ele>136.5</ele>
        <time>2014-09-28T16:24:19Z</time>
      </trkpt>
      <trkpt lat="48.98523" lon="1.06801">
        <ele>136.5</ele>
        <time>2014-09-28T16:24:21Z</time>
      </trkpt>
      <trkpt lat="48.98518" lon="1.06811">
        <ele>135.5</ele>
        <time>2014-09-28T16:24:23Z</time>
      </trkpt>
      <trkpt lat="48.98513" lon="1.06821">
        <ele>135.5</ele>
        <time>2014-09-28T16:24:25Z</time>
      </trkpt>
      <trkpt lat="48.98507" lon="1.06832">
        <ele>135.5</ele>
        <time>2014-09-28T16:24:28Z</time>
      </trkpt>
      <trkpt lat="48.98502" lon="1.06842">
        <ele>134.5</ele>
        <time>2014-09-28T16:24:30Z</time>
      </trkpt>
      <trkpt lat="48.98497" lon="1.0685">
        <ele>136.5</ele>
        <time>2014-09-28T16:24:31Z</time>
      </trkpt>
      <trkpt lat="48.98491" lon="1.06863">
        <ele>137.5</ele>
        <time>2014-09-28T16:24:35Z</time>
      </trkpt>
      <trkpt lat="48.98485" lon="1.06876">
        <ele>134.5</ele>
        <time>2014-09-28T16:24:37Z</time>
      </trkpt>
      <trkpt lat="48.98481" lon="1.06886">
        <ele>132.5</ele>
        <time>2014-09-28T16:24:39Z</time>
      </trkpt>
      <trkpt lat="48.98474" lon="1.06899">
        <ele>128.5</ele>
        <time>2014-09-28T16:24:42Z</time>
      </trkpt>
      <trkpt lat="48.98467" lon="1.06912">
        <ele>128.5</ele>
        <time>2014-09-28T16:24:45Z</time>
      </trkpt>
      <trkpt lat="48.98462" lon="1.06926">
        <ele>127.5</ele>
        <time>2014-09-28T16:24:48Z</time>
      </trkpt>
      <trkpt lat="48.9846" lon="1.06936">
        <ele>131.5</ele>
        <time>2014-09-28T16:24:50Z</time>
      </trkpt>
      <trkpt lat="48.98458" lon="1.06948">
        <ele>130.5</ele>
        <time>2014-09-28T16:24:52Z</time>
      </trkpt>
      <trkpt lat="48.98455" lon="1.06959">
        <ele>129.5</ele>
        <time>2014-09-28T16:24:54Z</time>
      </trkpt>
      <trkpt lat="48.98451" lon="1.06969">
        <ele>129.5</ele>
        <time>2014-09-28T16:24:57Z</time>
      </trkpt>
      <trkpt lat="48.98446" lon="1.06977">
        <ele>131.5</ele>
        <time>2014-09-28T16:24:58Z</time>
      </trkpt>
      <trkpt lat="48.98441" lon="1.06986">
        <ele>131.5</ele>
        <time>2014-09-28T16:25:00Z</time>
      </trkpt>
      <trkpt lat="48.98435" lon="1.06993">
        <ele>132.5</ele>
        <time>2014-09-28T16:25:02Z</time>
      </trkpt>
      <trkpt lat="48.98429" lon="1.07001">
        <ele>133.5</ele>
        <time>2014-09-28T16:25:04Z</time>
      </trkpt>
      <trkpt lat="48.98424" lon="1.07011">
        <ele>137.5</ele>
        <time>2014-09-28T16:25:06Z</time>
      </trkpt>
      <trkpt lat="48.9842" lon="1.07021">
        <ele>135.5</ele>
        <time>2014-09-28T16:25:09Z</time>
      </trkpt>
      <trkpt lat="48.98417" lon="1.07031">
        <ele>135.5</ele>
        <time>2014-09-28T16:25:10Z</time>
      </trkpt>
      <trkpt lat="48.98412" lon="1.07045">
        <ele>136.5</ele>
        <time>2014-09-28T16:25:13Z</time>
      </trkpt>
      <trkpt lat="48.98408" lon="1.07056">
        <ele>137.5</ele>
        <time>2014-09-28T16:25:16Z</time>
      </trkpt>
      <trkpt lat="48.98404" lon="1.07067">
        <ele>136.5</ele>
        <time>2014-09-28T16:25:19Z</time>
      </trkpt>
      <trkpt lat="48.98399" lon="1.07078">
        <ele>139.5</ele>
        <time>2014-09-28T16:25:23Z</time>
      </trkpt>
      <trkpt lat="48.98391" lon="1.07087">
        <ele>140.5</ele>
        <time>2014-09-28T16:25:26Z</time>
      </trkpt>
      <trkpt lat="48.98387" lon="1.07102">
        <ele>136.5</ele>
        <time>2014-09-28T16:25:30Z</time>
      </trkpt>
      <trkpt lat="48.98382" lon="1.07117">
        <ele>134.5</ele>
        <time>2014-09-28T16:25:32Z</time>
      </trkpt>
      <trkpt lat="48.98379" lon="1.07129">
        <ele>135.5</ele>
        <time>2014-09-28T16:25:34Z</time>
      </trkpt>
      <trkpt lat="48.98376" lon="1.0714">
        <ele>136.5</ele>
        <time>2014-09-28T16:25:36Z</time>
      </trkpt>
      <trkpt lat="48.98376" lon="1.07152">
        <ele>134.5</ele>
        <time>2014-09-28T16:25:38Z</time>
      </trkpt>
      <trkpt lat="48.98376" lon="1.07164">
        <ele>135.5</ele>
        <time>2014-09-28T16:25:40Z</time>
      </trkpt>
      <trkpt lat="48.98376" lon="1.07176">
        <ele>132.5</ele>
        <time>2014-09-28T16:25:42Z</time>
      </trkpt>
      <trkpt lat="48.98376" lon="1.07187">
        <ele>133.5</ele>
        <time>2014-09-28T16:25:45Z</time>
      </trkpt>
      <trkpt lat="48.98373" lon="1.07201">
        <ele>136.5</ele>
        <time>2014-09-28T16:25:48Z</time>
      </trkpt>
      <trkpt lat="48.98368" lon="1.07215">
        <ele>130.5</ele>
        <time>2014-09-28T16:25:50Z</time>
      </trkpt>
      <trkpt lat="48.98363" lon="1.0723">
        <ele>128.5</ele>
        <time>2014-09-28T16:25:53Z</time>
      </trkpt>
      <trkpt lat="48.98359" lon="1.07241">
        <ele>128.5</ele>
        <time>2014-09-28T16:25:55Z</time>
      </trkpt>
      <trkpt lat="48.98355" lon="1.07254">
        <ele>129.5</ele>
        <time>2014-09-28T16:25:57Z</time>
      </trkpt>
      <trkpt lat="48.98352" lon="1.07266">
        <ele>127.5</ele>
        <time>2014-09-28T16:25:59Z</time>
      </trkpt>
      <trkpt lat="48.98348" lon="1.07278">
        <ele>128.5</ele>
        <time>2014-09-28T16:26:01Z</time>
      </trkpt>
      <trkpt lat="48.98343" lon="1.07288">
        <ele>129.5</ele>
        <time>2014-09-28T16:26:03Z</time>
      </trkpt>
      <trkpt lat="48.98338" lon="1.07298">
        <ele>128.5</ele>
        <time>2014-09-28T16:26:06Z</time>
      </trkpt>
      <trkpt lat="48.98333" lon="1.07308">
        <ele>127.5</ele>
        <time>2014-09-28T16:26:06Z</time>
      </trkpt>
      <trkpt lat="48.9833" lon="1.0732">
        <ele>130.5</ele>
        <time>2014-09-28T16:26:08Z</time>
      </trkpt>
      <trkpt lat="48.98323" lon="1.07331">
        <ele>130.5</ele>
        <time>2014-09-28T16:26:11Z</time>
      </trkpt>
      <trkpt lat="48.98317" lon="1.07342">
        <ele>132.5</ele>
        <time>2014-09-28T16:26:12Z</time>
      </trkpt>
      <trkpt lat="48.98311" lon="1.0735">
        <ele>130.5</ele>
        <time>2014-09-28T16:26:14Z</time>
      </trkpt>
      <trkpt lat="48.98304" lon="1.07358">
        <ele>130.5</ele>
        <time>2014-09-28T16:26:16Z</time>
      </trkpt>
      <trkpt lat="48.98301" lon="1.07368">
        <ele>127.5</ele>
        <time>2014-09-28T16:26:18Z</time>
      </trkpt>
      <trkpt lat="48.98296" lon="1.07379">
        <ele>127.5</ele>
        <time>2014-09-28T16:26:20Z</time>
      </trkpt>
      <trkpt lat="48.9829" lon="1.07389">
        <ele>123.5</ele>
        <time>2014-09-28T16:26:22Z</time>
      </trkpt>
      <trkpt lat="48.98281" lon="1.074">
        <ele>126.5</ele>
        <time>2014-09-28T16:26:24Z</time>
      </trkpt>
      <trkpt lat="48.98275" lon="1.07411">
        <ele>126.5</ele>
        <time>2014-09-28T16:26:26Z</time>
      </trkpt>
      <trkpt lat="48.98269" lon="1.07425">
        <ele>129.5</ele>
        <time>2014-09-28T16:26:28Z</time>
      </trkpt>
      <trkpt lat="48.98266" lon="1.0744">
        <ele>127.5</ele>
        <time>2014-09-28T16:26:30Z</time>
      </trkpt>
      <trkpt lat="48.98263" lon="1.07453">
        <ele>127.5</ele>
        <time>2014-09-28T16:26:32Z</time>
      </trkpt>
      <trkpt lat="48.98258" lon="1.07468">
        <ele>126.5</ele>
        <time>2014-09-28T16:26:34Z</time>
      </trkpt>
      <trkpt lat="48.98257" lon="1.0748">
        <ele>125.5</ele>
        <time>2014-09-28T16:26:36Z</time>
      </trkpt>
      <trkpt lat="48.98253" lon="1.07494">
        <ele>128.5</ele>
        <time>2014-09-28T16:26:38Z</time>
      </trkpt>
      <trkpt lat="48.98248" lon="1.07503">
        <ele>130.5</ele>
        <time>2014-09-28T16:26:40Z</time>
      </trkpt>
      <trkpt lat="48.98242" lon="1.0751">
        <ele>133.5</ele>
        <time>2014-09-28T16:26:42Z</time>
      </trkpt>
      <trkpt lat="48.98233" lon="1.07519">
        <ele>136.5</ele>
        <time>2014-09-28T16:26:45Z</time>
      </trkpt>
      <trkpt lat="48.98226" lon="1.07525">
        <ele>135.5</ele>
        <time>2014-09-28T16:26:47Z</time>
      </trkpt>
      <trkpt lat="48.98218" lon="1.07536">
        <ele>135.5</ele>
        <time>2014-09-28T16:26:51Z</time>
      </trkpt>
      <trkpt lat="48.98211" lon="1.07544">
        <ele>133.5</ele>
        <time>2014-09-28T16:26:52Z</time>
      </trkpt>
      <trkpt lat="48.98205" lon="1.07552">
        <ele>132.5</ele>
        <time>2014-09-28T16:26:54Z</time>
      </trkpt>
      <trkpt lat="48.98198" lon="1.07558">
        <ele>133.5</ele>
        <time>2014-09-28T16:26:56Z</time>
      </trkpt>
      <trkpt lat="48.98191" lon="1.07563">
        <ele>133.5</ele>
        <time>2014-09-28T16:26:58Z</time>
      </trkpt>
      <trkpt lat="48.98184" lon="1.07567">
        <ele>136.5</ele>
        <time>2014-09-28T16:27:00Z</time>
      </trkpt>
      <trkpt lat="48.98177" lon="1.07571">
        <ele>137.5</ele>
        <time>2014-09-28T16:27:02Z</time>
      </trkpt>
      <trkpt lat="48.98169" lon="1.07575">
        <ele>135.5</ele>
        <time>2014-09-28T16:27:04Z</time>
      </trkpt>
      <trkpt lat="48.98161" lon="1.07583">
        <ele>135.5</ele>
        <time>2014-09-28T16:27:07Z</time>
      </trkpt>
      <trkpt lat="48.98155" lon="1.07592">
        <ele>138.5</ele>
        <time>2014-09-28T16:27:11Z</time>
      </trkpt>
      <trkpt lat="48.98148" lon="1.07598">
        <ele>139.5</ele>
        <time>2014-09-28T16:27:16Z</time>
      </trkpt>
      <trkpt lat="48.98141" lon="1.07604">
        <ele>143.5</ele>
        <time>2014-09-28T16:27:18Z</time>
      </trkpt>
      <trkpt lat="48.98133" lon="1.0761">
        <ele>144.5</ele>
        <time>2014-09-28T16:27:21Z</time>
      </trkpt>
      <trkpt lat="48.9813" lon="1.07612">
        <ele>143.5</ele>
        <time>2014-09-28T16:27:22Z</time>
      </trkpt>
      <trkpt lat="48.98122" lon="1.0762">
        <ele>139.5</ele>
        <time>2014-09-28T16:27:25Z</time>
      </trkpt>
      <trkpt lat="48.98114" lon="1.07628">
        <ele>137.5</ele>
        <time>2014-09-28T16:27:28Z</time>
      </trkpt>
      <trkpt lat="48.98106" lon="1.07638">
        <ele>132.5</ele>
        <time>2014-09-28T16:27:32Z</time>
      </trkpt>
      <trkpt lat="48.98101" lon="1.07646">
        <ele>136.5</ele>
        <time>2014-09-28T16:27:33Z</time>
      </trkpt>
      <trkpt lat="48.98095" lon="1.07655">
        <ele>137.5</ele>
        <time>2014-09-28T16:27:35Z</time>
      </trkpt>
      <trkpt lat="48.98093" lon="1.07659">
        <ele>135.5</ele>
        <time>2014-09-28T16:27:36Z</time>
      </trkpt>
      <trkpt lat="48.98088" lon="1.07667">
        <ele>135.5</ele>
        <time>2014-09-28T16:27:38Z</time>
      </trkpt>
      <trkpt lat="48.98082" lon="1.07675">
        <ele>134.5</ele>
        <time>2014-09-28T16:27:40Z</time>
      </trkpt>
      <trkpt lat="48.98077" lon="1.07683">
        <ele>135.5</ele>
        <time>2014-09-28T16:27:42Z</time>
      </trkpt>
      <trkpt lat="48.9807" lon="1.07695">
        <ele>138.5</ele>
        <time>2014-09-28T16:27:45Z</time>
      </trkpt>
      <trkpt lat="48.98061" lon="1.07704">
        <ele>136.5</ele>
        <time>2014-09-28T16:27:48Z</time>
      </trkpt>
      <trkpt lat="48.98053" lon="1.07711">
        <ele>134.5</ele>
        <time>2014-09-28T16:27:51Z</time>
      </trkpt>
      <trkpt lat="48.98045" lon="1.07718">
        <ele>134.5</ele>
        <time>2014-09-28T16:27:54Z</time>
      </trkpt>
      <trkpt lat="48.98037" lon="1.07725">
        <ele>132.5</ele>
        <time>2014-09-28T16:27:57Z</time>
      </trkpt>
      <trkpt lat="48.9803" lon="1.07733">
        <ele>130.5</ele>
        <time>2014-09-28T16:28:01Z</time>
      </trkpt>
      <trkpt lat="48.98024" lon="1.07741">
        <ele>128.5</ele>
        <time>2014-09-28T16:28:04Z</time>
      </trkpt>
      <trkpt lat="48.98018" lon="1.07751">
        <ele>128.5</ele>
        <time>2014-09-28T16:28:07Z</time>
      </trkpt>
      <trkpt lat="48.98012" lon="1.07761">
        <ele>128.5</ele>
        <time>2014-09-28T16:28:12Z</time>
      </trkpt>
      <trkpt lat="48.98005" lon="1.07768">
        <ele>126.5</ele>
        <time>2014-09-28T16:28:15Z</time>
      </trkpt>
      <trkpt lat="48.97999" lon="1.07761">
        <ele>134.5</ele>
        <time>2014-09-28T16:32:08Z</time>
      </trkpt>
      <trkpt lat="48.97996" lon="1.07747">
        <ele>134.5</ele>
        <time>2014-09-28T16:32:11Z</time>
      </trkpt>
      <trkpt lat="48.97994" lon="1.07737">
        <ele>138.5</ele>
        <time>2014-09-28T16:32:13Z</time>
      </trkpt>
      <trkpt lat="48.97992" lon="1.07721">
        <ele>139.5</ele>
        <time>2014-09-28T16:32:16Z</time>
      </trkpt>
      <trkpt lat="48.9799" lon="1.0771">
        <ele>139.5</ele>
        <time>2014-09-28T16:32:18Z</time>
      </trkpt>
      <trkpt lat="48.97989" lon="1.07696">
        <ele>141.5</ele>
        <time>2014-09-28T16:32:20Z</time>
      </trkpt>
      <trkpt lat="48.97988" lon="1.07684">
        <ele>140.5</ele>
        <time>2014-09-28T16:32:22Z</time>
      </trkpt>
      <trkpt lat="48.97986" lon="1.07673">
        <ele>141.5</ele>
        <time>2014-09-28T16:32:24Z</time>
      </trkpt>
      <trkpt lat="48.97983" lon="1.07662">
        <ele>140.5</ele>
        <time>2014-09-28T16:32:27Z</time>
      </trkpt>
      <trkpt lat="48.97981" lon="1.07651">
        <ele>141.5</ele>
        <time>2014-09-28T16:32:29Z</time>
      </trkpt>
      <trkpt lat="48.97979" lon="1.07637">
        <ele>143.5</ele>
        <time>2014-09-28T16:32:31Z</time>
      </trkpt>
      <trkpt lat="48.97978" lon="1.07626">
        <ele>142.5</ele>
        <time>2014-09-28T16:32:34Z</time>
      </trkpt>
      <trkpt lat="48.97975" lon="1.07615">
        <ele>143.5</ele>
        <time>2014-09-28T16:33:20Z</time>
      </trkpt>
      <trkpt lat="48.97971" lon="1.07606">
        <ele>143.5</ele>
        <time>2014-09-28T16:33:36Z</time>
      </trkpt>
      <trkpt lat="48.97963" lon="1.0761">
        <ele>142.5</ele>
        <time>2014-09-28T16:34:08Z</time>
      </trkpt>
      <trkpt lat="48.97956" lon="1.07617">
        <ele>140.5</ele>
        <time>2014-09-28T16:34:11Z</time>
      </trkpt>
      <trkpt lat="48.97948" lon="1.07629">
        <ele>141.5</ele>
        <time>2014-09-28T16:34:14Z</time>
      </trkpt>
      <trkpt lat="48.97943" lon="1.07638">
        <ele>140.5</ele>
        <time>2014-09-28T16:34:16Z</time>
      </trkpt>
      <trkpt lat="48.97937" lon="1.07649">
        <ele>138.5</ele>
        <time>2014-09-28T16:34:18Z</time>
      </trkpt>
      <trkpt lat="48.97932" lon="1.07657">
        <ele>137.5</ele>
        <time>2014-09-28T16:34:20Z</time>
      </trkpt>
      <trkpt lat="48.97927" lon="1.07666">
        <ele>137.5</ele>
        <time>2014-09-28T16:34:22Z</time>
      </trkpt>
      <trkpt lat="48.97922" lon="1.07675">
        <ele>136.5</ele>
        <time>2014-09-28T16:34:24Z</time>
      </trkpt>
      <trkpt lat="48.97918" lon="1.07685">
        <ele>138.5</ele>
        <time>2014-09-28T16:34:26Z</time>
      </trkpt>
      <trkpt lat="48.97913" lon="1.07694">
        <ele>138.5</ele>
        <time>2014-09-28T16:34:28Z</time>
      </trkpt>
      <trkpt lat="48.97908" lon="1.07703">
        <ele>140.5</ele>
        <time>2014-09-28T16:34:31Z</time>
      </trkpt>
      <trkpt lat="48.97903" lon="1.07713">
        <ele>140.5</ele>
        <time>2014-09-28T16:34:32Z</time>
      </trkpt>
      <trkpt lat="48.97898" lon="1.07722">
        <ele>139.5</ele>
        <time>2014-09-28T16:34:34Z</time>
      </trkpt>
      <trkpt lat="48.97894" lon="1.07733">
        <ele>137.5</ele>
        <time>2014-09-28T16:34:36Z</time>
      </trkpt>
      <trkpt lat="48.97889" lon="1.07744">
        <ele>137.5</ele>
        <time>2014-09-28T16:34:38Z</time>
      </trkpt>
      <trkpt lat="48.97884" lon="1.07757">
        <ele>137.5</ele>
        <time>2014-09-28T16:34:41Z</time>
      </trkpt>
      <trkpt lat="48.97879" lon="1.07768">
        <ele>136.5</ele>
        <time>2014-09-28T16:34:42Z</time>
      </trkpt>
      <trkpt lat="48.97872" lon="1.07777">
        <ele>136.5</ele>
        <time>2014-09-28T16:34:43Z</time>
      </trkpt>
      <trkpt lat="48.97865" lon="1.07784">
        <ele>139.5</ele>
        <time>2014-09-28T16:34:45Z</time>
      </trkpt>
      <trkpt lat="48.9786" lon="1.07796">
        <ele>141.5</ele>
        <time>2014-09-28T16:34:47Z</time>
      </trkpt>
      <trkpt lat="48.97856" lon="1.07811">
        <ele>139.5</ele>
        <time>2014-09-28T16:34:49Z</time>
      </trkpt>
      <trkpt lat="48.97849" lon="1.0782">
        <ele>141.5</ele>
        <time>2014-09-28T16:34:51Z</time>
      </trkpt>
      <trkpt lat="48.97843" lon="1.07828">
        <ele>142.5</ele>
        <time>2014-09-28T16:34:53Z</time>
      </trkpt>
      <trkpt lat="48.97843" lon="1.07844">
        <ele>144.5</ele>
        <time>2014-09-28T16:34:55Z</time>
      </trkpt>
      <trkpt lat="48.97837" lon="1.07856">
        <ele>141.5</ele>
        <time>2014-09-28T16:34:57Z</time>
      </trkpt>
      <trkpt lat="48.9783" lon="1.0787">
        <ele>142.5</ele>
        <time>2014-09-28T16:35:00Z</time>
      </trkpt>
      <trkpt lat="48.97824" lon="1.07883">
        <ele>143.5</ele>
        <time>2014-09-28T16:35:02Z</time>
      </trkpt>
      <trkpt lat="48.97818" lon="1.07892">
        <ele>144.5</ele>
        <time>2014-09-28T16:35:04Z</time>
      </trkpt>
      <trkpt lat="48.97813" lon="1.07903">
        <ele>146.5</ele>
        <time>2014-09-28T16:35:06Z</time>
      </trkpt>
      <trkpt lat="48.97809" lon="1.07914">
        <ele>142.5</ele>
        <time>2014-09-28T16:35:08Z</time>
      </trkpt>
      <trkpt lat="48.97805" lon="1.07926">
        <ele>141.5</ele>
        <time>2014-09-28T16:35:10Z</time>
      </trkpt>
      <trkpt lat="48.978" lon="1.07938">
        <ele>141.5</ele>
        <time>2014-09-28T16:35:12Z</time>
      </trkpt>
      <trkpt lat="48.97794" lon="1.07949">
        <ele>139.5</ele>
        <time>2014-09-28T16:35:14Z</time>
      </trkpt>
      <trkpt lat="48.97787" lon="1.07961">
        <ele>136.5</ele>
        <time>2014-09-28T16:35:16Z</time>
      </trkpt>
      <trkpt lat="48.9778" lon="1.07975">
        <ele>136.5</ele>
        <time>2014-09-28T16:35:18Z</time>
      </trkpt>
      <trkpt lat="48.97774" lon="1.07986">
        <ele>136.5</ele>
        <time>2014-09-28T16:35:20Z</time>
      </trkpt>
      <trkpt lat="48.97769" lon="1.08">
        <ele>140.5</ele>
        <time>2014-09-28T16:35:22Z</time>
      </trkpt>
      <trkpt lat="48.97764" lon="1.08012">
        <ele>139.5</ele>
        <time>2014-09-28T16:35:25Z</time>
      </trkpt>
      <trkpt lat="48.97756" lon="1.08023">
        <ele>137.5</ele>
        <time>2014-09-28T16:35:26Z</time>
      </trkpt>
      <trkpt lat="48.97749" lon="1.08037">
        <ele>139.5</ele>
        <time>2014-09-28T16:35:28Z</time>
      </trkpt>
      <trkpt lat="48.97743" lon="1.08052">
        <ele>139.5</ele>
        <time>2014-09-28T16:35:30Z</time>
      </trkpt>
      <trkpt lat="48.97735" lon="1.08066">
        <ele>137.5</ele>
        <time>2014-09-28T16:35:32Z</time>
      </trkpt>
      <trkpt lat="48.97728" lon="1.0808">
        <ele>135.5</ele>
        <time>2014-09-28T16:35:34Z</time>
      </trkpt>
      <trkpt lat="48.97722" lon="1.08096">
        <ele>135.5</ele>
        <time>2014-09-28T16:35:36Z</time>
      </trkpt>
      <trkpt lat="48.97715" lon="1.08112">
        <ele>135.5</ele>
        <time>2014-09-28T16:35:38Z</time>
      </trkpt>
      <trkpt lat="48.97708" lon="1.08126">
        <ele>135.5</ele>
        <time>2014-09-28T16:35:40Z</time>
      </trkpt>
      <trkpt lat="48.97702" lon="1.08139">
        <ele>135.5</ele>
        <time>2014-09-28T16:35:42Z</time>
      </trkpt>
      <trkpt lat="48.97696" lon="1.08154">
        <ele>136.5</ele>
        <time>2014-09-28T16:35:44Z</time>
      </trkpt>
      <trkpt lat="48.97687" lon="1.0817">
        <ele>136.5</ele>
        <time>2014-09-28T16:35:46Z</time>
      </trkpt>
      <trkpt lat="48.9768" lon="1.08185">
        <ele>136.5</ele>
        <time>2014-09-28T16:35:48Z</time>
      </trkpt>
      <trkpt lat="48.97674" lon="1.082">
        <ele>134.5</ele>
        <time>2014-09-28T16:35:50Z</time>
      </trkpt>
      <trkpt lat="48.9767" lon="1.08207">
        <ele>133.5</ele>
        <time>2014-09-28T16:35:51Z</time>
      </trkpt>
      <trkpt lat="48.97664" lon="1.08221">
        <ele>132.5</ele>
        <time>2014-09-28T16:35:53Z</time>
      </trkpt>
      <trkpt lat="48.97659" lon="1.0823">
        <ele>130.5</ele>
        <time>2014-09-28T16:35:54Z</time>
      </trkpt>
      <trkpt lat="48.97655" lon="1.08243">
        <ele>130.5</ele>
        <time>2014-09-28T16:35:57Z</time>
      </trkpt>
      <trkpt lat="48.97652" lon="1.08251">
        <ele>132.5</ele>
        <time>2014-09-28T16:35:57Z</time>
      </trkpt>
      <trkpt lat="48.97644" lon="1.0827">
        <ele>131.5</ele>
        <time>2014-09-28T16:35:59Z</time>
      </trkpt>
      <trkpt lat="48.97637" lon="1.08283">
        <ele>132.5</ele>
        <time>2014-09-28T16:36:01Z</time>
      </trkpt>
      <trkpt lat="48.97632" lon="1.08301">
        <ele>135.5</ele>
        <time>2014-09-28T16:36:03Z</time>
      </trkpt>
      <trkpt lat="48.97623" lon="1.08317">
        <ele>135.5</ele>
        <time>2014-09-28T16:36:05Z</time>
      </trkpt>
      <trkpt lat="48.97616" lon="1.08331">
        <ele>137.5</ele>
        <time>2014-09-28T16:36:07Z</time>
      </trkpt>
      <trkpt lat="48.97612" lon="1.08338">
        <ele>138.5</ele>
        <time>2014-09-28T16:36:08Z</time>
      </trkpt>
      <trkpt lat="48.97607" lon="1.08346">
        <ele>139.5</ele>
        <time>2014-09-28T16:36:09Z</time>
      </trkpt>
      <trkpt lat="48.97596" lon="1.08361">
        <ele>138.5</ele>
        <time>2014-09-28T16:36:11Z</time>
      </trkpt>
      <trkpt lat="48.9759" lon="1.0838">
        <ele>139.5</ele>
        <time>2014-09-28T16:36:13Z</time>
      </trkpt>
      <trkpt lat="48.97585" lon="1.08396">
        <ele>138.5</ele>
        <time>2014-09-28T16:36:15Z</time>
      </trkpt>
      <trkpt lat="48.97581" lon="1.08405">
        <ele>138.5</ele>
        <time>2014-09-28T16:36:16Z</time>
      </trkpt>
      <trkpt lat="48.97574" lon="1.08423">
        <ele>138.5</ele>
        <time>2014-09-28T16:36:19Z</time>
      </trkpt>
      <trkpt lat="48.97567" lon="1.0844">
        <ele>135.5</ele>
        <time>2014-09-28T16:36:20Z</time>
      </trkpt>
      <trkpt lat="48.97558" lon="1.08456">
        <ele>136.5</ele>
        <time>2014-09-28T16:36:22Z</time>
      </trkpt>
      <trkpt lat="48.97554" lon="1.08467">
        <ele>137.5</ele>
        <time>2014-09-28T16:36:23Z</time>
      </trkpt>
      <trkpt lat="48.97546" lon="1.08486">
        <ele>135.5</ele>
        <time>2014-09-28T16:36:25Z</time>
      </trkpt>
      <trkpt lat="48.97538" lon="1.08504">
        <ele>136.5</ele>
        <time>2014-09-28T16:36:27Z</time>
      </trkpt>
      <trkpt lat="48.97532" lon="1.08512">
        <ele>133.5</ele>
        <time>2014-09-28T16:36:28Z</time>
      </trkpt>
      <trkpt lat="48.97527" lon="1.08521">
        <ele>133.5</ele>
        <time>2014-09-28T16:36:29Z</time>
      </trkpt>
      <trkpt lat="48.97519" lon="1.08538">
        <ele>133.5</ele>
        <time>2014-09-28T16:36:31Z</time>
      </trkpt>
      <trkpt lat="48.97511" lon="1.08555">
        <ele>133.5</ele>
        <time>2014-09-28T16:36:33Z</time>
      </trkpt>
      <trkpt lat="48.97507" lon="1.08565">
        <ele>133.5</ele>
        <time>2014-09-28T16:36:34Z</time>
      </trkpt>
      <trkpt lat="48.97499" lon="1.08579">
        <ele>135.5</ele>
        <time>2014-09-28T16:36:36Z</time>
      </trkpt>
      <trkpt lat="48.97495" lon="1.08588">
        <ele>135.5</ele>
        <time>2014-09-28T16:36:37Z</time>
      </trkpt>
      <trkpt lat="48.97486" lon="1.08605">
        <ele>134.5</ele>
        <time>2014-09-28T16:36:39Z</time>
      </trkpt>
      <trkpt lat="48.97477" lon="1.0862">
        <ele>135.5</ele>
        <time>2014-09-28T16:36:41Z</time>
      </trkpt>
      <trkpt lat="48.97469" lon="1.08636">
        <ele>134.5</ele>
        <time>2014-09-28T16:36:43Z</time>
      </trkpt>
      <trkpt lat="48.97462" lon="1.08653">
        <ele>134.5</ele>
        <time>2014-09-28T16:36:45Z</time>
      </trkpt>
      <trkpt lat="48.97453" lon="1.08666">
        <ele>134.5</ele>
        <time>2014-09-28T16:36:47Z</time>
      </trkpt>
      <trkpt lat="48.97449" lon="1.08681">
        <ele>134.5</ele>
        <time>2014-09-28T16:36:49Z</time>
      </trkpt>
      <trkpt lat="48.97455" lon="1.08692">
        <ele>133.5</ele>
        <time>2014-09-28T16:36:51Z</time>
      </trkpt>
      <trkpt lat="48.97466" lon="1.08696">
        <ele>134.5</ele>
        <time>2014-09-28T16:36:53Z</time>
      </trkpt>
      <trkpt lat="48.97476" lon="1.08698">
        <ele>135.5</ele>
        <time>2014-09-28T16:36:55Z</time>
      </trkpt>
      <trkpt lat="48.97485" lon="1.08703">
        <ele>136.5</ele>
        <time>2014-09-28T16:36:57Z</time>
      </trkpt>
      <trkpt lat="48.97494" lon="1.0871">
        <ele>134.5</ele>
        <time>2014-09-28T16:36:59Z</time>
      </trkpt>
      <trkpt lat="48.97502" lon="1.08715">
        <ele>135.5</ele>
        <time>2014-09-28T16:37:01Z</time>
      </trkpt>
      <trkpt lat="48.9751" lon="1.08724">
        <ele>133.5</ele>
        <time>2014-09-28T16:37:03Z</time>
      </trkpt>
      <trkpt lat="48.9752" lon="1.08731">
        <ele>133.5</ele>
        <time>2014-09-28T16:37:05Z</time>
      </trkpt>
      <trkpt lat="48.97529" lon="1.08739">
        <ele>135.5</ele>
        <time>2014-09-28T16:37:07Z</time>
      </trkpt>
      <trkpt lat="48.97538" lon="1.08747">
        <ele>134.5</ele>
        <time>2014-09-28T16:37:09Z</time>
      </trkpt>
      <trkpt lat="48.97546" lon="1.08755">
        <ele>135.5</ele>
        <time>2014-09-28T16:37:12Z</time>
      </trkpt>
      <trkpt lat="48.97556" lon="1.08762">
        <ele>135.5</ele>
        <time>2014-09-28T16:37:13Z</time>
      </trkpt>
      <trkpt lat="48.97566" lon="1.08769">
        <ele>134.5</ele>
        <time>2014-09-28T16:37:15Z</time>
      </trkpt>
      <trkpt lat="48.97575" lon="1.08778">
        <ele>135.5</ele>
        <time>2014-09-28T16:37:18Z</time>
      </trkpt>
      <trkpt lat="48.97585" lon="1.08785">
        <ele>136.5</ele>
        <time>2014-09-28T16:37:19Z</time>
      </trkpt>
      <trkpt lat="48.97593" lon="1.08794">
        <ele>135.5</ele>
        <time>2014-09-28T16:37:22Z</time>
      </trkpt>
      <trkpt lat="48.97603" lon="1.08802">
        <ele>136.5</ele>
        <time>2014-09-28T16:37:23Z</time>
      </trkpt>
      <trkpt lat="48.97613" lon="1.08808">
        <ele>136.5</ele>
        <time>2014-09-28T16:37:25Z</time>
      </trkpt>
      <trkpt lat="48.97623" lon="1.08814">
        <ele>135.5</ele>
        <time>2014-09-28T16:37:28Z</time>
      </trkpt>
      <trkpt lat="48.97635" lon="1.08822">
        <ele>135.5</ele>
        <time>2014-09-28T16:37:29Z</time>
      </trkpt>
      <trkpt lat="48.97644" lon="1.08827">
        <ele>134.5</ele>
        <time>2014-09-28T16:37:31Z</time>
      </trkpt>
      <trkpt lat="48.97653" lon="1.08839">
        <ele>134.5</ele>
        <time>2014-09-28T16:37:33Z</time>
      </trkpt>
      <trkpt lat="48.97663" lon="1.08845">
        <ele>133.5</ele>
        <time>2014-09-28T16:37:35Z</time>
      </trkpt>
      <trkpt lat="48.97674" lon="1.08852">
        <ele>137.5</ele>
        <time>2014-09-28T16:37:37Z</time>
      </trkpt>
      <trkpt lat="48.97681" lon="1.08862">
        <ele>133.5</ele>
        <time>2014-09-28T16:37:39Z</time>
      </trkpt>
      <trkpt lat="48.9769" lon="1.0887">
        <ele>133.5</ele>
        <time>2014-09-28T16:37:42Z</time>
      </trkpt>
      <trkpt lat="48.977" lon="1.08877">
        <ele>134.5</ele>
        <time>2014-09-28T16:37:43Z</time>
      </trkpt>
      <trkpt lat="48.9771" lon="1.08885">
        <ele>136.5</ele>
        <time>2014-09-28T16:37:45Z</time>
      </trkpt>
      <trkpt lat="48.9772" lon="1.08892">
        <ele>137.5</ele>
        <time>2014-09-28T16:37:48Z</time>
      </trkpt>
      <trkpt lat="48.97728" lon="1.08901">
        <ele>135.5</ele>
        <time>2014-09-28T16:37:49Z</time>
      </trkpt>
      <trkpt lat="48.97738" lon="1.08909">
        <ele>137.5</ele>
        <time>2014-09-28T16:37:51Z</time>
      </trkpt>
      <trkpt lat="48.97749" lon="1.08917">
        <ele>137.5</ele>
        <time>2014-09-28T16:37:53Z</time>
      </trkpt>
      <trkpt lat="48.97756" lon="1.0892">
        <ele>137.5</ele>
        <time>2014-09-28T16:37:54Z</time>
      </trkpt>
      <trkpt lat="48.97763" lon="1.08928">
        <ele>137.5</ele>
        <time>2014-09-28T16:37:56Z</time>
      </trkpt>
      <trkpt lat="48.97771" lon="1.08933">
        <ele>138.5</ele>
        <time>2014-09-28T16:37:58Z</time>
      </trkpt>
      <trkpt lat="48.97779" lon="1.08943">
        <ele>137.5</ele>
        <time>2014-09-28T16:38:00Z</time>
      </trkpt>
      <trkpt lat="48.97787" lon="1.0895">
        <ele>135.5</ele>
        <time>2014-09-28T16:38:02Z</time>
      </trkpt>
      <trkpt lat="48.97798" lon="1.08957">
        <ele>136.5</ele>
        <time>2014-09-28T16:38:04Z</time>
      </trkpt>
      <trkpt lat="48.97806" lon="1.08965">
        <ele>136.5</ele>
        <time>2014-09-28T16:38:06Z</time>
      </trkpt>
      <trkpt lat="48.97815" lon="1.08972">
        <ele>136.5</ele>
        <time>2014-09-28T16:38:08Z</time>
      </trkpt>
      <trkpt lat="48.97824" lon="1.08978">
        <ele>137.5</ele>
        <time>2014-09-28T16:38:10Z</time>
      </trkpt>
      <trkpt lat="48.97833" lon="1.08985">
        <ele>135.5</ele>
        <time>2014-09-28T16:38:12Z</time>
      </trkpt>
      <trkpt lat="48.97841" lon="1.08993">
        <ele>137.5</ele>
        <time>2014-09-28T16:38:15Z</time>
      </trkpt>
      <trkpt lat="48.9785" lon="1.08997">
        <ele>138.5</ele>
        <time>2014-09-28T16:38:16Z</time>
      </trkpt>
      <trkpt lat="48.97858" lon="1.09002">
        <ele>139.5</ele>
        <time>2014-09-28T16:38:18Z</time>
      </trkpt>
      <trkpt lat="48.97868" lon="1.0901">
        <ele>139.5</ele>
        <time>2014-09-28T16:38:21Z</time>
      </trkpt>
      <trkpt lat="48.97875" lon="1.0902">
        <ele>138.5</ele>
        <time>2014-09-28T16:38:22Z</time>
      </trkpt>
      <trkpt lat="48.97886" lon="1.09028">
        <ele>139.5</ele>
        <time>2014-09-28T16:38:24Z</time>
      </trkpt>
      <trkpt lat="48.97899" lon="1.09037">
        <ele>140.5</ele>
        <time>2014-09-28T16:38:26Z</time>
      </trkpt>
      <trkpt lat="48.97909" lon="1.09046">
        <ele>141.5</ele>
        <time>2014-09-28T16:38:28Z</time>
      </trkpt>
      <trkpt lat="48.97919" lon="1.09054">
        <ele>142.5</ele>
        <time>2014-09-28T16:38:30Z</time>
      </trkpt>
      <trkpt lat="48.97928" lon="1.0906">
        <ele>138.5</ele>
        <time>2014-09-28T16:38:32Z</time>
      </trkpt>
      <trkpt lat="48.97939" lon="1.09065">
        <ele>139.5</ele>
        <time>2014-09-28T16:38:34Z</time>
      </trkpt>
      <trkpt lat="48.97948" lon="1.09075">
        <ele>139.5</ele>
        <time>2014-09-28T16:38:36Z</time>
      </trkpt>
      <trkpt lat="48.97956" lon="1.09083">
        <ele>140.5</ele>
        <time>2014-09-28T16:38:38Z</time>
      </trkpt>
      <trkpt lat="48.97965" lon="1.09089">
        <ele>141.5</ele>
        <time>2014-09-28T16:38:40Z</time>
      </trkpt>
      <trkpt lat="48.97975" lon="1.09098">
        <ele>141.5</ele>
        <time>2014-09-28T16:38:42Z</time>
      </trkpt>
      <trkpt lat="48.97984" lon="1.09107">
        <ele>142.5</ele>
        <time>2014-09-28T16:38:44Z</time>
      </trkpt>
      <trkpt lat="48.97989" lon="1.0911">
        <ele>142.5</ele>
        <time>2014-09-28T16:38:45Z</time>
      </trkpt>
      <trkpt lat="48.98001" lon="1.09118">
        <ele>144.5</ele>
        <time>2014-09-28T16:38:47Z</time>
      </trkpt>
      <trkpt lat="48.98013" lon="1.09123">
        <ele>143.5</ele>
        <time>2014-09-28T16:38:49Z</time>
      </trkpt>
      <trkpt lat="48.98017" lon="1.09126">
        <ele>138.5</ele>
        <time>2014-09-28T16:38:50Z</time>
      </trkpt>
      <trkpt lat="48.98026" lon="1.09134">
        <ele>139.5</ele>
        <time>2014-09-28T16:38:52Z</time>
      </trkpt>
      <trkpt lat="48.98037" lon="1.09145">
        <ele>139.5</ele>
        <time>2014-09-28T16:38:54Z</time>
      </trkpt>
      <trkpt lat="48.98048" lon="1.09158">
        <ele>138.5</ele>
        <time>2014-09-28T16:38:56Z</time>
      </trkpt>
      <trkpt lat="48.9806" lon="1.09164">
        <ele>137.5</ele>
        <time>2014-09-28T16:38:58Z</time>
      </trkpt>
      <trkpt lat="48.9807" lon="1.09172">
        <ele>138.5</ele>
        <time>2014-09-28T16:39:00Z</time>
      </trkpt>
      <trkpt lat="48.98082" lon="1.09181">
        <ele>140.5</ele>
        <time>2014-09-28T16:39:02Z</time>
      </trkpt>
      <trkpt lat="48.98093" lon="1.09189">
        <ele>142.5</ele>
        <time>2014-09-28T16:39:04Z</time>
      </trkpt>
      <trkpt lat="48.98103" lon="1.09197">
        <ele>140.5</ele>
        <time>2014-09-28T16:39:06Z</time>
      </trkpt>
      <trkpt lat="48.98114" lon="1.09208">
        <ele>139.5</ele>
        <time>2014-09-28T16:39:08Z</time>
      </trkpt>
      <trkpt lat="48.9812" lon="1.09211">
        <ele>138.5</ele>
        <time>2014-09-28T16:39:09Z</time>
      </trkpt>
      <trkpt lat="48.98129" lon="1.09211">
        <ele>138.5</ele>
        <time>2014-09-28T16:39:10Z</time>
      </trkpt>
      <trkpt lat="48.98134" lon="1.09216">
        <ele>141.5</ele>
        <time>2014-09-28T16:39:11Z</time>
      </trkpt>
      <trkpt lat="48.98146" lon="1.09228">
        <ele>141.5</ele>
        <time>2014-09-28T16:39:13Z</time>
      </trkpt>
      <trkpt lat="48.98157" lon="1.09238">
        <ele>142.5</ele>
        <time>2014-09-28T16:39:15Z</time>
      </trkpt>
      <trkpt lat="48.98168" lon="1.09247">
        <ele>140.5</ele>
        <time>2014-09-28T16:39:17Z</time>
      </trkpt>
      <trkpt lat="48.98175" lon="1.09252">
        <ele>140.5</ele>
        <time>2014-09-28T16:39:18Z</time>
      </trkpt>
      <trkpt lat="48.98182" lon="1.09258">
        <ele>139.5</ele>
        <time>2014-09-28T16:39:19Z</time>
      </trkpt>
      <trkpt lat="48.98194" lon="1.09266">
        <ele>140.5</ele>
        <time>2014-09-28T16:39:21Z</time>
      </trkpt>
      <trkpt lat="48.98207" lon="1.09275">
        <ele>140.5</ele>
        <time>2014-09-28T16:39:23Z</time>
      </trkpt>
      <trkpt lat="48.98213" lon="1.09281">
        <ele>139.5</ele>
        <time>2014-09-28T16:39:24Z</time>
      </trkpt>
      <trkpt lat="48.98225" lon="1.09293">
        <ele>139.5</ele>
        <time>2014-09-28T16:39:26Z</time>
      </trkpt>
      <trkpt lat="48.98232" lon="1.09299">
        <ele>139.5</ele>
        <time>2014-09-28T16:39:27Z</time>
      </trkpt>
      <trkpt lat="48.9824" lon="1.09302">
        <ele>138.5</ele>
        <time>2014-09-28T16:39:28Z</time>
      </trkpt>
      <trkpt lat="48.98253" lon="1.09312">
        <ele>138.5</ele>
        <time>2014-09-28T16:39:30Z</time>
      </trkpt>
      <trkpt lat="48.9826" lon="1.09318">
        <ele>139.5</ele>
        <time>2014-09-28T16:39:31Z</time>
      </trkpt>
      <trkpt lat="48.98267" lon="1.09322">
        <ele>139.5</ele>
        <time>2014-09-28T16:39:32Z</time>
      </trkpt>
      <trkpt lat="48.98273" lon="1.09327">
        <ele>139.5</ele>
        <time>2014-09-28T16:39:33Z</time>
      </trkpt>
      <trkpt lat="48.9828" lon="1.09332">
        <ele>138.5</ele>
        <time>2014-09-28T16:39:34Z</time>
      </trkpt>
      <trkpt lat="48.98288" lon="1.09334">
        <ele>137.5</ele>
        <time>2014-09-28T16:39:35Z</time>
      </trkpt>
      <trkpt lat="48.98301" lon="1.09343">
        <ele>135.5</ele>
        <time>2014-09-28T16:39:37Z</time>
      </trkpt>
      <trkpt lat="48.98308" lon="1.09349">
        <ele>135.5</ele>
        <time>2014-09-28T16:39:38Z</time>
      </trkpt>
      <trkpt lat="48.98314" lon="1.09353">
        <ele>135.5</ele>
        <time>2014-09-28T16:39:39Z</time>
      </trkpt>
      <trkpt lat="48.98321" lon="1.09358">
        <ele>134.5</ele>
        <time>2014-09-28T16:39:40Z</time>
      </trkpt>
      <trkpt lat="48.98328" lon="1.09363">
        <ele>135.5</ele>
        <time>2014-09-28T16:39:41Z</time>
      </trkpt>
      <trkpt lat="48.98335" lon="1.09368">
        <ele>135.5</ele>
        <time>2014-09-28T16:39:42Z</time>
      </trkpt>
      <trkpt lat="48.98341" lon="1.09374">
        <ele>134.5</ele>
        <time>2014-09-28T16:39:43Z</time>
      </trkpt>
      <trkpt lat="48.98355" lon="1.09383">
        <ele>133.5</ele>
        <time>2014-09-28T16:39:46Z</time>
      </trkpt>
      <trkpt lat="48.98362" lon="1.09389">
        <ele>133.5</ele>
        <time>2014-09-28T16:39:46Z</time>
      </trkpt>
      <trkpt lat="48.98368" lon="1.09395">
        <ele>133.5</ele>
        <time>2014-09-28T16:39:47Z</time>
      </trkpt>
      <trkpt lat="48.98374" lon="1.09401">
        <ele>133.5</ele>
        <time>2014-09-28T16:39:48Z</time>
      </trkpt>
      <trkpt lat="48.98381" lon="1.09407">
        <ele>132.5</ele>
        <time>2014-09-28T16:39:49Z</time>
      </trkpt>
      <trkpt lat="48.98388" lon="1.09412">
        <ele>131.5</ele>
        <time>2014-09-28T16:39:50Z</time>
      </trkpt>
      <trkpt lat="48.98395" lon="1.09417">
        <ele>130.5</ele>
        <time>2014-09-28T16:39:51Z</time>
      </trkpt>
      <trkpt lat="48.98402" lon="1.09421">
        <ele>130.5</ele>
        <time>2014-09-28T16:39:52Z</time>
      </trkpt>
      <trkpt lat="48.98409" lon="1.09427">
        <ele>130.5</ele>
        <time>2014-09-28T16:39:53Z</time>
      </trkpt>
      <trkpt lat="48.98416" lon="1.09433">
        <ele>129.5</ele>
        <time>2014-09-28T16:39:54Z</time>
      </trkpt>
      <trkpt lat="48.98423" lon="1.09438">
        <ele>129.5</ele>
        <time>2014-09-28T16:39:55Z</time>
      </trkpt>
      <trkpt lat="48.98431" lon="1.09443">
        <ele>130.5</ele>
        <time>2014-09-28T16:39:56Z</time>
      </trkpt>
      <trkpt lat="48.98438" lon="1.09448">
        <ele>129.5</ele>
        <time>2014-09-28T16:39:57Z</time>
      </trkpt>
      <trkpt lat="48.98445" lon="1.09453">
        <ele>129.5</ele>
        <time>2014-09-28T16:39:58Z</time>
      </trkpt>
      <trkpt lat="48.98452" lon="1.09459">
        <ele>129.5</ele>
        <time>2014-09-28T16:39:59Z</time>
      </trkpt>
      <trkpt lat="48.98459" lon="1.09464">
        <ele>128.5</ele>
        <time>2014-09-28T16:40:00Z</time>
      </trkpt>
      <trkpt lat="48.98466" lon="1.09469">
        <ele>128.5</ele>
        <time>2014-09-28T16:40:01Z</time>
      </trkpt>
      <trkpt lat="48.98473" lon="1.09473">
        <ele>128.5</ele>
        <time>2014-09-28T16:40:02Z</time>
      </trkpt>
      <trkpt lat="48.9848" lon="1.09478">
        <ele>127.5</ele>
        <time>2014-09-28T16:40:03Z</time>
      </trkpt>
      <trkpt lat="48.98493" lon="1.09488">
        <ele>129.5</ele>
        <time>2014-09-28T16:40:05Z</time>
      </trkpt>
      <trkpt lat="48.98506" lon="1.09496">
        <ele>129.5</ele>
        <time>2014-09-28T16:40:07Z</time>
      </trkpt>
      <trkpt lat="48.98518" lon="1.09506">
        <ele>130.5</ele>
        <time>2014-09-28T16:40:09Z</time>
      </trkpt>
      <trkpt lat="48.98525" lon="1.09511">
        <ele>131.5</ele>
        <time>2014-09-28T16:40:10Z</time>
      </trkpt>
      <trkpt lat="48.98531" lon="1.09517">
        <ele>131.5</ele>
        <time>2014-09-28T16:40:11Z</time>
      </trkpt>
      <trkpt lat="48.98538" lon="1.09523">
        <ele>131.5</ele>
        <time>2014-09-28T16:40:12Z</time>
      </trkpt>
      <trkpt lat="48.98545" lon="1.09528">
        <ele>131.5</ele>
        <time>2014-09-28T16:40:13Z</time>
      </trkpt>
      <trkpt lat="48.98558" lon="1.09538">
        <ele>129.5</ele>
        <time>2014-09-28T16:40:15Z</time>
      </trkpt>
      <trkpt lat="48.98565" lon="1.09543">
        <ele>129.5</ele>
        <time>2014-09-28T16:40:16Z</time>
      </trkpt>
      <trkpt lat="48.98572" lon="1.09548">
        <ele>129.5</ele>
        <time>2014-09-28T16:40:17Z</time>
      </trkpt>
      <trkpt lat="48.98579" lon="1.09555">
        <ele>129.5</ele>
        <time>2014-09-28T16:40:18Z</time>
      </trkpt>
      <trkpt lat="48.98592" lon="1.09565">
        <ele>130.5</ele>
        <time>2014-09-28T16:40:20Z</time>
      </trkpt>
      <trkpt lat="48.98598" lon="1.09572">
        <ele>129.5</ele>
        <time>2014-09-28T16:40:21Z</time>
      </trkpt>
      <trkpt lat="48.98605" lon="1.09577">
        <ele>130.5</ele>
        <time>2014-09-28T16:40:22Z</time>
      </trkpt>
      <trkpt lat="48.98611" lon="1.09583">
        <ele>131.5</ele>
        <time>2014-09-28T16:40:23Z</time>
      </trkpt>
      <trkpt lat="48.98617" lon="1.09589">
        <ele>128.5</ele>
        <time>2014-09-28T16:40:24Z</time>
      </trkpt>
      <trkpt lat="48.98623" lon="1.09596">
        <ele>128.5</ele>
        <time>2014-09-28T16:40:25Z</time>
      </trkpt>
      <trkpt lat="48.9863" lon="1.09604">
        <ele>129.5</ele>
        <time>2014-09-28T16:40:26Z</time>
      </trkpt>
      <trkpt lat="48.98635" lon="1.09612">
        <ele>130.5</ele>
        <time>2014-09-28T16:40:27Z</time>
      </trkpt>
      <trkpt lat="48.98647" lon="1.09624">
        <ele>128.5</ele>
        <time>2014-09-28T16:40:30Z</time>
      </trkpt>
      <trkpt lat="48.98653" lon="1.09631">
        <ele>128.5</ele>
        <time>2014-09-28T16:40:30Z</time>
      </trkpt>
      <trkpt lat="48.98659" lon="1.09638">
        <ele>128.5</ele>
        <time>2014-09-28T16:40:31Z</time>
      </trkpt>
      <trkpt lat="48.98665" lon="1.09645">
        <ele>129.5</ele>
        <time>2014-09-28T16:40:32Z</time>
      </trkpt>
      <trkpt lat="48.98672" lon="1.09653">
        <ele>130.5</ele>
        <time>2014-09-28T16:40:33Z</time>
      </trkpt>
      <trkpt lat="48.98677" lon="1.09661">
        <ele>131.5</ele>
        <time>2014-09-28T16:40:34Z</time>
      </trkpt>
      <trkpt lat="48.98684" lon="1.09668">
        <ele>131.5</ele>
        <time>2014-09-28T16:40:35Z</time>
      </trkpt>
      <trkpt lat="48.98691" lon="1.09672">
        <ele>128.5</ele>
        <time>2014-09-28T16:40:36Z</time>
      </trkpt>
      <trkpt lat="48.98697" lon="1.0968">
        <ele>128.5</ele>
        <time>2014-09-28T16:40:37Z</time>
      </trkpt>
      <trkpt lat="48.98702" lon="1.09688">
        <ele>128.5</ele>
        <time>2014-09-28T16:40:38Z</time>
      </trkpt>
      <trkpt lat="48.98708" lon="1.09697">
        <ele>129.5</ele>
        <time>2014-09-28T16:40:39Z</time>
      </trkpt>
      <trkpt lat="48.98713" lon="1.09706">
        <ele>128.5</ele>
        <time>2014-09-28T16:40:40Z</time>
      </trkpt>
      <trkpt lat="48.9872" lon="1.09715">
        <ele>127.5</ele>
        <time>2014-09-28T16:40:41Z</time>
      </trkpt>
      <trkpt lat="48.98726" lon="1.09722">
        <ele>127.5</ele>
        <time>2014-09-28T16:40:42Z</time>
      </trkpt>
      <trkpt lat="48.98732" lon="1.09729">
        <ele>126.5</ele>
        <time>2014-09-28T16:40:43Z</time>
      </trkpt>
      <trkpt lat="48.98739" lon="1.09736">
        <ele>127.5</ele>
        <time>2014-09-28T16:40:44Z</time>
      </trkpt>
      <trkpt lat="48.98744" lon="1.09744">
        <ele>126.5</ele>
        <time>2014-09-28T16:40:45Z</time>
      </trkpt>
      <trkpt lat="48.98755" lon="1.09758">
        <ele>126.5</ele>
        <time>2014-09-28T16:40:47Z</time>
      </trkpt>
      <trkpt lat="48.98761" lon="1.09766">
        <ele>127.5</ele>
        <time>2014-09-28T16:40:48Z</time>
      </trkpt>
      <trkpt lat="48.98768" lon="1.09773">
        <ele>128.5</ele>
        <time>2014-09-28T16:40:49Z</time>
      </trkpt>
      <trkpt lat="48.98775" lon="1.09781">
        <ele>126.5</ele>
        <time>2014-09-28T16:40:50Z</time>
      </trkpt>
      <trkpt lat="48.98781" lon="1.09789">
        <ele>125.5</ele>
        <time>2014-09-28T16:40:51Z</time>
      </trkpt>
      <trkpt lat="48.98787" lon="1.09798">
        <ele>125.5</ele>
        <time>2014-09-28T16:40:52Z</time>
      </trkpt>
      <trkpt lat="48.98794" lon="1.09806">
        <ele>124.5</ele>
        <time>2014-09-28T16:40:53Z</time>
      </trkpt>
      <trkpt lat="48.988" lon="1.09814">
        <ele>124.5</ele>
        <time>2014-09-28T16:40:54Z</time>
      </trkpt>
      <trkpt lat="48.98807" lon="1.09822">
        <ele>124.5</ele>
        <time>2014-09-28T16:40:55Z</time>
      </trkpt>
      <trkpt lat="48.98813" lon="1.09829">
        <ele>124.5</ele>
        <time>2014-09-28T16:40:57Z</time>
      </trkpt>
      <trkpt lat="48.98819" lon="1.09836">
        <ele>123.5</ele>
        <time>2014-09-28T16:40:57Z</time>
      </trkpt>
      <trkpt lat="48.98826" lon="1.09844">
        <ele>123.5</ele>
        <time>2014-09-28T16:40:58Z</time>
      </trkpt>
      <trkpt lat="48.98832" lon="1.09851">
        <ele>122.5</ele>
        <time>2014-09-28T16:40:59Z</time>
      </trkpt>
      <trkpt lat="48.98837" lon="1.09859">
        <ele>122.5</ele>
        <time>2014-09-28T16:41:00Z</time>
      </trkpt>
      <trkpt lat="48.98843" lon="1.09867">
        <ele>121.5</ele>
        <time>2014-09-28T16:41:01Z</time>
      </trkpt>
      <trkpt lat="48.9885" lon="1.09874">
        <ele>121.5</ele>
        <time>2014-09-28T16:41:02Z</time>
      </trkpt>
      <trkpt lat="48.98856" lon="1.09882">
        <ele>120.5</ele>
        <time>2014-09-28T16:41:03Z</time>
      </trkpt>
      <trkpt lat="48.98862" lon="1.09891">
        <ele>120.5</ele>
        <time>2014-09-28T16:41:04Z</time>
      </trkpt>
      <trkpt lat="48.98869" lon="1.09898">
        <ele>119.5</ele>
        <time>2014-09-28T16:41:05Z</time>
      </trkpt>
      <trkpt lat="48.98875" lon="1.09906">
        <ele>119.5</ele>
        <time>2014-09-28T16:41:06Z</time>
      </trkpt>
      <trkpt lat="48.98881" lon="1.09915">
        <ele>119.5</ele>
        <time>2014-09-28T16:41:07Z</time>
      </trkpt>
      <trkpt lat="48.98888" lon="1.09923">
        <ele>118.5</ele>
        <time>2014-09-28T16:41:08Z</time>
      </trkpt>
      <trkpt lat="48.98895" lon="1.0993">
        <ele>117.5</ele>
        <time>2014-09-28T16:41:09Z</time>
      </trkpt>
      <trkpt lat="48.98901" lon="1.0994">
        <ele>117.5</ele>
        <time>2014-09-28T16:41:10Z</time>
      </trkpt>
      <trkpt lat="48.98908" lon="1.09949">
        <ele>116.5</ele>
        <time>2014-09-28T16:41:11Z</time>
      </trkpt>
      <trkpt lat="48.98914" lon="1.09957">
        <ele>116.5</ele>
        <time>2014-09-28T16:41:12Z</time>
      </trkpt>
      <trkpt lat="48.98921" lon="1.09966">
        <ele>116.5</ele>
        <time>2014-09-28T16:41:13Z</time>
      </trkpt>
      <trkpt lat="48.98927" lon="1.09976">
        <ele>116.5</ele>
        <time>2014-09-28T16:41:14Z</time>
      </trkpt>
      <trkpt lat="48.98934" lon="1.09986">
        <ele>116.5</ele>
        <time>2014-09-28T16:41:15Z</time>
      </trkpt>
      <trkpt lat="48.98941" lon="1.09994">
        <ele>115.5</ele>
        <time>2014-09-28T16:41:16Z</time>
      </trkpt>
      <trkpt lat="48.98947" lon="1.10005">
        <ele>115.5</ele>
        <time>2014-09-28T16:41:17Z</time>
      </trkpt>
      <trkpt lat="48.98954" lon="1.10017">
        <ele>115.5</ele>
        <time>2014-09-28T16:41:18Z</time>
      </trkpt>
      <trkpt lat="48.98961" lon="1.10026">
        <ele>115.5</ele>
        <time>2014-09-28T16:41:19Z</time>
      </trkpt>
      <trkpt lat="48.98968" lon="1.10035">
        <ele>113.5</ele>
        <time>2014-09-28T16:41:20Z</time>
      </trkpt>
      <trkpt lat="48.98975" lon="1.10045">
        <ele>114.5</ele>
        <time>2014-09-28T16:41:21Z</time>
      </trkpt>
      <trkpt lat="48.98981" lon="1.10055">
        <ele>112.5</ele>
        <time>2014-09-28T16:41:22Z</time>
      </trkpt>
      <trkpt lat="48.98988" lon="1.10067">
        <ele>112.5</ele>
        <time>2014-09-28T16:41:23Z</time>
      </trkpt>
      <trkpt lat="48.98994" lon="1.10078">
        <ele>111.5</ele>
        <time>2014-09-28T16:41:24Z</time>
      </trkpt>
      <trkpt lat="48.98999" lon="1.10089">
        <ele>111.5</ele>
        <time>2014-09-28T16:41:25Z</time>
      </trkpt>
      <trkpt lat="48.99005" lon="1.101">
        <ele>110.5</ele>
        <time>2014-09-28T16:41:26Z</time>
      </trkpt>
      <trkpt lat="48.99011" lon="1.10111">
        <ele>109.5</ele>
        <time>2014-09-28T16:41:27Z</time>
      </trkpt>
      <trkpt lat="48.99016" lon="1.10123">
        <ele>110.5</ele>
        <time>2014-09-28T16:41:28Z</time>
      </trkpt>
      <trkpt lat="48.99022" lon="1.10135">
        <ele>109.5</ele>
        <time>2014-09-28T16:41:29Z</time>
      </trkpt>
      <trkpt lat="48.99026" lon="1.10148">
        <ele>108.5</ele>
        <time>2014-09-28T16:41:30Z</time>
      </trkpt>
      <trkpt lat="48.99031" lon="1.1016">
        <ele>109.5</ele>
        <time>2014-09-28T16:41:31Z</time>
      </trkpt>
      <trkpt lat="48.99035" lon="1.10174">
        <ele>109.5</ele>
        <time>2014-09-28T16:41:32Z</time>
      </trkpt>
      <trkpt lat="48.9904" lon="1.10186">
        <ele>109.5</ele>
        <time>2014-09-28T16:41:33Z</time>
      </trkpt>
      <trkpt lat="48.99044" lon="1.10199">
        <ele>110.5</ele>
        <time>2014-09-28T16:41:34Z</time>
      </trkpt>
      <trkpt lat="48.99048" lon="1.10211">
        <ele>109.5</ele>
        <time>2014-09-28T16:41:35Z</time>
      </trkpt>
      <trkpt lat="48.99052" lon="1.10223">
        <ele>108.5</ele>
        <time>2014-09-28T16:41:36Z</time>
      </trkpt>
      <trkpt lat="48.99057" lon="1.10235">
        <ele>109.5</ele>
        <time>2014-09-28T16:41:37Z</time>
      </trkpt>
      <trkpt lat="48.99061" lon="1.10247">
        <ele>109.5</ele>
        <time>2014-09-28T16:41:38Z</time>
      </trkpt>
      <trkpt lat="48.99065" lon="1.10259">
        <ele>108.5</ele>
        <time>2014-09-28T16:41:39Z</time>
      </trkpt>
      <trkpt lat="48.9907" lon="1.1027">
        <ele>108.5</ele>
        <time>2014-09-28T16:41:40Z</time>
      </trkpt>
      <trkpt lat="48.99075" lon="1.1028">
        <ele>108.5</ele>
        <time>2014-09-28T16:41:42Z</time>
      </trkpt>
      <trkpt lat="48.9908" lon="1.10289">
        <ele>107.5</ele>
        <time>2014-09-28T16:41:42Z</time>
      </trkpt>
      <trkpt lat="48.99086" lon="1.10298">
        <ele>107.5</ele>
        <time>2014-09-28T16:41:43Z</time>
      </trkpt>
      <trkpt lat="48.99093" lon="1.10306">
        <ele>107.5</ele>
        <time>2014-09-28T16:41:44Z</time>
      </trkpt>
      <trkpt lat="48.99099" lon="1.10315">
        <ele>107.5</ele>
        <time>2014-09-28T16:41:45Z</time>
      </trkpt>
      <trkpt lat="48.99107" lon="1.10323">
        <ele>108.5</ele>
        <time>2014-09-28T16:41:46Z</time>
      </trkpt>
      <trkpt lat="48.99114" lon="1.1033">
        <ele>107.5</ele>
        <time>2014-09-28T16:41:47Z</time>
      </trkpt>
      <trkpt lat="48.99123" lon="1.10336">
        <ele>107.5</ele>
        <time>2014-09-28T16:41:48Z</time>
      </trkpt>
      <trkpt lat="48.99131" lon="1.10344">
        <ele>108.5</ele>
        <time>2014-09-28T16:41:49Z</time>
      </trkpt>
      <trkpt lat="48.99141" lon="1.1035">
        <ele>109.5</ele>
        <time>2014-09-28T16:41:50Z</time>
      </trkpt>
      <trkpt lat="48.99149" lon="1.10356">
        <ele>107.5</ele>
        <time>2014-09-28T16:41:51Z</time>
      </trkpt>
      <trkpt lat="48.99159" lon="1.10362">
        <ele>108.5</ele>
        <time>2014-09-28T16:41:52Z</time>
      </trkpt>
      <trkpt lat="48.99168" lon="1.10369">
        <ele>108.5</ele>
        <time>2014-09-28T16:41:53Z</time>
      </trkpt>
      <trkpt lat="48.99177" lon="1.10377">
        <ele>108.5</ele>
        <time>2014-09-28T16:41:54Z</time>
      </trkpt>
      <trkpt lat="48.99187" lon="1.10382">
        <ele>108.5</ele>
        <time>2014-09-28T16:41:55Z</time>
      </trkpt>
      <trkpt lat="48.99197" lon="1.10388">
        <ele>109.5</ele>
        <time>2014-09-28T16:41:56Z</time>
      </trkpt>
      <trkpt lat="48.99206" lon="1.10393">
        <ele>109.5</ele>
        <time>2014-09-28T16:41:57Z</time>
      </trkpt>
      <trkpt lat="48.99216" lon="1.104">
        <ele>108.5</ele>
        <time>2014-09-28T16:41:58Z</time>
      </trkpt>
      <trkpt lat="48.99226" lon="1.10406">
        <ele>109.5</ele>
        <time>2014-09-28T16:41:59Z</time>
      </trkpt>
      <trkpt lat="48.99236" lon="1.10413">
        <ele>108.5</ele>
        <time>2014-09-28T16:42:00Z</time>
      </trkpt>
      <trkpt lat="48.99246" lon="1.10419">
        <ele>107.5</ele>
        <time>2014-09-28T16:42:01Z</time>
      </trkpt>
      <trkpt lat="48.99253" lon="1.10427">
        <ele>106.5</ele>
        <time>2014-09-28T16:42:02Z</time>
      </trkpt>
      <trkpt lat="48.99261" lon="1.10433">
        <ele>106.5</ele>
        <time>2014-09-28T16:42:03Z</time>
      </trkpt>
      <trkpt lat="48.99269" lon="1.10441">
        <ele>106.5</ele>
        <time>2014-09-28T16:42:04Z</time>
      </trkpt>
      <trkpt lat="48.99278" lon="1.10447">
        <ele>105.5</ele>
        <time>2014-09-28T16:42:05Z</time>
      </trkpt>
      <trkpt lat="48.99288" lon="1.10453">
        <ele>104.5</ele>
        <time>2014-09-28T16:42:06Z</time>
      </trkpt>
      <trkpt lat="48.99297" lon="1.10459">
        <ele>102.5</ele>
        <time>2014-09-28T16:42:07Z</time>
      </trkpt>
      <trkpt lat="48.99305" lon="1.10467">
        <ele>102.5</ele>
        <time>2014-09-28T16:42:08Z</time>
      </trkpt>
      <trkpt lat="48.99314" lon="1.10474">
        <ele>101.5</ele>
        <time>2014-09-28T16:42:09Z</time>
      </trkpt>
      <trkpt lat="48.99323" lon="1.10481">
        <ele>100.5</ele>
        <time>2014-09-28T16:42:10Z</time>
      </trkpt>
      <trkpt lat="48.99333" lon="1.10487">
        <ele>101.5</ele>
        <time>2014-09-28T16:42:11Z</time>
      </trkpt>
      <trkpt lat="48.99343" lon="1.10494">
        <ele>101.5</ele>
        <time>2014-09-28T16:42:12Z</time>
      </trkpt>
      <trkpt lat="48.99353" lon="1.10502">
        <ele>100.5</ele>
        <time>2014-09-28T16:42:13Z</time>
      </trkpt>
      <trkpt lat="48.99363" lon="1.10509">
        <ele>99.5</ele>
        <time>2014-09-28T16:42:14Z</time>
      </trkpt>
      <trkpt lat="48.99373" lon="1.10516">
        <ele>97.5</ele>
        <time>2014-09-28T16:42:15Z</time>
      </trkpt>
      <trkpt lat="48.99382" lon="1.10523">
        <ele>95.5</ele>
        <time>2014-09-28T16:42:16Z</time>
      </trkpt>
      <trkpt lat="48.99392" lon="1.1053">
        <ele>94.5</ele>
        <time>2014-09-28T16:42:17Z</time>
      </trkpt>
      <trkpt lat="48.99403" lon="1.10537">
        <ele>94.5</ele>
        <time>2014-09-28T16:42:18Z</time>
      </trkpt>
      <trkpt lat="48.99413" lon="1.10545">
        <ele>93.5</ele>
        <time>2014-09-28T16:42:19Z</time>
      </trkpt>
      <trkpt lat="48.99422" lon="1.10552">
        <ele>93.5</ele>
        <time>2014-09-28T16:42:20Z</time>
      </trkpt>
      <trkpt lat="48.99432" lon="1.10558">
        <ele>91.5</ele>
        <time>2014-09-28T16:42:21Z</time>
      </trkpt>
      <trkpt lat="48.99443" lon="1.10564">
        <ele>91.5</ele>
        <time>2014-09-28T16:42:22Z</time>
      </trkpt>
      <trkpt lat="48.99452" lon="1.10571">
        <ele>90.5</ele>
        <time>2014-09-28T16:42:23Z</time>
      </trkpt>
      <trkpt lat="48.99462" lon="1.10579">
        <ele>90.5</ele>
        <time>2014-09-28T16:42:24Z</time>
      </trkpt>
      <trkpt lat="48.99472" lon="1.10586">
        <ele>89.5</ele>
        <time>2014-09-28T16:42:25Z</time>
      </trkpt>
      <trkpt lat="48.99481" lon="1.10593">
        <ele>90.5</ele>
        <time>2014-09-28T16:42:26Z</time>
      </trkpt>
      <trkpt lat="48.99491" lon="1.10599">
        <ele>90.5</ele>
        <time>2014-09-28T16:42:27Z</time>
      </trkpt>
      <trkpt lat="48.995" lon="1.10605">
        <ele>89.5</ele>
        <time>2014-09-28T16:42:28Z</time>
      </trkpt>
      <trkpt lat="48.9951" lon="1.10614">
        <ele>90.5</ele>
        <time>2014-09-28T16:42:29Z</time>
      </trkpt>
      <trkpt lat="48.99522" lon="1.10619">
        <ele>89.5</ele>
        <time>2014-09-28T16:42:30Z</time>
      </trkpt>
      <trkpt lat="48.99531" lon="1.10628">
        <ele>87.5</ele>
        <time>2014-09-28T16:42:31Z</time>
      </trkpt>
      <trkpt lat="48.9954" lon="1.10636">
        <ele>85.5</ele>
        <time>2014-09-28T16:42:32Z</time>
      </trkpt>
      <trkpt lat="48.9955" lon="1.10645">
        <ele>85.5</ele>
        <time>2014-09-28T16:42:33Z</time>
      </trkpt>
      <trkpt lat="48.9956" lon="1.10651">
        <ele>86.5</ele>
        <time>2014-09-28T16:42:35Z</time>
      </trkpt>
      <trkpt lat="48.9957" lon="1.1066">
        <ele>84.5</ele>
        <time>2014-09-28T16:42:35Z</time>
      </trkpt>
      <trkpt lat="48.9958" lon="1.10668">
        <ele>83.5</ele>
        <time>2014-09-28T16:42:36Z</time>
      </trkpt>
      <trkpt lat="48.99591" lon="1.10676">
        <ele>83.5</ele>
        <time>2014-09-28T16:42:37Z</time>
      </trkpt>
      <trkpt lat="48.996" lon="1.10684">
        <ele>82.5</ele>
        <time>2014-09-28T16:42:38Z</time>
      </trkpt>
      <trkpt lat="48.99609" lon="1.10692">
        <ele>83.5</ele>
        <time>2014-09-28T16:42:39Z</time>
      </trkpt>
      <trkpt lat="48.99619" lon="1.10699">
        <ele>83.5</ele>
        <time>2014-09-28T16:42:40Z</time>
      </trkpt>
      <trkpt lat="48.99629" lon="1.10706">
        <ele>81.5</ele>
        <time>2014-09-28T16:42:41Z</time>
      </trkpt>
      <trkpt lat="48.99639" lon="1.10713">
        <ele>81.5</ele>
        <time>2014-09-28T16:42:42Z</time>
      </trkpt>
      <trkpt lat="48.9965" lon="1.10718">
        <ele>80.5</ele>
        <time>2014-09-28T16:42:43Z</time>
      </trkpt>
      <trkpt lat="48.9966" lon="1.10721">
        <ele>79.5</ele>
        <time>2014-09-28T16:42:44Z</time>
      </trkpt>
      <trkpt lat="48.9967" lon="1.10723">
        <ele>79.5</ele>
        <time>2014-09-28T16:42:45Z</time>
      </trkpt>
      <trkpt lat="48.99682" lon="1.10725">
        <ele>79.5</ele>
        <time>2014-09-28T16:42:46Z</time>
      </trkpt>
      <trkpt lat="48.99692" lon="1.10726">
        <ele>80.5</ele>
        <time>2014-09-28T16:42:47Z</time>
      </trkpt>
      <trkpt lat="48.99703" lon="1.10728">
        <ele>80.5</ele>
        <time>2014-09-28T16:42:49Z</time>
      </trkpt>
      <trkpt lat="48.99711" lon="1.10729">
        <ele>78.5</ele>
        <time>2014-09-28T16:42:49Z</time>
      </trkpt>
      <trkpt lat="48.99722" lon="1.1073">
        <ele>78.5</ele>
        <time>2014-09-28T16:42:50Z</time>
      </trkpt>
      <trkpt lat="48.99732" lon="1.10731">
        <ele>77.5</ele>
        <time>2014-09-28T16:42:51Z</time>
      </trkpt>
      <trkpt lat="48.99742" lon="1.10732">
        <ele>76.5</ele>
        <time>2014-09-28T16:42:52Z</time>
      </trkpt>
      <trkpt lat="48.99752" lon="1.10734">
        <ele>75.5</ele>
        <time>2014-09-28T16:42:53Z</time>
      </trkpt>
      <trkpt lat="48.99761" lon="1.10736">
        <ele>75.5</ele>
        <time>2014-09-28T16:42:54Z</time>
      </trkpt>
      <trkpt lat="48.9977" lon="1.10736">
        <ele>75.5</ele>
        <time>2014-09-28T16:42:55Z</time>
      </trkpt>
      <trkpt lat="48.99779" lon="1.10737">
        <ele>74.5</ele>
        <time>2014-09-28T16:42:56Z</time>
      </trkpt>
      <trkpt lat="48.99789" lon="1.10739">
        <ele>72.5</ele>
        <time>2014-09-28T16:42:57Z</time>
      </trkpt>
      <trkpt lat="48.99799" lon="1.10739">
        <ele>70.5</ele>
        <time>2014-09-28T16:42:58Z</time>
      </trkpt>
      <trkpt lat="48.99808" lon="1.10741">
        <ele>71.5</ele>
        <time>2014-09-28T16:42:59Z</time>
      </trkpt>
      <trkpt lat="48.99815" lon="1.10745">
        <ele>70.5</ele>
        <time>2014-09-28T16:43:00Z</time>
      </trkpt>
      <trkpt lat="48.99824" lon="1.10751">
        <ele>69.5</ele>
        <time>2014-09-28T16:43:01Z</time>
      </trkpt>
      <trkpt lat="48.99831" lon="1.10758">
        <ele>69.5</ele>
        <time>2014-09-28T16:43:02Z</time>
      </trkpt>
      <trkpt lat="48.99839" lon="1.10764">
        <ele>70.5</ele>
        <time>2014-09-28T16:43:03Z</time>
      </trkpt>
      <trkpt lat="48.99845" lon="1.10772">
        <ele>69.5</ele>
        <time>2014-09-28T16:43:04Z</time>
      </trkpt>
      <trkpt lat="48.99852" lon="1.10781">
        <ele>68.5</ele>
        <time>2014-09-28T16:43:05Z</time>
      </trkpt>
      <trkpt lat="48.99859" lon="1.1079">
        <ele>68.5</ele>
        <time>2014-09-28T16:43:06Z</time>
      </trkpt>
      <trkpt lat="48.99866" lon="1.10797">
        <ele>68.5</ele>
        <time>2014-09-28T16:43:07Z</time>
      </trkpt>
      <trkpt lat="48.99873" lon="1.10805">
        <ele>68.5</ele>
        <time>2014-09-28T16:43:08Z</time>
      </trkpt>
      <trkpt lat="48.99881" lon="1.10812">
        <ele>69.5</ele>
        <time>2014-09-28T16:43:09Z</time>
      </trkpt>
      <trkpt lat="48.9989" lon="1.10815">
        <ele>68.5</ele>
        <time>2014-09-28T16:43:10Z</time>
      </trkpt>
      <trkpt lat="48.99899" lon="1.10816">
        <ele>68.5</ele>
        <time>2014-09-28T16:43:11Z</time>
      </trkpt>
      <trkpt lat="48.99907" lon="1.10816">
        <ele>68.5</ele>
        <time>2014-09-28T16:43:12Z</time>
      </trkpt>
      <trkpt lat="48.99915" lon="1.10813">
        <ele>69.5</ele>
        <time>2014-09-28T16:43:13Z</time>
      </trkpt>
      <trkpt lat="48.99924" lon="1.1081">
        <ele>67.5</ele>
        <time>2014-09-28T16:43:14Z</time>
      </trkpt>
      <trkpt lat="48.99932" lon="1.10813">
        <ele>68.5</ele>
        <time>2014-09-28T16:43:16Z</time>
      </trkpt>
      <trkpt lat="48.99946" lon="1.10819">
        <ele>69.5</ele>
        <time>2014-09-28T16:43:17Z</time>
      </trkpt>
      <trkpt lat="48.99953" lon="1.10823">
        <ele>69.5</ele>
        <time>2014-09-28T16:43:19Z</time>
      </trkpt>
      <trkpt lat="48.99962" lon="1.10835">
        <ele>70.5</ele>
        <time>2014-09-28T16:43:20Z</time>
      </trkpt>
      <trkpt lat="48.99972" lon="1.10849">
        <ele>70.5</ele>
        <time>2014-09-28T16:43:22Z</time>
      </trkpt>
      <trkpt lat="48.99979" lon="1.10861">
        <ele>69.5</ele>
        <time>2014-09-28T16:43:24Z</time>
      </trkpt>
      <trkpt lat="48.99987" lon="1.10872">
        <ele>70.5</ele>
        <time>2014-09-28T16:43:27Z</time>
      </trkpt>
      <trkpt lat="48.99996" lon="1.10883">
        <ele>71.5</ele>
        <time>2014-09-28T16:43:28Z</time>
      </trkpt>
      <trkpt lat="49.00003" lon="1.10895">
        <ele>70.5</ele>
        <time>2014-09-28T16:43:30Z</time>
      </trkpt>
      <trkpt lat="49.0001" lon="1.10907">
        <ele>72.5</ele>
        <time>2014-09-28T16:43:32Z</time>
      </trkpt>
      <trkpt lat="49.00018" lon="1.10918">
        <ele>72.5</ele>
        <time>2014-09-28T16:43:35Z</time>
      </trkpt>
      <trkpt lat="49.00027" lon="1.10929">
        <ele>74.5</ele>
        <time>2014-09-28T16:43:36Z</time>
      </trkpt>
      <trkpt lat="49.00034" lon="1.1094">
        <ele>73.5</ele>
        <time>2014-09-28T16:43:38Z</time>
      </trkpt>
      <trkpt lat="49.00041" lon="1.1095">
        <ele>74.5</ele>
        <time>2014-09-28T16:43:40Z</time>
      </trkpt>
      <trkpt lat="49.00048" lon="1.10959">
        <ele>72.5</ele>
        <time>2014-09-28T16:43:42Z</time>
      </trkpt>
      <trkpt lat="49.00055" lon="1.10967">
        <ele>72.5</ele>
        <time>2014-09-28T16:43:44Z</time>
      </trkpt>
      <trkpt lat="49.00061" lon="1.10977">
        <ele>72.5</ele>
        <time>2014-09-28T16:43:46Z</time>
      </trkpt>
      <trkpt lat="49.00067" lon="1.10986">
        <ele>71.5</ele>
        <time>2014-09-28T16:43:48Z</time>
      </trkpt>
      <trkpt lat="49.00074" lon="1.10995">
        <ele>72.5</ele>
        <time>2014-09-28T16:43:50Z</time>
      </trkpt>
      <trkpt lat="49.00081" lon="1.11004">
        <ele>72.5</ele>
        <time>2014-09-28T16:43:52Z</time>
      </trkpt>
      <trkpt lat="49.00088" lon="1.11013">
        <ele>73.5</ele>
        <time>2014-09-28T16:43:54Z</time>
      </trkpt>
      <trkpt lat="49.00095" lon="1.11022">
        <ele>73.5</ele>
        <time>2014-09-28T16:43:56Z</time>
      </trkpt>
      <trkpt lat="49.00102" lon="1.1103">
        <ele>73.5</ele>
        <time>2014-09-28T16:43:58Z</time>
      </trkpt>
      <trkpt lat="49.00109" lon="1.11038">
        <ele>73.5</ele>
        <time>2014-09-28T16:44:00Z</time>
      </trkpt>
      <trkpt lat="49.00116" lon="1.11047">
        <ele>73.5</ele>
        <time>2014-09-28T16:44:02Z</time>
      </trkpt>
      <trkpt lat="49.00123" lon="1.11057">
        <ele>73.5</ele>
        <time>2014-09-28T16:44:04Z</time>
      </trkpt>
      <trkpt lat="49.0013" lon="1.11065">
        <ele>73.5</ele>
        <time>2014-09-28T16:44:07Z</time>
      </trkpt>
      <trkpt lat="49.00137" lon="1.11072">
        <ele>73.5</ele>
        <time>2014-09-28T16:44:09Z</time>
      </trkpt>
      <trkpt lat="49.00145" lon="1.1108">
        <ele>73.5</ele>
        <time>2014-09-28T16:44:11Z</time>
      </trkpt>
      <trkpt lat="49.00151" lon="1.11088">
        <ele>73.5</ele>
        <time>2014-09-28T16:44:12Z</time>
      </trkpt>
      <trkpt lat="49.00158" lon="1.11095">
        <ele>73.5</ele>
        <time>2014-09-28T16:44:14Z</time>
      </trkpt>
      <trkpt lat="49.00166" lon="1.11104">
        <ele>73.5</ele>
        <time>2014-09-28T16:44:16Z</time>
      </trkpt>
      <trkpt lat="49.00173" lon="1.11112">
        <ele>74.5</ele>
        <time>2014-09-28T16:44:18Z</time>
      </trkpt>
      <trkpt lat="49.00181" lon="1.11121">
        <ele>74.5</ele>
        <time>2014-09-28T16:44:20Z</time>
      </trkpt>
      <trkpt lat="49.00189" lon="1.1113">
        <ele>74.5</ele>
        <time>2014-09-28T16:44:22Z</time>
      </trkpt>
      <trkpt lat="49.00198" lon="1.1114">
        <ele>74.5</ele>
        <time>2014-09-28T16:44:24Z</time>
      </trkpt>
      <trkpt lat="49.00205" lon="1.1115">
        <ele>74.5</ele>
        <time>2014-09-28T16:44:26Z</time>
      </trkpt>
      <trkpt lat="49.00214" lon="1.11159">
        <ele>75.5</ele>
        <time>2014-09-28T16:44:29Z</time>
      </trkpt>
      <trkpt lat="49.00222" lon="1.1117">
        <ele>77.5</ele>
        <time>2014-09-28T16:44:31Z</time>
      </trkpt>
      <trkpt lat="49.0023" lon="1.11178">
        <ele>76.5</ele>
        <time>2014-09-28T16:44:32Z</time>
      </trkpt>
      <trkpt lat="49.00239" lon="1.11188">
        <ele>78.5</ele>
        <time>2014-09-28T16:44:34Z</time>
      </trkpt>
      <trkpt lat="49.00248" lon="1.11196">
        <ele>78.5</ele>
        <time>2014-09-28T16:44:36Z</time>
      </trkpt>
      <trkpt lat="49.00257" lon="1.11203">
        <ele>78.5</ele>
        <time>2014-09-28T16:44:38Z</time>
      </trkpt>
      <trkpt lat="49.00267" lon="1.1121">
        <ele>78.5</ele>
        <time>2014-09-28T16:44:41Z</time>
      </trkpt>
      <trkpt lat="49.00277" lon="1.11217">
        <ele>78.5</ele>
        <time>2014-09-28T16:44:43Z</time>
      </trkpt>
      <trkpt lat="49.00286" lon="1.11223">
        <ele>80.5</ele>
        <time>2014-09-28T16:44:44Z</time>
      </trkpt>
      <trkpt lat="49.00298" lon="1.11228">
        <ele>78.5</ele>
        <time>2014-09-28T16:44:46Z</time>
      </trkpt>
      <trkpt lat="49.00309" lon="1.11234">
        <ele>78.5</ele>
        <time>2014-09-28T16:44:48Z</time>
      </trkpt>
      <trkpt lat="49.00316" lon="1.11236">
        <ele>77.5</ele>
        <time>2014-09-28T16:44:49Z</time>
      </trkpt>
      <trkpt lat="49.00328" lon="1.11243">
        <ele>77.5</ele>
        <time>2014-09-28T16:44:51Z</time>
      </trkpt>
      <trkpt lat="49.0034" lon="1.11251">
        <ele>77.5</ele>
        <time>2014-09-28T16:44:53Z</time>
      </trkpt>
      <trkpt lat="49.00352" lon="1.11257">
        <ele>76.5</ele>
        <time>2014-09-28T16:44:55Z</time>
      </trkpt>
      <trkpt lat="49.00365" lon="1.11265">
        <ele>75.5</ele>
        <time>2014-09-28T16:44:57Z</time>
      </trkpt>
      <trkpt lat="49.00378" lon="1.11275">
        <ele>74.5</ele>
        <time>2014-09-28T16:44:59Z</time>
      </trkpt>
      <trkpt lat="49.00385" lon="1.11279">
        <ele>75.5</ele>
        <time>2014-09-28T16:45:00Z</time>
      </trkpt>
      <trkpt lat="49.00393" lon="1.11284">
        <ele>75.5</ele>
        <time>2014-09-28T16:45:01Z</time>
      </trkpt>
      <trkpt lat="49.00406" lon="1.1129">
        <ele>73.5</ele>
        <time>2014-09-28T16:45:03Z</time>
      </trkpt>
      <trkpt lat="49.00418" lon="1.11299">
        <ele>73.5</ele>
        <time>2014-09-28T16:45:05Z</time>
      </trkpt>
      <trkpt lat="49.00426" lon="1.11303">
        <ele>71.5</ele>
        <time>2014-09-28T16:45:06Z</time>
      </trkpt>
      <trkpt lat="49.00438" lon="1.11314">
        <ele>71.5</ele>
        <time>2014-09-28T16:45:08Z</time>
      </trkpt>
      <trkpt lat="49.00445" lon="1.11317">
        <ele>70.5</ele>
        <time>2014-09-28T16:45:09Z</time>
      </trkpt>
      <trkpt lat="49.00456" lon="1.11327">
        <ele>70.5</ele>
        <time>2014-09-28T16:45:12Z</time>
      </trkpt>
      <trkpt lat="49.00465" lon="1.11327">
        <ele>71.5</ele>
        <time>2014-09-28T16:45:12Z</time>
      </trkpt>
      <trkpt lat="49.00478" lon="1.11335">
        <ele>71.5</ele>
        <time>2014-09-28T16:45:14Z</time>
      </trkpt>
      <trkpt lat="49.0049" lon="1.11341">
        <ele>71.5</ele>
        <time>2014-09-28T16:45:16Z</time>
      </trkpt>
      <trkpt lat="49.00501" lon="1.1135">
        <ele>72.5</ele>
        <time>2014-09-28T16:45:19Z</time>
      </trkpt>
      <trkpt lat="49.00514" lon="1.11357">
        <ele>70.5</ele>
        <time>2014-09-28T16:45:20Z</time>
      </trkpt>
      <trkpt lat="49.00526" lon="1.11363">
        <ele>68.5</ele>
        <time>2014-09-28T16:45:22Z</time>
      </trkpt>
      <trkpt lat="49.00537" lon="1.11371">
        <ele>67.5</ele>
        <time>2014-09-28T16:45:24Z</time>
      </trkpt>
      <trkpt lat="49.00548" lon="1.11378">
        <ele>66.5</ele>
        <time>2014-09-28T16:45:26Z</time>
      </trkpt>
      <trkpt lat="49.00559" lon="1.11384">
        <ele>67.5</ele>
        <time>2014-09-28T16:45:28Z</time>
      </trkpt>
      <trkpt lat="49.0057" lon="1.11392">
        <ele>66.5</ele>
        <time>2014-09-28T16:45:30Z</time>
      </trkpt>
      <trkpt lat="49.00582" lon="1.11399">
        <ele>65.5</ele>
        <time>2014-09-28T16:45:33Z</time>
      </trkpt>
      <trkpt lat="49.00593" lon="1.11406">
        <ele>63.5</ele>
        <time>2014-09-28T16:45:34Z</time>
      </trkpt>
      <trkpt lat="49.00605" lon="1.11413">
        <ele>63.5</ele>
        <time>2014-09-28T16:45:36Z</time>
      </trkpt>
      <trkpt lat="49.00617" lon="1.11421">
        <ele>62.5</ele>
        <time>2014-09-28T16:45:38Z</time>
      </trkpt>
      <trkpt lat="49.0063" lon="1.11428">
        <ele>62.5</ele>
        <time>2014-09-28T16:45:40Z</time>
      </trkpt>
      <trkpt lat="49.00641" lon="1.11439">
        <ele>65.5</ele>
        <time>2014-09-28T16:45:42Z</time>
      </trkpt>
      <trkpt lat="49.00654" lon="1.11444">
        <ele>62.5</ele>
        <time>2014-09-28T16:45:44Z</time>
      </trkpt>
      <trkpt lat="49.00667" lon="1.11452">
        <ele>60.5</ele>
        <time>2014-09-28T16:45:47Z</time>
      </trkpt>
      <trkpt lat="49.00679" lon="1.11461">
        <ele>59.5</ele>
        <time>2014-09-28T16:45:48Z</time>
      </trkpt>
      <trkpt lat="49.00692" lon="1.11469">
        <ele>61.5</ele>
        <time>2014-09-28T16:45:50Z</time>
      </trkpt>
      <trkpt lat="49.00704" lon="1.11477">
        <ele>60.5</ele>
        <time>2014-09-28T16:45:52Z</time>
      </trkpt>
      <trkpt lat="49.00711" lon="1.11484">
        <ele>61.5</ele>
        <time>2014-09-28T16:45:54Z</time>
      </trkpt>
      <trkpt lat="49.00723" lon="1.11493">
        <ele>62.5</ele>
        <time>2014-09-28T16:45:55Z</time>
      </trkpt>
      <trkpt lat="49.00729" lon="1.115">
        <ele>63.5</ele>
        <time>2014-09-28T16:45:56Z</time>
      </trkpt>
      <trkpt lat="49.0074" lon="1.11511">
        <ele>65.5</ele>
        <time>2014-09-28T16:45:58Z</time>
      </trkpt>
      <trkpt lat="49.00753" lon="1.11518">
        <ele>62.5</ele>
        <time>2014-09-28T16:46:01Z</time>
      </trkpt>
      <trkpt lat="49.00764" lon="1.1153">
        <ele>62.5</ele>
        <time>2014-09-28T16:46:02Z</time>
      </trkpt>
      <trkpt lat="49.0077" lon="1.11538">
        <ele>61.5</ele>
        <time>2014-09-28T16:46:03Z</time>
      </trkpt>
      <trkpt lat="49.00776" lon="1.11546">
        <ele>62.5</ele>
        <time>2014-09-28T16:46:04Z</time>
      </trkpt>
      <trkpt lat="49.00781" lon="1.11555">
        <ele>61.5</ele>
        <time>2014-09-28T16:46:05Z</time>
      </trkpt>
      <trkpt lat="49.00788" lon="1.1156">
        <ele>61.5</ele>
        <time>2014-09-28T16:46:06Z</time>
      </trkpt>
      <trkpt lat="49.00798" lon="1.11574">
        <ele>62.5</ele>
        <time>2014-09-28T16:46:09Z</time>
      </trkpt>
      <trkpt lat="49.00807" lon="1.1159">
        <ele>62.5</ele>
        <time>2014-09-28T16:46:10Z</time>
      </trkpt>
      <trkpt lat="49.00816" lon="1.11604">
        <ele>63.5</ele>
        <time>2014-09-28T16:46:12Z</time>
      </trkpt>
      <trkpt lat="49.00823" lon="1.11607">
        <ele>63.5</ele>
        <time>2014-09-28T16:46:13Z</time>
      </trkpt>
      <trkpt lat="49.00836" lon="1.11614">
        <ele>64.5</ele>
        <time>2014-09-28T16:46:16Z</time>
      </trkpt>
      <trkpt lat="49.00843" lon="1.1162">
        <ele>63.5</ele>
        <time>2014-09-28T16:46:16Z</time>
      </trkpt>
      <trkpt lat="49.00854" lon="1.11629">
        <ele>63.5</ele>
        <time>2014-09-28T16:46:19Z</time>
      </trkpt>
      <trkpt lat="49.00867" lon="1.11635">
        <ele>66.5</ele>
        <time>2014-09-28T16:46:20Z</time>
      </trkpt>
      <trkpt lat="49.00875" lon="1.11639">
        <ele>64.5</ele>
        <time>2014-09-28T16:46:22Z</time>
      </trkpt>
      <trkpt lat="49.00885" lon="1.11649">
        <ele>64.5</ele>
        <time>2014-09-28T16:46:24Z</time>
      </trkpt>
      <trkpt lat="49.00891" lon="1.11654">
        <ele>64.5</ele>
        <time>2014-09-28T16:46:25Z</time>
      </trkpt>
      <trkpt lat="49.00902" lon="1.11662">
        <ele>64.5</ele>
        <time>2014-09-28T16:46:27Z</time>
      </trkpt>
      <trkpt lat="49.00911" lon="1.11665">
        <ele>64.5</ele>
        <time>2014-09-28T16:46:28Z</time>
      </trkpt>
      <trkpt lat="49.00922" lon="1.11675">
        <ele>65.5</ele>
        <time>2014-09-28T16:46:30Z</time>
      </trkpt>
      <trkpt lat="49.00929" lon="1.11676">
        <ele>65.5</ele>
        <time>2014-09-28T16:46:31Z</time>
      </trkpt>
      <trkpt lat="49.00938" lon="1.11686">
        <ele>65.5</ele>
        <time>2014-09-28T16:46:33Z</time>
      </trkpt>
      <trkpt lat="49.00948" lon="1.11692">
        <ele>65.5</ele>
        <time>2014-09-28T16:46:35Z</time>
      </trkpt>
      <trkpt lat="49.00954" lon="1.11695">
        <ele>65.5</ele>
        <time>2014-09-28T16:46:36Z</time>
      </trkpt>
      <trkpt lat="49.00964" lon="1.11704">
        <ele>66.5</ele>
        <time>2014-09-28T16:46:39Z</time>
      </trkpt>
      <trkpt lat="49.00976" lon="1.1171">
        <ele>66.5</ele>
        <time>2014-09-28T16:46:40Z</time>
      </trkpt>
      <trkpt lat="49.00987" lon="1.11717">
        <ele>66.5</ele>
        <time>2014-09-28T16:46:42Z</time>
      </trkpt>
      <trkpt lat="49.00999" lon="1.11723">
        <ele>66.5</ele>
        <time>2014-09-28T16:46:44Z</time>
      </trkpt>
      <trkpt lat="49.01011" lon="1.11728">
        <ele>68.5</ele>
        <time>2014-09-28T16:46:46Z</time>
      </trkpt>
      <trkpt lat="49.01022" lon="1.11737">
        <ele>67.5</ele>
        <time>2014-09-28T16:46:48Z</time>
      </trkpt>
      <trkpt lat="49.01034" lon="1.11745">
        <ele>66.5</ele>
        <time>2014-09-28T16:46:50Z</time>
      </trkpt>
      <trkpt lat="49.01041" lon="1.11746">
        <ele>66.5</ele>
        <time>2014-09-28T16:46:51Z</time>
      </trkpt>
      <trkpt lat="49.0105" lon="1.11754">
        <ele>65.5</ele>
        <time>2014-09-28T16:46:53Z</time>
      </trkpt>
      <trkpt lat="49.01062" lon="1.11762">
        <ele>64.5</ele>
        <time>2014-09-28T16:46:55Z</time>
      </trkpt>
      <trkpt lat="49.01075" lon="1.11772">
        <ele>64.5</ele>
        <time>2014-09-28T16:46:57Z</time>
      </trkpt>
      <trkpt lat="49.01085" lon="1.11778">
        <ele>64.5</ele>
        <time>2014-09-28T16:46:59Z</time>
      </trkpt>
      <trkpt lat="49.01096" lon="1.11785">
        <ele>66.5</ele>
        <time>2014-09-28T16:47:02Z</time>
      </trkpt>
      <trkpt lat="49.011" lon="1.1179">
        <ele>65.5</ele>
        <time>2014-09-28T16:47:02Z</time>
      </trkpt>
      <trkpt lat="49.0111" lon="1.11796">
        <ele>63.5</ele>
        <time>2014-09-28T16:47:05Z</time>
      </trkpt>
      <trkpt lat="49.01116" lon="1.11798">
        <ele>65.5</ele>
        <time>2014-09-28T16:47:05Z</time>
      </trkpt>
      <trkpt lat="49.01127" lon="1.11804">
        <ele>65.5</ele>
        <time>2014-09-28T16:47:07Z</time>
      </trkpt>
      <trkpt lat="49.01139" lon="1.11809">
        <ele>64.5</ele>
        <time>2014-09-28T16:47:10Z</time>
      </trkpt>
      <trkpt lat="49.01144" lon="1.11815">
        <ele>64.5</ele>
        <time>2014-09-28T16:47:10Z</time>
      </trkpt>
      <trkpt lat="49.01155" lon="1.11822">
        <ele>64.5</ele>
        <time>2014-09-28T16:47:13Z</time>
      </trkpt>
      <trkpt lat="49.01161" lon="1.11827">
        <ele>64.5</ele>
        <time>2014-09-28T16:47:13Z</time>
      </trkpt>
      <trkpt lat="49.01173" lon="1.11833">
        <ele>63.5</ele>
        <time>2014-09-28T16:47:15Z</time>
      </trkpt>
      <trkpt lat="49.01184" lon="1.11839">
        <ele>63.5</ele>
        <time>2014-09-28T16:47:17Z</time>
      </trkpt>
      <trkpt lat="49.01195" lon="1.11846">
        <ele>63.5</ele>
        <time>2014-09-28T16:47:19Z</time>
      </trkpt>
      <trkpt lat="49.01205" lon="1.1185">
        <ele>62.5</ele>
        <time>2014-09-28T16:47:21Z</time>
      </trkpt>
      <trkpt lat="49.01215" lon="1.11859">
        <ele>63.5</ele>
        <time>2014-09-28T16:47:23Z</time>
      </trkpt>
      <trkpt lat="49.01227" lon="1.11867">
        <ele>62.5</ele>
        <time>2014-09-28T16:47:25Z</time>
      </trkpt>
      <trkpt lat="49.01238" lon="1.11873">
        <ele>63.5</ele>
        <time>2014-09-28T16:47:27Z</time>
      </trkpt>
      <trkpt lat="49.01248" lon="1.11879">
        <ele>63.5</ele>
        <time>2014-09-28T16:47:29Z</time>
      </trkpt>
      <trkpt lat="49.01258" lon="1.11886">
        <ele>62.5</ele>
        <time>2014-09-28T16:47:32Z</time>
      </trkpt>
      <trkpt lat="49.0127" lon="1.1189">
        <ele>61.5</ele>
        <time>2014-09-28T16:47:34Z</time>
      </trkpt>
      <trkpt lat="49.01279" lon="1.11897">
        <ele>62.5</ele>
        <time>2014-09-28T16:47:35Z</time>
      </trkpt>
      <trkpt lat="49.0129" lon="1.11901">
        <ele>62.5</ele>
        <time>2014-09-28T16:47:37Z</time>
      </trkpt>
      <trkpt lat="49.01301" lon="1.11906">
        <ele>63.5</ele>
        <time>2014-09-28T16:47:39Z</time>
      </trkpt>
      <trkpt lat="49.01311" lon="1.11913">
        <ele>63.5</ele>
        <time>2014-09-28T16:47:41Z</time>
      </trkpt>
      <trkpt lat="49.01321" lon="1.11919">
        <ele>63.5</ele>
        <time>2014-09-28T16:47:44Z</time>
      </trkpt>
      <trkpt lat="49.01333" lon="1.11924">
        <ele>62.5</ele>
        <time>2014-09-28T16:47:46Z</time>
      </trkpt>
      <trkpt lat="49.01341" lon="1.11927">
        <ele>62.5</ele>
        <time>2014-09-28T16:47:47Z</time>
      </trkpt>
      <trkpt lat="49.0135" lon="1.11933">
        <ele>60.5</ele>
        <time>2014-09-28T16:47:49Z</time>
      </trkpt>
      <trkpt lat="49.01361" lon="1.11938">
        <ele>60.5</ele>
        <time>2014-09-28T16:47:51Z</time>
      </trkpt>
      <trkpt lat="49.0137" lon="1.11947">
        <ele>62.5</ele>
        <time>2014-09-28T16:47:53Z</time>
      </trkpt>
      <trkpt lat="49.01382" lon="1.11952">
        <ele>61.5</ele>
        <time>2014-09-28T16:47:55Z</time>
      </trkpt>
      <trkpt lat="49.01393" lon="1.11956">
        <ele>62.5</ele>
        <time>2014-09-28T16:47:57Z</time>
      </trkpt>
      <trkpt lat="49.01404" lon="1.11961">
        <ele>64.5</ele>
        <time>2014-09-28T16:47:59Z</time>
      </trkpt>
      <trkpt lat="49.01416" lon="1.11967">
        <ele>65.5</ele>
        <time>2014-09-28T16:48:01Z</time>
      </trkpt>
      <trkpt lat="49.01427" lon="1.11974">
        <ele>63.5</ele>
        <time>2014-09-28T16:48:03Z</time>
      </trkpt>
      <trkpt lat="49.01438" lon="1.11981">
        <ele>61.5</ele>
        <time>2014-09-28T16:48:05Z</time>
      </trkpt>
      <trkpt lat="49.01449" lon="1.11987">
        <ele>60.5</ele>
        <time>2014-09-28T16:48:08Z</time>
      </trkpt>
      <trkpt lat="49.0146" lon="1.11994">
        <ele>59.5</ele>
        <time>2014-09-28T16:48:10Z</time>
      </trkpt>
      <trkpt lat="49.01471" lon="1.12003">
        <ele>59.5</ele>
        <time>2014-09-28T16:48:11Z</time>
      </trkpt>
      <trkpt lat="49.01478" lon="1.12014">
        <ele>58.5</ele>
        <time>2014-09-28T16:48:14Z</time>
      </trkpt>
      <trkpt lat="49.01485" lon="1.12027">
        <ele>58.5</ele>
        <time>2014-09-28T16:48:15Z</time>
      </trkpt>
      <trkpt lat="49.01493" lon="1.1204">
        <ele>56.5</ele>
        <time>2014-09-28T16:48:17Z</time>
      </trkpt>
      <trkpt lat="49.01501" lon="1.12051">
        <ele>58.5</ele>
        <time>2014-09-28T16:48:19Z</time>
      </trkpt>
      <trkpt lat="49.01509" lon="1.12062">
        <ele>58.5</ele>
        <time>2014-09-28T16:48:22Z</time>
      </trkpt>
      <trkpt lat="49.01518" lon="1.1207">
        <ele>59.5</ele>
        <time>2014-09-28T16:48:23Z</time>
      </trkpt>
      <trkpt lat="49.01525" lon="1.12082">
        <ele>59.5</ele>
        <time>2014-09-28T16:48:25Z</time>
      </trkpt>
      <trkpt lat="49.01531" lon="1.12093">
        <ele>58.5</ele>
        <time>2014-09-28T16:48:27Z</time>
      </trkpt>
      <trkpt lat="49.01538" lon="1.12105">
        <ele>57.5</ele>
        <time>2014-09-28T16:48:29Z</time>
      </trkpt>
      <trkpt lat="49.01546" lon="1.12117">
        <ele>56.5</ele>
        <time>2014-09-28T16:48:31Z</time>
      </trkpt>
      <trkpt lat="49.01554" lon="1.12128">
        <ele>57.5</ele>
        <time>2014-09-28T16:48:33Z</time>
      </trkpt>
      <trkpt lat="49.01562" lon="1.1214">
        <ele>56.5</ele>
        <time>2014-09-28T16:48:35Z</time>
      </trkpt>
      <trkpt lat="49.01569" lon="1.12153">
        <ele>56.5</ele>
        <time>2014-09-28T16:48:38Z</time>
      </trkpt>
      <trkpt lat="49.01577" lon="1.12164">
        <ele>56.5</ele>
        <time>2014-09-28T16:48:40Z</time>
      </trkpt>
      <trkpt lat="49.01584" lon="1.12175">
        <ele>56.5</ele>
        <time>2014-09-28T16:48:42Z</time>
      </trkpt>
      <trkpt lat="49.01592" lon="1.12187">
        <ele>56.5</ele>
        <time>2014-09-28T16:48:43Z</time>
      </trkpt>
      <trkpt lat="49.016" lon="1.12201">
        <ele>57.5</ele>
        <time>2014-09-28T16:48:45Z</time>
      </trkpt>
      <trkpt lat="49.01606" lon="1.12213">
        <ele>56.5</ele>
        <time>2014-09-28T16:48:47Z</time>
      </trkpt>
      <trkpt lat="49.01615" lon="1.12225">
        <ele>56.5</ele>
        <time>2014-09-28T16:48:49Z</time>
      </trkpt>
      <trkpt lat="49.01622" lon="1.12235">
        <ele>56.5</ele>
        <time>2014-09-28T16:48:51Z</time>
      </trkpt>
      <trkpt lat="49.01628" lon="1.1225">
        <ele>57.5</ele>
        <time>2014-09-28T16:48:54Z</time>
      </trkpt>
      <trkpt lat="49.01636" lon="1.12263">
        <ele>56.5</ele>
        <time>2014-09-28T16:48:55Z</time>
      </trkpt>
      <trkpt lat="49.01643" lon="1.12274">
        <ele>56.5</ele>
        <time>2014-09-28T16:48:57Z</time>
      </trkpt>
      <trkpt lat="49.0165" lon="1.12287">
        <ele>56.5</ele>
        <time>2014-09-28T16:48:59Z</time>
      </trkpt>
      <trkpt lat="49.01657" lon="1.12302">
        <ele>58.5</ele>
        <time>2014-09-28T16:49:01Z</time>
      </trkpt>
      <trkpt lat="49.01664" lon="1.12313">
        <ele>56.5</ele>
        <time>2014-09-28T16:49:03Z</time>
      </trkpt>
      <trkpt lat="49.01672" lon="1.12323">
        <ele>57.5</ele>
        <time>2014-09-28T16:49:05Z</time>
      </trkpt>
      <trkpt lat="49.01681" lon="1.12334">
        <ele>56.5</ele>
        <time>2014-09-28T16:49:07Z</time>
      </trkpt>
      <trkpt lat="49.01691" lon="1.12345">
        <ele>55.5</ele>
        <time>2014-09-28T16:49:10Z</time>
      </trkpt>
      <trkpt lat="49.01701" lon="1.12354">
        <ele>57.5</ele>
        <time>2014-09-28T16:49:12Z</time>
      </trkpt>
      <trkpt lat="49.0171" lon="1.12364">
        <ele>56.5</ele>
        <time>2014-09-28T16:49:13Z</time>
      </trkpt>
      <trkpt lat="49.01718" lon="1.12376">
        <ele>56.5</ele>
        <time>2014-09-28T16:49:15Z</time>
      </trkpt>
      <trkpt lat="49.01727" lon="1.12387">
        <ele>56.5</ele>
        <time>2014-09-28T16:49:17Z</time>
      </trkpt>
      <trkpt lat="49.01736" lon="1.12398">
        <ele>56.5</ele>
        <time>2014-09-28T16:49:19Z</time>
      </trkpt>
      <trkpt lat="49.01744" lon="1.1241">
        <ele>56.5</ele>
        <time>2014-09-28T16:49:21Z</time>
      </trkpt>
      <trkpt lat="49.01753" lon="1.1242">
        <ele>55.5</ele>
        <time>2014-09-28T16:49:23Z</time>
      </trkpt>
      <trkpt lat="49.01761" lon="1.12433">
        <ele>55.5</ele>
        <time>2014-09-28T16:49:25Z</time>
      </trkpt>
      <trkpt lat="49.01769" lon="1.12445">
        <ele>55.5</ele>
        <time>2014-09-28T16:49:28Z</time>
      </trkpt>
      <trkpt lat="49.01777" lon="1.12456">
        <ele>56.5</ele>
        <time>2014-09-28T16:49:29Z</time>
      </trkpt>
      <trkpt lat="49.01784" lon="1.1247">
        <ele>57.5</ele>
        <time>2014-09-28T16:49:32Z</time>
      </trkpt>
      <trkpt lat="49.01791" lon="1.12482">
        <ele>57.5</ele>
        <time>2014-09-28T16:49:33Z</time>
      </trkpt>
      <trkpt lat="49.01797" lon="1.12494">
        <ele>58.5</ele>
        <time>2014-09-28T16:49:35Z</time>
      </trkpt>
      <trkpt lat="49.01802" lon="1.12509">
        <ele>57.5</ele>
        <time>2014-09-28T16:49:37Z</time>
      </trkpt>
      <trkpt lat="49.01806" lon="1.12523">
        <ele>58.5</ele>
        <time>2014-09-28T16:49:40Z</time>
      </trkpt>
      <trkpt lat="49.01812" lon="1.12535">
        <ele>59.5</ele>
        <time>2014-09-28T16:49:41Z</time>
      </trkpt>
      <trkpt lat="49.01815" lon="1.12545">
        <ele>59.5</ele>
        <time>2014-09-28T16:49:42Z</time>
      </trkpt>
      <trkpt lat="49.01821" lon="1.12559">
        <ele>60.5</ele>
        <time>2014-09-28T16:49:44Z</time>
      </trkpt>
      <trkpt lat="49.01827" lon="1.12573">
        <ele>58.5</ele>
        <time>2014-09-28T16:49:46Z</time>
      </trkpt>
      <trkpt lat="49.01832" lon="1.12587">
        <ele>58.5</ele>
        <time>2014-09-28T16:49:48Z</time>
      </trkpt>
      <trkpt lat="49.01837" lon="1.126">
        <ele>57.5</ele>
        <time>2014-09-28T16:49:50Z</time>
      </trkpt>
      <trkpt lat="49.01842" lon="1.12617">
        <ele>56.5</ele>
        <time>2014-09-28T16:49:52Z</time>
      </trkpt>
      <trkpt lat="49.01848" lon="1.12632">
        <ele>57.5</ele>
        <time>2014-09-28T16:49:55Z</time>
      </trkpt>
      <trkpt lat="49.01853" lon="1.12649">
        <ele>57.5</ele>
        <time>2014-09-28T16:49:56Z</time>
      </trkpt>
      <trkpt lat="49.01858" lon="1.12665">
        <ele>56.5</ele>
        <time>2014-09-28T16:49:58Z</time>
      </trkpt>
      <trkpt lat="49.01859" lon="1.12677">
        <ele>56.5</ele>
        <time>2014-09-28T16:49:59Z</time>
      </trkpt>
      <trkpt lat="49.01865" lon="1.1269">
        <ele>57.5</ele>
        <time>2014-09-28T16:50:01Z</time>
      </trkpt>
      <trkpt lat="49.01869" lon="1.12705">
        <ele>56.5</ele>
        <time>2014-09-28T16:50:03Z</time>
      </trkpt>
      <trkpt lat="49.01873" lon="1.1272">
        <ele>55.5</ele>
        <time>2014-09-28T16:50:05Z</time>
      </trkpt>
      <trkpt lat="49.01877" lon="1.12735">
        <ele>55.5</ele>
        <time>2014-09-28T16:50:07Z</time>
      </trkpt>
      <trkpt lat="49.01879" lon="1.1275">
        <ele>50.5</ele>
        <time>2014-09-28T16:50:09Z</time>
      </trkpt>
      <trkpt lat="49.01881" lon="1.12767">
        <ele>50.5</ele>
        <time>2014-09-28T16:50:12Z</time>
      </trkpt>
      <trkpt lat="49.01884" lon="1.12784">
        <ele>49.5</ele>
        <time>2014-09-28T16:50:13Z</time>
      </trkpt>
      <trkpt lat="49.01887" lon="1.128">
        <ele>48.5</ele>
        <time>2014-09-28T16:50:16Z</time>
      </trkpt>
      <trkpt lat="49.0189" lon="1.12816">
        <ele>50.5</ele>
        <time>2014-09-28T16:50:17Z</time>
      </trkpt>
      <trkpt lat="49.01892" lon="1.12832">
        <ele>49.5</ele>
        <time>2014-09-28T16:50:20Z</time>
      </trkpt>
      <trkpt lat="49.01895" lon="1.12848">
        <ele>49.5</ele>
        <time>2014-09-28T16:50:21Z</time>
      </trkpt>
      <trkpt lat="49.01898" lon="1.12865">
        <ele>48.5</ele>
        <time>2014-09-28T16:50:23Z</time>
      </trkpt>
      <trkpt lat="49.01901" lon="1.12881">
        <ele>52.5</ele>
        <time>2014-09-28T16:50:25Z</time>
      </trkpt>
      <trkpt lat="49.01902" lon="1.12896">
        <ele>51.5</ele>
        <time>2014-09-28T16:50:27Z</time>
      </trkpt>
      <trkpt lat="49.01903" lon="1.12909">
        <ele>49.5</ele>
        <time>2014-09-28T16:50:29Z</time>
      </trkpt>
      <trkpt lat="49.01905" lon="1.12924">
        <ele>51.5</ele>
        <time>2014-09-28T16:50:32Z</time>
      </trkpt>
      <trkpt lat="49.01906" lon="1.12942">
        <ele>50.5</ele>
        <time>2014-09-28T16:50:33Z</time>
      </trkpt>
      <trkpt lat="49.01909" lon="1.12956">
        <ele>50.5</ele>
        <time>2014-09-28T16:50:35Z</time>
      </trkpt>
      <trkpt lat="49.01916" lon="1.12967">
        <ele>50.5</ele>
        <time>2014-09-28T16:50:36Z</time>
      </trkpt>
      <trkpt lat="49.01927" lon="1.12971">
        <ele>53.5</ele>
        <time>2014-09-28T16:50:39Z</time>
      </trkpt>
      <trkpt lat="49.01934" lon="1.12965">
        <ele>55.5</ele>
        <time>2014-09-28T16:50:39Z</time>
      </trkpt>
      <trkpt lat="49.01941" lon="1.12959">
        <ele>57.5</ele>
        <time>2014-09-28T16:50:41Z</time>
      </trkpt>
      <trkpt lat="49.01949" lon="1.12954">
        <ele>58.5</ele>
        <time>2014-09-28T16:50:43Z</time>
      </trkpt>
      <trkpt lat="49.0196" lon="1.12947">
        <ele>60.5</ele>
        <time>2014-09-28T16:50:45Z</time>
      </trkpt>
      <trkpt lat="49.01969" lon="1.12938">
        <ele>56.5</ele>
        <time>2014-09-28T16:50:47Z</time>
      </trkpt>
      <trkpt lat="49.01979" lon="1.12931">
        <ele>56.5</ele>
        <time>2014-09-28T16:50:50Z</time>
      </trkpt>
      <trkpt lat="49.01985" lon="1.12924">
        <ele>54.5</ele>
        <time>2014-09-28T16:50:50Z</time>
      </trkpt>
      <trkpt lat="49.01994" lon="1.12916">
        <ele>51.5</ele>
        <time>2014-09-28T16:50:52Z</time>
      </trkpt>
      <trkpt lat="49.02005" lon="1.12909">
        <ele>53.5</ele>
        <time>2014-09-28T16:50:54Z</time>
      </trkpt>
      <trkpt lat="49.02015" lon="1.12903">
        <ele>55.5</ele>
        <time>2014-09-28T16:50:56Z</time>
      </trkpt>
      <trkpt lat="49.02026" lon="1.12895">
        <ele>55.5</ele>
        <time>2014-09-28T16:50:58Z</time>
      </trkpt>
      <trkpt lat="49.02038" lon="1.12885">
        <ele>56.5</ele>
        <time>2014-09-28T16:51:00Z</time>
      </trkpt>
      <trkpt lat="49.0205" lon="1.12876">
        <ele>58.5</ele>
        <time>2014-09-28T16:51:02Z</time>
      </trkpt>
      <trkpt lat="49.02059" lon="1.12866">
        <ele>58.5</ele>
        <time>2014-09-28T16:51:04Z</time>
      </trkpt>
      <trkpt lat="49.02069" lon="1.12856">
        <ele>59.5</ele>
        <time>2014-09-28T16:51:06Z</time>
      </trkpt>
      <trkpt lat="49.02078" lon="1.12847">
        <ele>60.5</ele>
        <time>2014-09-28T16:51:08Z</time>
      </trkpt>
      <trkpt lat="49.02085" lon="1.12839">
        <ele>58.5</ele>
        <time>2014-09-28T16:51:10Z</time>
      </trkpt>
      <trkpt lat="49.02095" lon="1.12829">
        <ele>58.5</ele>
        <time>2014-09-28T16:51:12Z</time>
      </trkpt>
      <trkpt lat="49.02103" lon="1.12819">
        <ele>60.5</ele>
        <time>2014-09-28T16:51:14Z</time>
      </trkpt>
      <trkpt lat="49.0211" lon="1.12808">
        <ele>61.5</ele>
        <time>2014-09-28T16:51:16Z</time>
      </trkpt>
      <trkpt lat="49.02121" lon="1.12798">
        <ele>62.5</ele>
        <time>2014-09-28T16:51:18Z</time>
      </trkpt>
      <trkpt lat="49.02131" lon="1.12791">
        <ele>62.5</ele>
        <time>2014-09-28T16:51:20Z</time>
      </trkpt>
      <trkpt lat="49.02138" lon="1.12782">
        <ele>60.5</ele>
        <time>2014-09-28T16:51:23Z</time>
      </trkpt>
      <trkpt lat="49.02146" lon="1.12769">
        <ele>61.5</ele>
        <time>2014-09-28T16:51:24Z</time>
      </trkpt>
      <trkpt lat="49.02155" lon="1.12756">
        <ele>59.5</ele>
        <time>2014-09-28T16:51:26Z</time>
      </trkpt>
      <trkpt lat="49.02162" lon="1.12743">
        <ele>58.5</ele>
        <time>2014-09-28T16:51:28Z</time>
      </trkpt>
      <trkpt lat="49.02165" lon="1.12729">
        <ele>56.5</ele>
        <time>2014-09-28T16:51:30Z</time>
      </trkpt>
      <trkpt lat="49.02171" lon="1.12718">
        <ele>57.5</ele>
        <time>2014-09-28T16:51:32Z</time>
      </trkpt>
      <trkpt lat="49.02177" lon="1.12707">
        <ele>55.5</ele>
        <time>2014-09-28T16:51:34Z</time>
      </trkpt>
      <trkpt lat="49.02185" lon="1.12697">
        <ele>54.5</ele>
        <time>2014-09-28T16:51:37Z</time>
      </trkpt>
      <trkpt lat="49.02193" lon="1.12685">
        <ele>56.5</ele>
        <time>2014-09-28T16:51:38Z</time>
      </trkpt>
      <trkpt lat="49.02201" lon="1.12672">
        <ele>55.5</ele>
        <time>2014-09-28T16:51:40Z</time>
      </trkpt>
      <trkpt lat="49.02209" lon="1.12659">
        <ele>55.5</ele>
        <time>2014-09-28T16:51:42Z</time>
      </trkpt>
      <trkpt lat="49.02215" lon="1.12647">
        <ele>57.5</ele>
        <time>2014-09-28T16:51:44Z</time>
      </trkpt>
      <trkpt lat="49.02221" lon="1.12635">
        <ele>56.5</ele>
        <time>2014-09-28T16:51:46Z</time>
      </trkpt>
      <trkpt lat="49.02227" lon="1.12622">
        <ele>57.5</ele>
        <time>2014-09-28T16:51:48Z</time>
      </trkpt>
      <trkpt lat="49.02233" lon="1.1261">
        <ele>54.5</ele>
        <time>2014-09-28T16:51:50Z</time>
      </trkpt>
      <trkpt lat="49.02242" lon="1.12599">
        <ele>52.5</ele>
        <time>2014-09-28T16:51:52Z</time>
      </trkpt>
      <trkpt lat="49.0225" lon="1.12587">
        <ele>50.5</ele>
        <time>2014-09-28T16:51:54Z</time>
      </trkpt>
      <trkpt lat="49.02259" lon="1.12576">
        <ele>50.5</ele>
        <time>2014-09-28T16:51:56Z</time>
      </trkpt>
      <trkpt lat="49.02268" lon="1.12566">
        <ele>50.5</ele>
        <time>2014-09-28T16:51:58Z</time>
      </trkpt>
      <trkpt lat="49.02274" lon="1.12555">
        <ele>51.5</ele>
        <time>2014-09-28T16:52:00Z</time>
      </trkpt>
      <trkpt lat="49.02281" lon="1.12547">
        <ele>51.5</ele>
        <time>2014-09-28T16:52:02Z</time>
      </trkpt>
      <trkpt lat="49.02288" lon="1.12536">
        <ele>49.5</ele>
        <time>2014-09-28T16:52:05Z</time>
      </trkpt>
      <trkpt lat="49.02297" lon="1.12525">
        <ele>51.5</ele>
        <time>2014-09-28T16:52:06Z</time>
      </trkpt>
      <trkpt lat="49.02305" lon="1.12514">
        <ele>51.5</ele>
        <time>2014-09-28T16:52:08Z</time>
      </trkpt>
      <trkpt lat="49.02311" lon="1.12507">
        <ele>53.5</ele>
        <time>2014-09-28T16:52:11Z</time>
      </trkpt>
      <trkpt lat="49.02319" lon="1.12496">
        <ele>56.5</ele>
        <time>2014-09-28T16:52:13Z</time>
      </trkpt>
      <trkpt lat="49.02326" lon="1.12486">
        <ele>56.5</ele>
        <time>2014-09-28T16:52:15Z</time>
      </trkpt>
      <trkpt lat="49.02333" lon="1.12481">
        <ele>57.5</ele>
        <time>2014-09-28T16:52:17Z</time>
      </trkpt>
      <trkpt lat="49.0234" lon="1.12486">
        <ele>59.5</ele>
        <time>2014-09-28T16:52:19Z</time>
      </trkpt>
      <trkpt lat="49.02345" lon="1.12495">
        <ele>59.5</ele>
        <time>2014-09-28T16:52:22Z</time>
      </trkpt>
      <trkpt lat="49.02351" lon="1.12505">
        <ele>58.5</ele>
        <time>2014-09-28T16:52:23Z</time>
      </trkpt>
      <trkpt lat="49.02359" lon="1.12513">
        <ele>57.5</ele>
        <time>2014-09-28T16:52:25Z</time>
      </trkpt>
      <trkpt lat="49.02365" lon="1.12524">
        <ele>56.5</ele>
        <time>2014-09-28T16:52:28Z</time>
      </trkpt>
      <trkpt lat="49.02372" lon="1.12534">
        <ele>57.5</ele>
        <time>2014-09-28T16:52:29Z</time>
      </trkpt>
      <trkpt lat="49.02377" lon="1.12543">
        <ele>56.5</ele>
        <time>2014-09-28T16:52:31Z</time>
      </trkpt>
      <trkpt lat="49.02383" lon="1.1255">
        <ele>56.5</ele>
        <time>2014-09-28T16:52:34Z</time>
      </trkpt>
      <trkpt lat="49.02389" lon="1.12557">
        <ele>57.5</ele>
        <time>2014-09-28T16:52:36Z</time>
      </trkpt>
      <trkpt lat="49.02397" lon="1.12558">
        <ele>58.5</ele>
        <time>2014-09-28T16:53:53Z</time>
      </trkpt>
      <trkpt lat="49.02406" lon="1.12556">
        <ele>57.5</ele>
        <time>2014-09-28T16:53:56Z</time>
      </trkpt>
      <trkpt lat="49.0241" lon="1.12542">
        <ele>60.5</ele>
        <time>2014-09-28T16:53:59Z</time>
      </trkpt>
      <trkpt lat="49.02417" lon="1.12529">
        <ele>59.5</ele>
        <time>2014-09-28T16:54:02Z</time>
      </trkpt>
      <trkpt lat="49.02424" lon="1.12523">
        <ele>60.5</ele>
        <time>2014-09-28T16:54:04Z</time>
      </trkpt>
      <trkpt lat="49.02433" lon="1.12516">
        <ele>62.5</ele>
        <time>2014-09-28T16:54:05Z</time>
      </trkpt>
      <trkpt lat="49.02444" lon="1.12511">
        <ele>60.5</ele>
        <time>2014-09-28T16:54:08Z</time>
      </trkpt>
      <trkpt lat="49.0245" lon="1.12503">
        <ele>60.5</ele>
        <time>2014-09-28T16:54:10Z</time>
      </trkpt>
      <trkpt lat="49.02459" lon="1.12501">
        <ele>61.5</ele>
        <time>2014-09-28T16:54:12Z</time>
      </trkpt>
      <trkpt lat="49.02463" lon="1.12514">
        <ele>64.5</ele>
        <time>2014-09-28T16:54:14Z</time>
      </trkpt>
      <trkpt lat="49.02461" lon="1.12525">
        <ele>65.5</ele>
        <time>2014-09-28T16:54:16Z</time>
      </trkpt>
      <trkpt lat="49.02458" lon="1.1254">
        <ele>65.5</ele>
        <time>2014-09-28T16:54:19Z</time>
      </trkpt>
      <trkpt lat="49.02457" lon="1.12556">
        <ele>62.5</ele>
        <time>2014-09-28T16:54:22Z</time>
      </trkpt>
      <trkpt lat="49.02456" lon="1.12572">
        <ele>65.5</ele>
        <time>2014-09-28T16:54:25Z</time>
      </trkpt>
      <trkpt lat="49.02455" lon="1.12584">
        <ele>65.5</ele>
        <time>2014-09-28T16:54:27Z</time>
      </trkpt>
      <trkpt lat="49.02454" lon="1.12595">
        <ele>67.5</ele>
        <time>2014-09-28T16:54:29Z</time>
      </trkpt>
      <trkpt lat="49.02454" lon="1.12611">
        <ele>65.5</ele>
        <time>2014-09-28T16:54:32Z</time>
      </trkpt>
      <trkpt lat="49.02455" lon="1.12623">
        <ele>68.5</ele>
        <time>2014-09-28T16:54:34Z</time>
      </trkpt>
      <trkpt lat="49.02456" lon="1.12635">
        <ele>67.5</ele>
        <time>2014-09-28T16:54:36Z</time>
      </trkpt>
      <trkpt lat="49.02455" lon="1.12646">
        <ele>65.5</ele>
        <time>2014-09-28T16:54:38Z</time>
      </trkpt>
      <trkpt lat="49.02454" lon="1.12658">
        <ele>65.5</ele>
        <time>2014-09-28T16:54:40Z</time>
      </trkpt>
      <trkpt lat="49.02453" lon="1.1267">
        <ele>67.5</ele>
        <time>2014-09-28T16:54:42Z</time>
      </trkpt>
      <trkpt lat="49.02452" lon="1.12683">
        <ele>68.5</ele>
        <time>2014-09-28T16:54:44Z</time>
      </trkpt>
      <trkpt lat="49.02451" lon="1.127">
        <ele>67.5</ele>
        <time>2014-09-28T16:54:46Z</time>
      </trkpt>
      <trkpt lat="49.02449" lon="1.12712">
        <ele>65.5</ele>
        <time>2014-09-28T16:54:49Z</time>
      </trkpt>
      <trkpt lat="49.02451" lon="1.12724">
        <ele>63.5</ele>
        <time>2014-09-28T16:54:50Z</time>
      </trkpt>
      <trkpt lat="49.02452" lon="1.12736">
        <ele>63.5</ele>
        <time>2014-09-28T16:54:52Z</time>
      </trkpt>
      <trkpt lat="49.02452" lon="1.12749">
        <ele>62.5</ele>
        <time>2014-09-28T16:54:54Z</time>
      </trkpt>
      <trkpt lat="49.02455" lon="1.12762">
        <ele>63.5</ele>
        <time>2014-09-28T16:54:56Z</time>
      </trkpt>
      <trkpt lat="49.02458" lon="1.12774">
        <ele>60.5</ele>
        <time>2014-09-28T16:54:58Z</time>
      </trkpt>
      <trkpt lat="49.0246" lon="1.12789">
        <ele>61.5</ele>
        <time>2014-09-28T16:55:00Z</time>
      </trkpt>
      <trkpt lat="49.02465" lon="1.12804">
        <ele>63.5</ele>
        <time>2014-09-28T16:55:02Z</time>
      </trkpt>
      <trkpt lat="49.02467" lon="1.12817">
        <ele>63.5</ele>
        <time>2014-09-28T16:55:04Z</time>
      </trkpt>
      <trkpt lat="49.02471" lon="1.12831">
        <ele>62.5</ele>
        <time>2014-09-28T16:55:06Z</time>
      </trkpt>
      <trkpt lat="49.02474" lon="1.12843">
        <ele>61.5</ele>
        <time>2014-09-28T16:55:08Z</time>
      </trkpt>
      <trkpt lat="49.02477" lon="1.12856">
        <ele>64.5</ele>
        <time>2014-09-28T16:55:10Z</time>
      </trkpt>
      <trkpt lat="49.02481" lon="1.12866">
        <ele>63.5</ele>
        <time>2014-09-28T16:55:12Z</time>
      </trkpt>
      <trkpt lat="49.02485" lon="1.12879">
        <ele>62.5</ele>
        <time>2014-09-28T16:55:14Z</time>
      </trkpt>
      <trkpt lat="49.02493" lon="1.12895">
        <ele>63.5</ele>
        <time>2014-09-28T16:55:16Z</time>
      </trkpt>
      <trkpt lat="49.02494" lon="1.12912">
        <ele>62.5</ele>
        <time>2014-09-28T16:55:18Z</time>
      </trkpt>
      <trkpt lat="49.02493" lon="1.12928">
        <ele>58.5</ele>
        <time>2014-09-28T16:55:20Z</time>
      </trkpt>
      <trkpt lat="49.02495" lon="1.12944">
        <ele>57.5</ele>
        <time>2014-09-28T16:55:22Z</time>
      </trkpt>
      <trkpt lat="49.02496" lon="1.12959">
        <ele>57.5</ele>
        <time>2014-09-28T16:55:24Z</time>
      </trkpt>
      <trkpt lat="49.02497" lon="1.12974">
        <ele>57.5</ele>
        <time>2014-09-28T16:55:26Z</time>
      </trkpt>
      <trkpt lat="49.02498" lon="1.12988">
        <ele>58.5</ele>
        <time>2014-09-28T16:55:28Z</time>
      </trkpt>
      <trkpt lat="49.02498" lon="1.13004">
        <ele>58.5</ele>
        <time>2014-09-28T16:55:30Z</time>
      </trkpt>
      <trkpt lat="49.02502" lon="1.1302">
        <ele>57.5</ele>
        <time>2014-09-28T16:55:32Z</time>
      </trkpt>
      <trkpt lat="49.02508" lon="1.13034">
        <ele>60.5</ele>
        <time>2014-09-28T16:55:34Z</time>
      </trkpt>
      <trkpt lat="49.02512" lon="1.13048">
        <ele>63.5</ele>
        <time>2014-09-28T16:55:36Z</time>
      </trkpt>
      <trkpt lat="49.02515" lon="1.13064">
        <ele>64.5</ele>
        <time>2014-09-28T16:55:38Z</time>
      </trkpt>
      <trkpt lat="49.0252" lon="1.1308">
        <ele>64.5</ele>
        <time>2014-09-28T16:55:40Z</time>
      </trkpt>
      <trkpt lat="49.02522" lon="1.13096">
        <ele>63.5</ele>
        <time>2014-09-28T16:55:42Z</time>
      </trkpt>
      <trkpt lat="49.02523" lon="1.13114">
        <ele>66.5</ele>
        <time>2014-09-28T16:55:44Z</time>
      </trkpt>
      <trkpt lat="49.02525" lon="1.1313">
        <ele>67.5</ele>
        <time>2014-09-28T16:55:46Z</time>
      </trkpt>
      <trkpt lat="49.02527" lon="1.1315">
        <ele>67.5</ele>
        <time>2014-09-28T16:55:48Z</time>
      </trkpt>
      <trkpt lat="49.02527" lon="1.13165">
        <ele>65.5</ele>
        <time>2014-09-28T16:55:50Z</time>
      </trkpt>
      <trkpt lat="49.02531" lon="1.13176">
        <ele>63.5</ele>
        <time>2014-09-28T16:55:52Z</time>
      </trkpt>
      <trkpt lat="49.02536" lon="1.1319">
        <ele>62.5</ele>
        <time>2014-09-28T16:55:54Z</time>
      </trkpt>
      <trkpt lat="49.02536" lon="1.13207">
        <ele>61.5</ele>
        <time>2014-09-28T16:55:56Z</time>
      </trkpt>
      <trkpt lat="49.02538" lon="1.13219">
        <ele>59.5</ele>
        <time>2014-09-28T16:55:57Z</time>
      </trkpt>
      <trkpt lat="49.02541" lon="1.13231">
        <ele>58.5</ele>
        <time>2014-09-28T16:55:59Z</time>
      </trkpt>
      <trkpt lat="49.02544" lon="1.13244">
        <ele>59.5</ele>
        <time>2014-09-28T16:56:01Z</time>
      </trkpt>
      <trkpt lat="49.02544" lon="1.1326">
        <ele>59.5</ele>
        <time>2014-09-28T16:56:03Z</time>
      </trkpt>
      <trkpt lat="49.02546" lon="1.13272">
        <ele>59.5</ele>
        <time>2014-09-28T16:56:05Z</time>
      </trkpt>
      <trkpt lat="49.02548" lon="1.13288">
        <ele>58.5</ele>
        <time>2014-09-28T16:56:07Z</time>
      </trkpt>
      <trkpt lat="49.02548" lon="1.13305">
        <ele>60.5</ele>
        <time>2014-09-28T16:56:09Z</time>
      </trkpt>
      <trkpt lat="49.02552" lon="1.1332">
        <ele>62.5</ele>
        <time>2014-09-28T16:56:11Z</time>
      </trkpt>
      <trkpt lat="49.02558" lon="1.13335">
        <ele>64.5</ele>
        <time>2014-09-28T16:56:13Z</time>
      </trkpt>
      <trkpt lat="49.02561" lon="1.13349">
        <ele>63.5</ele>
        <time>2014-09-28T16:56:15Z</time>
      </trkpt>
      <trkpt lat="49.02562" lon="1.13365">
        <ele>60.5</ele>
        <time>2014-09-28T16:56:18Z</time>
      </trkpt>
      <trkpt lat="49.02564" lon="1.13382">
        <ele>62.5</ele>
        <time>2014-09-28T16:56:19Z</time>
      </trkpt>
      <trkpt lat="49.02567" lon="1.13398">
        <ele>60.5</ele>
        <time>2014-09-28T16:56:21Z</time>
      </trkpt>
      <trkpt lat="49.0257" lon="1.13409">
        <ele>59.5</ele>
        <time>2014-09-28T16:56:23Z</time>
      </trkpt>
      <trkpt lat="49.02572" lon="1.13421">
        <ele>57.5</ele>
        <time>2014-09-28T16:56:24Z</time>
      </trkpt>
      <trkpt lat="49.02575" lon="1.13437">
        <ele>57.5</ele>
        <time>2014-09-28T16:56:27Z</time>
      </trkpt>
      <trkpt lat="49.02573" lon="1.13455">
        <ele>56.5</ele>
        <time>2014-09-28T16:56:29Z</time>
      </trkpt>
      <trkpt lat="49.02574" lon="1.1347">
        <ele>57.5</ele>
        <time>2014-09-28T16:56:32Z</time>
      </trkpt>
      <trkpt lat="49.02575" lon="1.13483">
        <ele>57.5</ele>
        <time>2014-09-28T16:56:34Z</time>
      </trkpt>
      <trkpt lat="49.02577" lon="1.13495">
        <ele>57.5</ele>
        <time>2014-09-28T16:56:36Z</time>
      </trkpt>
      <trkpt lat="49.0258" lon="1.13508">
        <ele>59.5</ele>
        <time>2014-09-28T16:56:38Z</time>
      </trkpt>
      <trkpt lat="49.02582" lon="1.13522">
        <ele>58.5</ele>
        <time>2014-09-28T16:56:40Z</time>
      </trkpt>
      <trkpt lat="49.02586" lon="1.13538">
        <ele>59.5</ele>
        <time>2014-09-28T16:56:42Z</time>
      </trkpt>
      <trkpt lat="49.02586" lon="1.13554">
        <ele>59.5</ele>
        <time>2014-09-28T16:56:44Z</time>
      </trkpt>
      <trkpt lat="49.02588" lon="1.13568">
        <ele>56.5</ele>
        <time>2014-09-28T16:56:46Z</time>
      </trkpt>
      <trkpt lat="49.02591" lon="1.13581">
        <ele>56.5</ele>
        <time>2014-09-28T16:56:48Z</time>
      </trkpt>
      <trkpt lat="49.02596" lon="1.13594">
        <ele>58.5</ele>
        <time>2014-09-28T16:56:50Z</time>
      </trkpt>
      <trkpt lat="49.02589" lon="1.13602">
        <ele>55.5</ele>
        <time>2014-09-28T16:56:52Z</time>
      </trkpt>
      <trkpt lat="49.02581" lon="1.13606">
        <ele>56.5</ele>
        <time>2014-09-28T16:56:54Z</time>
      </trkpt>
      <trkpt lat="49.02569" lon="1.13611">
        <ele>53.5</ele>
        <time>2014-09-28T16:56:57Z</time>
      </trkpt>
      <trkpt lat="49.02559" lon="1.13615">
        <ele>52.5</ele>
        <time>2014-09-28T16:56:59Z</time>
      </trkpt>
      <trkpt lat="49.0255" lon="1.13624">
        <ele>53.5</ele>
        <time>2014-09-28T16:57:01Z</time>
      </trkpt>
      <trkpt lat="49.02538" lon="1.13629">
        <ele>53.5</ele>
        <time>2014-09-28T16:57:03Z</time>
      </trkpt>
      <trkpt lat="49.0253" lon="1.13634">
        <ele>55.5</ele>
        <time>2014-09-28T16:57:05Z</time>
      </trkpt>
      <trkpt lat="49.02523" lon="1.13643">
        <ele>56.5</ele>
        <time>2014-09-28T16:57:07Z</time>
      </trkpt>
      <trkpt lat="49.02515" lon="1.13654">
        <ele>56.5</ele>
        <time>2014-09-28T16:57:09Z</time>
      </trkpt>
      <trkpt lat="49.02508" lon="1.13663">
        <ele>54.5</ele>
        <time>2014-09-28T16:57:11Z</time>
      </trkpt>
      <trkpt lat="49.02501" lon="1.13672">
        <ele>55.5</ele>
        <time>2014-09-28T16:57:13Z</time>
      </trkpt>
      <trkpt lat="49.02496" lon="1.13681">
        <ele>57.5</ele>
        <time>2014-09-28T16:57:15Z</time>
      </trkpt>
      <trkpt lat="49.02489" lon="1.13689">
        <ele>58.5</ele>
        <time>2014-09-28T16:57:18Z</time>
      </trkpt>
      <trkpt lat="49.02481" lon="1.13689">
        <ele>59.5</ele>
        <time>2014-09-28T16:57:22Z</time>
      </trkpt>
      <trkpt lat="49.02481" lon="1.13685">
        <ele>61.5</ele>
        <time>2014-09-28T16:57:47Z</time>
      </trkpt>
    </trkseg>
  </trk>
</gpx>